| time (UTC) | temp F | wind direction | speed knots | gust knots | rain 1hr in | rain 24hr in | rain mn in | humidity % | barometer mb |
| 20260901135848 | 55 | 97 | 0.9 | 3.5 | 0.00 | 0.00 | 0.00 | 87 | 1013.6 |
| 20260901135749 | 55 | 113 | 0.9 | 3.5 | 0.00 | 0.00 | 0.00 | 87 | 1013.6 |
| 20260901135648 | 55 | 137 | 1.7 | 3.5 | 0.00 | 0.00 | 0.00 | 87 | 1013.6 |
| 20260901135548 | 55 | 117 | 1.7 | 3.5 | 0.00 | 0.00 | 0.00 | 87 | 1013.6 |
| 20260901135451 | 55 | 115 | 1.7 | 3.5 | 0.00 | 0.00 | 0.00 | 87 | 1013.6 |
| 20260901135446 | 55 | 98 | 1.7 | 3.5 | 0.00 | 0.00 | 0.00 | 87 | 1013.6 |
| 20260901135346 | 55 | 150 | 1.7 | 3.5 | 0.00 | 0.00 | 0.00 | 87 | 1013.6 |
| 20260901135245 | 55 | 104 | 1.7 | 3.5 | 0.00 | 0.00 | 0.00 | 87 | 1013.6 |
| 20260901135220 | 55 | 104 | 0.9 | 3.5 | 0.00 | 0.00 | 0.00 | 87 | 1013.5 |
| 20260901135144 | 55 | 191 | 1.7 | 3.5 | 0.00 | 0.00 | 0.00 | 87 | 1013.5 |
| 20260901135045 | 55 | 106 | 1.7 | 3.5 | 0.00 | 0.00 | 0.00 | 87 | 1013.5 |
| 20260901134944 | 55 | 110 | 0.9 | 3.5 | 0.00 | 0.00 | 0.00 | 87 | 1013.5 |
| 20260901134844 | 55 | 143 | 0.9 | 3.5 | 0.00 | 0.00 | 0.00 | 87 | 1013.5 |
| 20260901134745 | 55 | 121 | 0.9 | 3.5 | 0.00 | 0.00 | 0.00 | 87 | 1013.4 |
| 20260901134644 | 55 | 107 | 0.9 | 3.5 | 0.00 | 0.00 | 0.00 | 87 | 1013.5 |
| 20260901134545 | 55 | 114 | 0.9 | 2.6 | 0.00 | 0.00 | 0.00 | 87 | 1013.5 |
| 20260901134444 | 55 | 141 | 0.9 | 2.6 | 0.00 | 0.00 | 0.00 | 87 | 1013.5 |
| 20260901134342 | 55 | 146 | 0.9 | 3.5 | 0.00 | 0.00 | 0.00 | 87 | 1013.5 |
| 20260901134240 | 55 | 129 | 0.9 | 3.5 | 0.00 | 0.00 | 0.00 | 87 | 1013.5 |
| 20260901134140 | 55 | 143 | 0.9 | 3.5 | 0.00 | 0.00 | 0.00 | 87 | 1013.5 |
| 20260901133938 | 55 | 155 | 0.9 | 3.5 | 0.00 | 0.00 | 0.00 | 88 | 1013.5 |
| 20260901133837 | 55 | 139 | 0.9 | 3.5 | 0.00 | 0.00 | 0.00 | 87 | 1013.4 |
| 20260901133734 | 55 | 177 | 0.9 | 3.5 | 0.00 | 0.00 | 0.00 | 88 | 1013.5 |
| 20260901133634 | 55 | 148 | 0.9 | 3.5 | 0.00 | 0.00 | 0.00 | 88 | 1013.5 |
| 20260901133533 | 55 | 117 | 0.9 | 3.5 | 0.00 | 0.00 | 0.00 | 88 | 1013.4 |
| 20260901133446 | 55 | 123 | 0.9 | 3.5 | 0.00 | 0.00 | 0.00 | 88 | 1013.4 |
| 20260901133433 | 55 | 122 | 0.9 | 3.5 | 0.00 | 0.00 | 0.00 | 88 | 1013.4 |
| 20260901133335 | 55 | 87 | 0.9 | 3.5 | 0.00 | 0.00 | 0.00 | 88 | 1013.4 |
| 20260901133231 | 55 | 123 | 0.9 | 3.5 | 0.00 | 0.00 | 0.00 | 88 | 1013.4 |
| 20260901133128 | 55 | 131 | 0.9 | 3.5 | 0.00 | 0.00 | 0.00 | 88 | 1013.4 |
| 20260901133029 | 55 | 136 | 0.9 | 2.6 | 0.00 | 0.00 | 0.00 | 88 | 1013.4 |
| 20260901132928 | 55 | 136 | 0.9 | 2.6 | 0.00 | 0.00 | 0.00 | 88 | 1013.4 |
| 20260901132828 | 55 | 132 | 0.9 | 2.6 | 0.00 | 0.00 | 0.00 | 88 | 1013.4 |
| 20260901132728 | 55 | 129 | 0.9 | 2.6 | 0.00 | 0.00 | 0.00 | 88 | 1013.4 |
| 20260901132626 | 55 | 160 | 0.9 | 2.6 | 0.00 | 0.00 | 0.00 | 88 | 1013.5 |
| 20260901132528 | 55 | 141 | 0.9 | 2.6 | 0.00 | 0.00 | 0.00 | 88 | 1013.5 |
| 20260901132424 | 55 | 132 | 0.9 | 2.6 | 0.00 | 0.00 | 0.00 | 88 | 1013.5 |
| 20260901132325 | 55 | 116 | 0.9 | 3.5 | 0.00 | 0.00 | 0.00 | 88 | 1013.5 |
| 20260901132223 | 55 | 138 | 0.9 | 3.5 | 0.00 | 0.00 | 0.00 | 88 | 1013.5 |
| 20260901132122 | 55 | 214 | 0.9 | 3.5 | 0.00 | 0.00 | 0.00 | 88 | 1013.5 |
| 20260901132024 | 55 | 125 | 0.9 | 3.5 | 0.00 | 0.00 | 0.00 | 88 | 1013.4 |
| 20260901131923 | 55 | 126 | 0.9 | 3.5 | 0.00 | 0.00 | 0.00 | 88 | 1013.4 |
| 20260901131822 | 55 | 143 | 0.9 | 3.5 | 0.00 | 0.00 | 0.00 | 88 | 1013.4 |
| 20260901131718 | 55 | 139 | 0.9 | 3.5 | 0.00 | 0.00 | 0.00 | 88 | 1013.4 |
| 20260901131617 | 55 | 147 | 0.9 | 3.5 | 0.00 | 0.00 | 0.00 | 88 | 1013.4 |
| 20260901131518 | 55 | 146 | 0.9 | 3.5 | 0.00 | 0.00 | 0.00 | 88 | 1013.4 |
| 20260901131439 | 55 | 109 | 0.9 | 3.5 | 0.00 | 0.00 | 0.00 | 88 | 1013.4 |
| 20260901131415 | 55 | 104 | 0.9 | 3.5 | 0.00 | 0.00 | 0.00 | 88 | 1013.4 |
| 20260901131314 | 55 | 155 | 0.9 | 2.6 | 0.00 | 0.00 | 0.00 | 88 | 1013.3 |
| 20260901131209 | 55 | 146 | 0.9 | 2.6 | 0.00 | 0.00 | 0.00 | 88 | 1013.4 |
| 20260901131110 | 55 | 174 | 0.9 | 2.6 | 0.00 | 0.00 | 0.00 | 88 | 1013.3 |
| 20260901131008 | 55 | 136 | 0.9 | 3.5 | 0.00 | 0.00 | 0.00 | 88 | 1013.3 |
| 20260901130940 | 55 | 136 | 0.9 | 3.5 | 0.00 | 0.00 | 0.00 | 88 | 1013.3 |
| 20260901130906 | 55 | 129 | 0.9 | 3.5 | 0.00 | 0.00 | 0.00 | 88 | 1013.3 |
| 20260901130806 | 55 | 110 | 0.9 | 3.5 | 0.00 | 0.00 | 0.00 | 88 | 1013.3 |
| 20260901130701 | 55 | 107 | 0.9 | 3.5 | 0.00 | 0.00 | 0.00 | 88 | 1013.3 |
| 20260901130600 | 55 | 142 | 0.9 | 3.5 | 0.00 | 0.00 | 0.00 | 88 | 1013.2 |
| 20260901130500 | 55 | 143 | 0.9 | 3.5 | 0.00 | 0.00 | 0.00 | 88 | 1013.2 |
| 20260901130441 | 55 | 133 | 0.9 | 3.5 | 0.00 | 0.00 | 0.00 | 88 | 1013.2 |
| 20260901130400 | 55 | 100 | 0.9 | 3.5 | 0.00 | 0.00 | 0.00 | 88 | 1013.2 |
| 20260901130300 | 55 | 101 | 0.9 | 3.5 | 0.00 | 0.00 | 0.00 | 88 | 1013.2 |
| 20260901130157 | 55 | 101 | 0.9 | 3.5 | 0.00 | 0.00 | 0.00 | 88 | 1013.1 |
| 20260901130057 | 55 | 118 | 0.9 | 3.5 | 0.00 | 0.00 | 0.00 | 88 | 1013.2 |
| 20260901125956 | 55 | 103 | 0.9 | 1.7 | 0.00 | 0.00 | 0.00 | 88 | 1013.1 |
| 20260901125933 | 55 | 108 | 0.9 | 1.7 | 0.00 | 0.00 | 0.00 | 88 | 1013.1 |
| 20260901125857 | 55 | 109 | 0.9 | 1.7 | 0.00 | 0.00 | 0.00 | 88 | 1013.2 |
| 20260901125754 | 55 | 108 | 0.9 | 1.7 | 0.00 | 0.00 | 0.00 | 88 | 1013.2 |
| 20260901125657 | 55 | 145 | 0.9 | 2.6 | 0.00 | 0.00 | 0.00 | 87 | 1013.2 |
| 20260901125652 | 55 | 109 | 0.9 | 2.6 | 0.00 | 0.00 | 0.00 | 88 | 1013.1 |
| 20260901125553 | 55 | 147 | 0.9 | 2.6 | 0.00 | 0.00 | 0.00 | 88 | 1013.2 |
| 20260901125539 | 55 | 145 | 0.9 | 2.6 | 0.00 | 0.00 | 0.00 | 87 | 1013.2 |
| 20260901125350 | 55 | 125 | 0.9 | 2.6 | 0.00 | 0.00 | 0.00 | 87 | 1013.2 |
| 20260901125248 | 55 | 166 | 0.9 | 4.3 | 0.00 | 0.00 | 0.00 | 87 | 1013.1 |
| 20260901125144 | 55 | 167 | 0.9 | 4.3 | 0.00 | 0.00 | 0.00 | 87 | 1013.1 |
| 20260901125044 | 55 | 127 | 0.9 | 4.3 | 0.00 | 0.00 | 0.00 | 87 | 1013.1 |
| 20260901124944 | 55 | 103 | 0.9 | 4.3 | 0.00 | 0.00 | 0.00 | 87 | 1013.1 |
| 20260901124921 | 55 | 96 | 0.9 | 4.3 | 0.00 | 0.00 | 0.00 | 87 | 1013.1 |
| 20260901124844 | 55 | 158 | 0.9 | 4.3 | 0.00 | 0.00 | 0.00 | 87 | 1013.1 |
| 20260901124743 | 55 | 158 | 1.7 | 4.3 | 0.00 | 0.00 | 0.00 | 87 | 1013.1 |
| 20260901124650 | 55 | 146 | 1.7 | 4.3 | 0.00 | 0.00 | 0.00 | 87 | 1013.0 |
| 20260901124646 | 55 | 148 | 1.7 | 4.3 | 0.00 | 0.00 | 0.00 | 87 | 1013.0 |
| 20260901124555 | 55 | 99 | 1.7 | 4.3 | 0.00 | 0.00 | 0.00 | 87 | 1013.0 |
| 20260901124536 | 55 | 98 | 1.7 | 4.3 | 0.00 | 0.00 | 0.00 | 87 | 1013.0 |
| 20260901124337 | 55 | 162 | 1.7 | 3.5 | 0.00 | 0.00 | 0.00 | 87 | 1013.0 |
| 20260901124236 | 55 | 118 | 1.7 | 3.5 | 0.00 | 0.00 | 0.00 | 87 | 1013.0 |
| 20260901124132 | 55 | 131 | 0.9 | 3.5 | 0.00 | 0.00 | 0.00 | 87 | 1013.0 |
| 20260901124030 | 55 | 116 | 0.9 | 3.5 | 0.00 | 0.00 | 0.00 | 87 | 1013.0 |
| 20260901123930 | 55 | 115 | 0.9 | 4.3 | 0.00 | 0.00 | 0.00 | 87 | 1013.0 |
| 20260901123909 | 55 | 112 | 1.7 | 4.3 | 0.00 | 0.00 | 0.00 | 87 | 1013.0 |
| 20260901123831 | 55 | 111 | 1.7 | 4.3 | 0.00 | 0.00 | 0.00 | 87 | 1013.0 |
| 20260901123730 | 55 | 115 | 0.9 | 4.3 | 0.00 | 0.00 | 0.00 | 87 | 1013.0 |
| 20260901123626 | 55 | 103 | 0.9 | 4.3 | 0.00 | 0.00 | 0.00 | 87 | 1013.0 |
| 20260901123527 | 55 | 90 | 0.9 | 4.3 | 0.00 | 0.00 | 0.00 | 86 | 1013.0 |
| 20260901123426 | 55 | 107 | 0.9 | 4.3 | 0.00 | 0.00 | 0.00 | 86 | 1013.0 |
| 20260901123403 | 55 | 107 | 1.7 | 4.3 | 0.00 | 0.00 | 0.00 | 86 | 1013.1 |
| 20260901123327 | 55 | 108 | 1.7 | 4.3 | 0.00 | 0.00 | 0.00 | 86 | 1013.1 |
| 20260901123224 | 55 | 107 | 1.7 | 4.3 | 0.00 | 0.00 | 0.00 | 86 | 1013.0 |
| 20260901123118 | 55 | 107 | 2.6 | 5.2 | 0.00 | 0.00 | 0.00 | 86 | 1013.0 |
| 20260901123025 | 55 | 108 | 2.6 | 5.2 | 0.00 | 0.00 | 0.00 | 86 | 1013.0 |
| 20260901122918 | 55 | 112 | 2.6 | 5.2 | 0.00 | 0.00 | 0.00 | 86 | 1013.0 |
| 20260901122900 | 55 | 98 | 2.6 | 5.2 | 0.00 | 0.00 | 0.00 | 86 | 1013.0 |
| 20260901122818 | 55 | 102 | 2.6 | 5.2 | 0.00 | 0.00 | 0.00 | 86 | 1013.0 |
| 20260901122718 | 56 | 74 | 1.7 | 5.2 | 0.00 | 0.00 | 0.00 | 86 | 1013.0 |
| 20260901122615 | 56 | 118 | 1.7 | 5.2 | 0.00 | 0.00 | 0.00 | 86 | 1013.0 |
| 20260901122512 | 56 | 114 | 1.7 | 5.2 | 0.00 | 0.00 | 0.00 | 86 | 1012.9 |
| 20260901122413 | 56 | 113 | 1.7 | 5.2 | 0.00 | 0.00 | 0.00 | 86 | 1012.9 |
| 20260901122352 | 56 | 80 | 1.7 | 5.2 | 0.00 | 0.00 | 0.00 | 86 | 1012.9 |
| 20260901122313 | 56 | 90 | 1.7 | 5.2 | 0.00 | 0.00 | 0.00 | 86 | 1012.9 |
| 20260901122212 | 56 | 115 | 1.7 | 5.2 | 0.00 | 0.00 | 0.00 | 86 | 1012.9 |
| 20260901122106 | 56 | 103 | 0.9 | 4.3 | 0.00 | 0.00 | 0.00 | 86 | 1012.8 |
| 20260901122006 | 56 | 129 | 0.9 | 4.3 | 0.00 | 0.00 | 0.00 | 86 | 1012.9 |
| 20260901121906 | 56 | 95 | 0.9 | 3.5 | 0.00 | 0.00 | 0.00 | 86 | 1012.9 |
| 20260901121845 | 56 | 127 | 0.9 | 3.5 | 0.00 | 0.00 | 0.00 | 86 | 1012.9 |
| 20260901121807 | 56 | 103 | 0.9 | 3.5 | 0.00 | 0.00 | 0.00 | 86 | 1012.9 |
| 20260901121706 | 56 | 127 | 0.9 | 3.5 | 0.00 | 0.00 | 0.00 | 86 | 1012.9 |
| 20260901121607 | 56 | 126 | 0.9 | 3.5 | 0.00 | 0.00 | 0.00 | 86 | 1012.9 |
| 20260901121506 | 56 | 139 | 0.9 | 3.5 | 0.00 | 0.00 | 0.00 | 86 | 1012.9 |
| 20260901121339 | 56 | 139 | 0.9 | 3.5 | 0.00 | 0.00 | 0.00 | 86 | 1012.9 |
| 20260901121302 | 56 | 131 | 0.9 | 3.5 | 0.00 | 0.00 | 0.00 | 86 | 1012.9 |
| 20260901121201 | 56 | 131 | 0.9 | 3.5 | 0.00 | 0.00 | 0.00 | 86 | 1012.9 |
| 20260901121055 | 56 | 131 | 0.9 | 3.5 | 0.00 | 0.00 | 0.00 | 86 | 1012.9 |
| 20260901120954 | 56 | 124 | 0.9 | 3.5 | 0.00 | 0.00 | 0.00 | 86 | 1013.0 |
| 20260901120854 | 56 | 138 | 0.9 | 2.6 | 0.00 | 0.00 | 0.00 | 86 | 1012.9 |
| 20260901120834 | 56 | 139 | 0.9 | 2.6 | 0.00 | 0.00 | 0.00 | 86 | 1012.9 |
| 20260901120755 | 56 | 138 | 0.9 | 2.6 | 0.00 | 0.00 | 0.00 | 86 | 1013.0 |
| 20260901120654 | 56 | 162 | 0.9 | 2.6 | 0.00 | 0.00 | 0.00 | 86 | 1013.0 |
| 20260901120552 | 56 | 135 | 0.9 | 2.6 | 0.00 | 0.00 | 0.00 | 86 | 1013.0 |
| 20260901120548 | 56 | 136 | 0.9 | 2.6 | 0.00 | 0.00 | 0.00 | 86 | 1013.0 |
| 20260901120448 | 56 | 136 | 0.9 | 2.6 | 0.00 | 0.00 | 0.00 | 86 | 1013.0 |
| 20260901120438 | 56 | 135 | 0.9 | 2.6 | 0.00 | 0.00 | 0.00 | 86 | 1013.0 |
| 20260901120248 | 56 | 126 | 0.9 | 2.6 | 0.00 | 0.00 | 0.00 | 86 | 1012.9 |
| 20260901120148 | 56 | 121 | 0.9 | 2.6 | 0.00 | 0.00 | 0.00 | 86 | 1012.9 |
| 20260901120052 | 56 | 210 | 0.9 | 2.6 | 0.00 | 0.00 | 0.00 | 85 | 1013.0 |
| 20260901120046 | 56 | 133 | 0.9 | 2.6 | 0.00 | 0.00 | 0.00 | 86 | 1013.0 |
| 20260901115946 | 56 | 139 | 0.9 | 2.6 | 0.00 | 0.00 | 0.00 | 85 | 1012.9 |
| 20260901115936 | 56 | 210 | 0.9 | 2.6 | 0.00 | 0.00 | 0.00 | 86 | 1013.0 |
| 20260901115642 | 56 | 121 | 0.9 | 2.6 | 0.00 | 0.00 | 0.00 | 85 | 1012.9 |
| 20260901115542 | 56 | 136 | 0.9 | 2.6 | 0.00 | 0.00 | 0.00 | 85 | 1012.9 |
| 20260901115440 | 56 | 129 | 0.9 | 2.6 | 0.00 | 0.00 | 0.00 | 85 | 1013.0 |
| 20260901115326 | 56 | 136 | 0.9 | 2.6 | 0.00 | 0.00 | 0.00 | 85 | 1013.0 |
| 20260901115239 | 56 | 136 | 0.9 | 2.6 | 0.00 | 0.00 | 0.00 | 85 | 1013.0 |
| 20260901115136 | 56 | 136 | 1.7 | 2.6 | 0.00 | 0.00 | 0.00 | 85 | 1012.9 |
| 20260901115031 | 56 | 136 | 1.7 | 2.6 | 0.00 | 0.00 | 0.00 | 85 | 1012.9 |
| 20260901114930 | 56 | 139 | 1.7 | 2.6 | 0.00 | 0.00 | 0.00 | 85 | 1012.9 |
| 20260901114824 | 56 | 139 | 1.7 | 2.6 | 0.00 | 0.00 | 0.00 | 85 | 1012.9 |
| 20260901114730 | 56 | 162 | 1.7 | 2.6 | 0.00 | 0.00 | 0.00 | 85 | 1013.0 |
| 20260901114630 | 56 | 129 | 0.9 | 2.6 | 0.00 | 0.00 | 0.00 | 85 | 1013.0 |
| 20260901114526 | 56 | 135 | 0.9 | 2.6 | 0.00 | 0.00 | 0.00 | 85 | 1013.0 |
| 20260901114424 | 56 | 141 | 0.9 | 2.6 | 0.00 | 0.00 | 0.00 | 85 | 1013.0 |
| 20260901114330 | 56 | 164 | 0.9 | 2.6 | 0.00 | 0.00 | 0.00 | 84 | 1013.0 |
| 20260901114324 | 56 | 163 | 0.9 | 2.6 | 0.00 | 0.00 | 0.00 | 84 | 1013.0 |
| 20260901114224 | 56 | 145 | 0.9 | 2.6 | 0.00 | 0.00 | 0.00 | 84 | 1013.0 |
| 20260901114123 | 56 | 169 | 0.9 | 2.6 | 0.00 | 0.00 | 0.00 | 84 | 1013.0 |
| 20260901114026 | 56 | 149 | 0.9 | 2.6 | 0.00 | 0.00 | 0.00 | 84 | 1013.0 |
| 20260901113922 | 56 | 139 | 0.9 | 2.6 | 0.00 | 0.00 | 0.00 | 84 | 1012.9 |
| 20260901113822 | 56 | 150 | 0.9 | 2.6 | 0.00 | 0.00 | 0.00 | 84 | 1012.9 |
| 20260901113720 | 56 | 146 | 0.9 | 3.5 | 0.00 | 0.00 | 0.00 | 84 | 1012.9 |
| 20260901113619 | 56 | 146 | 0.9 | 3.5 | 0.00 | 0.00 | 0.00 | 84 | 1012.8 |
| 20260901113512 | 56 | 113 | 1.7 | 3.5 | 0.00 | 0.00 | 0.00 | 84 | 1012.8 |
| 20260901113412 | 56 | 113 | 1.7 | 3.5 | 0.00 | 0.00 | 0.00 | 84 | 1012.8 |
| 20260901113322 | 56 | 97 | 1.7 | 3.5 | 0.00 | 0.00 | 0.00 | 84 | 1012.8 |
| 20260901113316 | 56 | 120 | 1.7 | 3.5 | 0.00 | 0.00 | 0.00 | 84 | 1012.8 |
| 20260901113213 | 56 | 129 | 1.7 | 3.5 | 0.00 | 0.00 | 0.00 | 84 | 1012.8 |
| 20260901113113 | 56 | 137 | 1.7 | 3.5 | 0.00 | 0.00 | 0.00 | 84 | 1012.8 |
| 20260901113006 | 56 | 129 | 1.7 | 3.5 | 0.00 | 0.00 | 0.00 | 84 | 1012.7 |
| 20260901112907 | 56 | 143 | 1.7 | 3.5 | 0.00 | 0.00 | 0.00 | 84 | 1012.7 |
| 20260901112821 | 56 | 133 | 1.7 | 3.5 | 0.00 | 0.00 | 0.00 | 84 | 1012.7 |
| 20260901112806 | 56 | 132 | 1.7 | 3.5 | 0.00 | 0.00 | 0.00 | 84 | 1012.7 |
| 20260901112707 | 56 | 135 | 1.7 | 3.5 | 0.00 | 0.00 | 0.00 | 84 | 1012.7 |
| 20260901112607 | 56 | 137 | 1.7 | 3.5 | 0.00 | 0.00 | 0.00 | 84 | 1012.8 |
| 20260901112505 | 56 | 125 | 1.7 | 3.5 | 0.00 | 0.00 | 0.00 | 84 | 1012.7 |
| 20260901112404 | 57 | 134 | 1.7 | 3.5 | 0.00 | 0.00 | 0.00 | 84 | 1012.8 |
| 20260901112322 | 57 | 134 | 1.7 | 3.5 | 0.00 | 0.00 | 0.00 | 84 | 1012.8 |
| 20260901112306 | 57 | 131 | 0.9 | 3.5 | 0.00 | 0.00 | 0.00 | 84 | 1012.8 |
| 20260901112202 | 57 | 129 | 0.9 | 3.5 | 0.00 | 0.00 | 0.00 | 84 | 1012.8 |
| 20260901112100 | 57 | 146 | 0.9 | 2.6 | 0.00 | 0.00 | 0.00 | 83 | 1012.7 |
| 20260901111954 | 57 | 136 | 0.9 | 4.3 | 0.00 | 0.00 | 0.00 | 83 | 1012.8 |
| 20260901111855 | 57 | 134 | 1.7 | 6.1 | 0.00 | 0.00 | 0.00 | 83 | 1012.7 |
| 20260901111820 | 57 | 134 | 1.7 | 6.1 | 0.00 | 0.00 | 0.00 | 83 | 1012.7 |
| 20260901111755 | 57 | 134 | 1.7 | 6.1 | 0.00 | 0.00 | 0.00 | 83 | 1012.8 |
| 20260901111654 | 57 | 136 | 1.7 | 6.1 | 0.00 | 0.00 | 0.00 | 83 | 1012.8 |
| 20260901111554 | 57 | 219 | 1.7 | 6.1 | 0.00 | 0.00 | 0.00 | 83 | 1012.7 |
| 20260901111454 | 57 | 218 | 1.7 | 6.1 | 0.00 | 0.00 | 0.00 | 83 | 1012.7 |
| 20260901111352 | 57 | 122 | 1.7 | 6.1 | 0.00 | 0.00 | 0.00 | 83 | 1012.7 |
| 20260901111319 | 57 | 123 | 1.7 | 6.1 | 0.00 | 0.00 | 0.00 | 83 | 1012.7 |
| 20260901111252 | 57 | 138 | 1.7 | 6.1 | 0.00 | 0.00 | 0.00 | 83 | 1012.7 |
| 20260901111151 | 57 | 123 | 2.6 | 6.1 | 0.00 | 0.00 | 0.00 | 83 | 1012.7 |
| 20260901111048 | 57 | 113 | 2.6 | 6.1 | 0.00 | 0.00 | 0.00 | 83 | 1012.7 |
| 20260901110942 | 57 | 154 | 2.6 | 5.2 | 0.00 | 0.00 | 0.00 | 83 | 1012.7 |
| 20260901110843 | 57 | 158 | 2.6 | 5.2 | 0.00 | 0.00 | 0.00 | 83 | 1012.6 |
| 20260901110820 | 57 | 137 | 2.6 | 5.2 | 0.00 | 0.00 | 0.00 | 83 | 1012.6 |
| 20260901110742 | 57 | 135 | 2.6 | 5.2 | 0.00 | 0.00 | 0.00 | 83 | 1012.7 |
| 20260901110642 | 57 | 136 | 2.6 | 5.2 | 0.00 | 0.00 | 0.00 | 83 | 1012.7 |
| 20260901110543 | 57 | 136 | 2.6 | 5.2 | 0.00 | 0.00 | 0.00 | 83 | 1012.7 |
| 20260901110436 | 57 | 148 | 2.6 | 5.2 | 0.00 | 0.00 | 0.00 | 82 | 1012.7 |
| 20260901110336 | 57 | 156 | 2.6 | 5.2 | 0.00 | 0.00 | 0.00 | 82 | 1012.7 |
| 20260901110321 | 57 | 150 | 2.6 | 5.2 | 0.00 | 0.00 | 0.00 | 82 | 1012.7 |
| 20260901110237 | 57 | 144 | 2.6 | 5.2 | 0.00 | 0.00 | 0.00 | 82 | 1012.7 |
| 20260901110137 | 57 | 155 | 2.6 | 5.2 | 0.00 | 0.00 | 0.00 | 83 | 1012.7 |
| 20260901105932 | 57 | 129 | 2.6 | 5.2 | 0.00 | 0.00 | 0.00 | 82 | 1012.7 |
| 20260901105830 | 57 | 121 | 2.6 | 5.2 | 0.00 | 0.00 | 0.00 | 82 | 1012.7 |
| 20260901105820 | 57 | 158 | 2.6 | 5.2 | 0.00 | 0.00 | 0.00 | 82 | 1012.7 |
| 20260901105730 | 57 | 141 | 2.6 | 5.2 | 0.00 | 0.00 | 0.00 | 82 | 1012.7 |
| 20260901105630 | 57 | 149 | 2.6 | 5.2 | 0.00 | 0.00 | 0.00 | 82 | 1012.7 |
| 20260901105531 | 57 | 167 | 2.6 | 5.2 | 0.00 | 0.00 | 0.00 | 82 | 1012.7 |
| 20260901105424 | 57 | 191 | 1.7 | 5.2 | 0.00 | 0.00 | 0.00 | 82 | 1012.7 |
| 20260901105330 | 57 | 141 | 1.7 | 5.2 | 0.00 | 0.00 | 0.00 | 82 | 1012.7 |
| 20260901105319 | 57 | 160 | 1.7 | 5.2 | 0.00 | 0.00 | 0.00 | 82 | 1012.7 |
| 20260901105224 | 57 | 141 | 1.7 | 5.2 | 0.00 | 0.00 | 0.00 | 82 | 1012.7 |
| 20260901105125 | 57 | 141 | 1.7 | 5.2 | 0.00 | 0.00 | 0.00 | 82 | 1012.7 |
| 20260901105026 | 57 | 111 | 1.7 | 6.1 | 0.00 | 0.00 | 0.00 | 82 | 1012.7 |
| 20260901104925 | 57 | 159 | 1.7 | 6.1 | 0.00 | 0.00 | 0.00 | 82 | 1012.7 |
| 20260901104829 | 57 | 138 | 1.7 | 6.1 | 0.00 | 0.00 | 0.00 | 82 | 1012.7 |
| 20260901104819 | 57 | 155 | 1.7 | 6.1 | 0.00 | 0.00 | 0.00 | 82 | 1012.7 |
| 20260901104725 | 57 | 129 | 1.7 | 6.1 | 0.00 | 0.00 | 0.00 | 82 | 1012.7 |
| 20260901104625 | 57 | 136 | 1.7 | 6.1 | 0.00 | 0.00 | 0.00 | 82 | 1012.7 |
| 20260901104525 | 57 | 148 | 1.7 | 6.1 | 0.00 | 0.00 | 0.00 | 82 | 1012.7 |
| 20260901104425 | 57 | 143 | 1.7 | 6.1 | 0.00 | 0.00 | 0.00 | 82 | 1012.7 |
| 20260901104319 | 57 | 132 | 1.7 | 6.1 | 0.00 | 0.00 | 0.00 | 83 | 1012.7 |
| 20260901104224 | 57 | 161 | 1.7 | 6.1 | 0.00 | 0.00 | 0.00 | 83 | 1012.6 |
| 20260901104124 | 57 | 141 | 1.7 | 6.1 | 0.00 | 0.00 | 0.00 | 83 | 1012.5 |
| 20260901104026 | 57 | 108 | 1.7 | 6.1 | 0.00 | 0.00 | 0.00 | 83 | 1012.5 |
| 20260901103925 | 57 | 116 | 1.7 | 6.1 | 0.00 | 0.00 | 0.00 | 82 | 1012.5 |
| 20260901103824 | 57 | 155 | 2.6 | 6.1 | 0.00 | 0.00 | 0.00 | 82 | 1012.5 |
| 20260901103723 | 57 | 143 | 1.7 | 6.1 | 0.00 | 0.00 | 0.00 | 82 | 1012.5 |
| 20260901103622 | 57 | 149 | 2.6 | 6.1 | 0.00 | 0.00 | 0.00 | 82 | 1012.5 |
| 20260901103524 | 57 | 125 | 2.6 | 6.1 | 0.00 | 0.00 | 0.00 | 82 | 1012.5 |
| 20260901103422 | 57 | 162 | 1.7 | 6.1 | 0.00 | 0.00 | 0.00 | 82 | 1012.5 |
| 20260901103324 | 57 | 122 | 1.7 | 6.1 | 0.00 | 0.00 | 0.00 | 82 | 1012.4 |
| 20260901103216 | 58 | 121 | 2.6 | 6.1 | 0.00 | 0.00 | 0.00 | 83 | 1012.4 |
| 20260901103116 | 57 | 143 | 2.6 | 6.1 | 0.00 | 0.00 | 0.00 | 83 | 1012.4 |
| 20260901103022 | 57 | 92 | 1.7 | 5.2 | 0.00 | 0.00 | 0.00 | 83 | 1012.4 |
| 20260901102916 | 57 | 134 | 2.6 | 5.2 | 0.00 | 0.00 | 0.00 | 83 | 1012.4 |
| 20260901102818 | 57 | 160 | 2.6 | 5.2 | 0.00 | 0.00 | 0.00 | 83 | 1012.4 |
| 20260901102712 | 57 | 150 | 2.6 | 5.2 | 0.00 | 0.00 | 0.00 | 83 | 1012.4 |
| 20260901102610 | 57 | 158 | 2.6 | 5.2 | 0.00 | 0.00 | 0.00 | 83 | 1012.4 |
| 20260901102510 | 57 | 148 | 2.6 | 5.2 | 0.00 | 0.00 | 0.00 | 83 | 1012.4 |
| 20260901102411 | 57 | 165 | 2.6 | 5.2 | 0.00 | 0.00 | 0.00 | 83 | 1012.4 |
| 20260901102315 | 57 | 131 | 2.6 | 5.2 | 0.00 | 0.00 | 0.00 | 83 | 1012.5 |
| 20260901102205 | 57 | 195 | 2.6 | 5.2 | 0.00 | 0.00 | 0.00 | 83 | 1012.5 |
| 20260901102104 | 57 | 136 | 1.7 | 5.2 | 0.00 | 0.00 | 0.00 | 83 | 1012.4 |
| 20260901102004 | 57 | 107 | 1.7 | 4.3 | 0.00 | 0.00 | 0.00 | 83 | 1012.4 |
| 20260901101905 | 57 | 134 | 1.7 | 4.3 | 0.00 | 0.00 | 0.00 | 83 | 1012.4 |
| 20260901101806 | 57 | 146 | 1.7 | 4.3 | 0.00 | 0.00 | 0.00 | 83 | 1012.4 |
| 20260901101704 | 57 | 136 | 1.7 | 4.3 | 0.00 | 0.00 | 0.00 | 83 | 1012.4 |
| 20260901101603 | 57 | 141 | 1.7 | 4.3 | 0.00 | 0.00 | 0.00 | 83 | 1012.4 |
| 20260901101502 | 57 | 139 | 1.7 | 4.3 | 0.00 | 0.00 | 0.00 | 83 | 1012.4 |
| 20260901101401 | 57 | 162 | 1.7 | 4.3 | 0.00 | 0.00 | 0.00 | 83 | 1012.4 |
| 20260901101304 | 57 | 162 | 1.7 | 4.3 | 0.00 | 0.00 | 0.00 | 84 | 1012.3 |
| 20260901101258 | 57 | 165 | 1.7 | 4.3 | 0.00 | 0.00 | 0.00 | 84 | 1012.3 |
| 20260901101156 | 57 | 124 | 1.7 | 5.2 | 0.00 | 0.00 | 0.00 | 84 | 1012.4 |
| 20260901101057 | 57 | 214 | 1.7 | 5.2 | 0.00 | 0.00 | 0.00 | 84 | 1012.4 |
| 20260901100956 | 57 | 127 | 1.7 | 5.2 | 0.00 | 0.00 | 0.00 | 84 | 1012.4 |
| 20260901100854 | 57 | 113 | 1.7 | 5.2 | 0.00 | 0.00 | 0.00 | 84 | 1012.5 |
| 20260901100802 | 57 | 111 | 1.7 | 5.2 | 0.00 | 0.00 | 0.00 | 84 | 1012.4 |
| 20260901100752 | 57 | 138 | 1.7 | 5.2 | 0.00 | 0.00 | 0.00 | 84 | 1012.4 |
| 20260901100653 | 57 | 121 | 2.6 | 5.2 | 0.00 | 0.00 | 0.00 | 84 | 1012.4 |
| 20260901100551 | 57 | 146 | 1.7 | 5.2 | 0.00 | 0.00 | 0.00 | 84 | 1012.5 |
| 20260901100451 | 57 | 95 | 1.7 | 5.2 | 0.00 | 0.00 | 0.00 | 84 | 1012.5 |
| 20260901100348 | 57 | 119 | 1.7 | 5.2 | 0.00 | 0.00 | 0.00 | 84 | 1012.6 |
| 20260901100301 | 57 | 127 | 1.7 | 5.2 | 0.00 | 0.00 | 0.00 | 84 | 1012.6 |
| 20260901100246 | 57 | 146 | 1.7 | 5.2 | 0.00 | 0.00 | 0.00 | 84 | 1012.6 |
| 20260901100140 | 57 | 146 | 1.7 | 4.3 | 0.00 | 0.00 | 0.00 | 84 | 1012.5 |
| 20260901100040 | 57 | 136 | 1.7 | 4.3 | 0.00 | 0.00 | 0.00 | 84 | 1012.6 |
| 20260901095940 | 57 | 136 | 1.7 | 4.3 | 0.00 | 0.00 | 0.00 | 84 | 1012.6 |
| 20260901095840 | 57 | 169 | 1.7 | 4.3 | 0.00 | 0.00 | 0.00 | 84 | 1012.6 |
| 20260901095759 | 57 | 100 | 1.7 | 4.3 | 0.00 | 0.00 | 0.00 | 84 | 1012.6 |
| 20260901095739 | 57 | 114 | 1.7 | 4.3 | 0.00 | 0.00 | 0.00 | 84 | 1012.6 |
| 20260901095635 | 57 | 110 | 1.7 | 4.3 | 0.00 | 0.00 | 0.00 | 84 | 1012.6 |
| 20260901095535 | 57 | 146 | 1.7 | 4.3 | 0.00 | 0.00 | 0.00 | 84 | 1012.7 |
| 20260901095434 | 57 | 139 | 1.7 | 4.3 | 0.00 | 0.00 | 0.00 | 84 | 1012.7 |
| 20260901095334 | 57 | 120 | 1.7 | 4.3 | 0.00 | 0.00 | 0.00 | 84 | 1012.6 |
| 20260901095300 | 57 | 214 | 1.7 | 4.3 | 0.00 | 0.00 | 0.00 | 84 | 1012.6 |
| 20260901095234 | 57 | 230 | 1.7 | 4.3 | 0.00 | 0.00 | 0.00 | 84 | 1012.6 |
| 20260901095132 | 57 | 86 | 1.7 | 4.3 | 0.00 | 0.00 | 0.00 | 84 | 1012.7 |
| 20260901095033 | 57 | 84 | 1.7 | 4.3 | 0.00 | 0.00 | 0.00 | 84 | 1012.6 |
| 20260901094932 | 57 | 142 | 1.7 | 4.3 | 0.00 | 0.00 | 0.00 | 84 | 1012.6 |
| 20260901094830 | 57 | 141 | 1.7 | 4.3 | 0.00 | 0.00 | 0.00 | 84 | 1012.7 |
| 20260901094800 | 57 | 130 | 1.7 | 4.3 | 0.00 | 0.00 | 0.00 | 84 | 1012.6 |
| 20260901094729 | 57 | 150 | 1.7 | 4.3 | 0.00 | 0.00 | 0.00 | 84 | 1012.6 |
| 20260901094625 | 57 | 139 | 1.7 | 4.3 | 0.00 | 0.00 | 0.00 | 84 | 1012.7 |
| 20260901094528 | 57 | 146 | 1.7 | 4.3 | 0.00 | 0.00 | 0.00 | 84 | 1012.6 |
| 20260901094519 | 57 | 145 | 1.7 | 4.3 | 0.00 | 0.00 | 0.00 | 84 | 1012.5 |
| 20260901094424 | 57 | 138 | 1.7 | 4.3 | 0.00 | 0.00 | 0.00 | 84 | 1012.6 |
| 20260901094414 | 57 | 117 | 1.7 | 4.3 | 0.00 | 0.00 | 0.00 | 84 | 1012.6 |
| 20260901094222 | 57 | 155 | 1.7 | 4.3 | 0.00 | 0.00 | 0.00 | 84 | 1012.6 |
| 20260901094116 | 57 | 211 | 1.7 | 4.3 | 0.00 | 0.00 | 0.00 | 84 | 1012.6 |
| 20260901094021 | 57 | 100 | 1.7 | 4.3 | 0.00 | 0.00 | 0.00 | 84 | 1012.5 |
| 20260901093916 | 57 | 103 | 1.7 | 4.3 | 0.00 | 0.00 | 0.00 | 84 | 1012.5 |
| 20260901093816 | 57 | 143 | 1.7 | 4.3 | 0.00 | 0.00 | 0.00 | 84 | 1012.5 |
| 20260901093800 | 57 | 107 | 1.7 | 4.3 | 0.00 | 0.00 | 0.00 | 84 | 1012.6 |
| 20260901093716 | 57 | 117 | 1.7 | 4.3 | 0.00 | 0.00 | 0.00 | 84 | 1012.5 |
| 20260901093611 | 57 | 141 | 1.7 | 4.3 | 0.00 | 0.00 | 0.00 | 84 | 1012.5 |
| 20260901093531 | 57 | 150 | 1.7 | 4.3 | 0.00 | 0.00 | 0.00 | 84 | 1012.5 |
| 20260901093512 | 57 | 136 | 1.7 | 4.3 | 0.00 | 0.00 | 0.00 | 84 | 1012.5 |
| 20260901093435 | 57 | 141 | 1.7 | 4.3 | 0.00 | 0.00 | 0.00 | 84 | 1012.5 |
| 20260901093426 | 57 | 150 | 1.7 | 4.3 | 0.00 | 0.00 | 0.00 | 84 | 1012.5 |
| 20260901093210 | 57 | 191 | 1.7 | 4.3 | 0.00 | 0.00 | 0.00 | 84 | 1012.5 |
| 20260901093105 | 57 | 107 | 1.7 | 4.3 | 0.00 | 0.00 | 0.00 | 84 | 1012.5 |
| 20260901093004 | 57 | 96 | 1.7 | 4.3 | 0.00 | 0.00 | 0.00 | 84 | 1012.5 |
| 20260901092904 | 57 | 117 | 1.7 | 4.3 | 0.00 | 0.00 | 0.00 | 84 | 1012.5 |
| 20260901092810 | 57 | 139 | 1.7 | 4.3 | 0.00 | 0.00 | 0.00 | 84 | 1012.5 |
| 20260901092759 | 57 | 129 | 1.7 | 4.3 | 0.00 | 0.00 | 0.00 | 84 | 1012.5 |
| 20260901092705 | 57 | 124 | 1.7 | 4.3 | 0.00 | 0.00 | 0.00 | 84 | 1012.5 |
| 20260901092604 | 57 | 105 | 1.7 | 4.3 | 0.00 | 0.00 | 0.00 | 84 | 1012.5 |
| 20260901092503 | 57 | 104 | 1.7 | 4.3 | 0.00 | 0.00 | 0.00 | 84 | 1012.5 |
| 20260901092402 | 57 | 104 | 1.7 | 4.3 | 0.00 | 0.00 | 0.00 | 84 | 1012.5 |
| 20260901092300 | 57 | 165 | 1.7 | 4.3 | 0.00 | 0.00 | 0.00 | 84 | 1012.4 |
| 20260901092159 | 57 | 107 | 1.7 | 4.3 | 0.00 | 0.00 | 0.00 | 84 | 1012.5 |
| 20260901092053 | 57 | 114 | 1.7 | 4.3 | 0.00 | 0.00 | 0.00 | 84 | 1012.5 |
| 20260901091952 | 57 | 116 | 1.7 | 4.3 | 0.00 | 0.00 | 0.00 | 84 | 1012.5 |
| 20260901091852 | 57 | 114 | 1.7 | 4.3 | 0.00 | 0.00 | 0.00 | 84 | 1012.5 |
| 20260901091759 | 57 | 132 | 1.7 | 4.3 | 0.00 | 0.00 | 0.00 | 84 | 1012.6 |
| 20260901091753 | 57 | 121 | 1.7 | 4.3 | 0.00 | 0.00 | 0.00 | 84 | 1012.6 |
| 20260901091652 | 57 | 154 | 1.7 | 4.3 | 0.00 | 0.00 | 0.00 | 84 | 1012.5 |
| 20260901091548 | 57 | 115 | 1.7 | 4.3 | 0.00 | 0.00 | 0.00 | 84 | 1012.5 |
| 20260901091448 | 57 | 113 | 1.7 | 4.3 | 0.00 | 0.00 | 0.00 | 84 | 1012.6 |
| 20260901091348 | 57 | 129 | 1.7 | 4.3 | 0.00 | 0.00 | 0.00 | 84 | 1012.6 |
| 20260901091258 | 57 | 101 | 1.7 | 4.3 | 0.00 | 0.00 | 0.00 | 84 | 1012.6 |
| 20260901091248 | 57 | 158 | 1.7 | 4.3 | 0.00 | 0.00 | 0.00 | 84 | 1012.6 |
| 20260901091146 | 57 | 111 | 1.7 | 4.3 | 0.00 | 0.00 | 0.00 | 84 | 1012.6 |
| 20260901091042 | 57 | 135 | 0.9 | 4.3 | 0.00 | 0.00 | 0.00 | 84 | 1012.6 |
| 20260901090940 | 57 | 148 | 0.9 | 4.3 | 0.00 | 0.00 | 0.00 | 84 | 1012.7 |
| 20260901090840 | 57 | 110 | 0.9 | 4.3 | 0.00 | 0.00 | 0.00 | 84 | 1012.6 |
| 20260901090758 | 57 | 140 | 0.9 | 4.3 | 0.00 | 0.00 | 0.00 | 84 | 1012.6 |
| 20260901090741 | 57 | 141 | 0.9 | 4.3 | 0.00 | 0.00 | 0.00 | 84 | 1012.6 |
| 20260901090640 | 57 | 148 | 0.9 | 4.3 | 0.00 | 0.00 | 0.00 | 84 | 1012.6 |
| 20260901090536 | 57 | 155 | 0.9 | 4.3 | 0.00 | 0.00 | 0.00 | 84 | 1012.7 |
| 20260901090435 | 57 | 157 | 1.7 | 4.3 | 0.00 | 0.00 | 0.00 | 84 | 1012.7 |
| 20260901090334 | 57 | 115 | 0.9 | 4.3 | 0.00 | 0.00 | 0.00 | 84 | 1012.7 |
| 20260901090258 | 57 | 93 | 0.9 | 4.3 | 0.00 | 0.00 | 0.00 | 84 | 1012.7 |
| 20260901090234 | 57 | 93 | 0.9 | 4.3 | 0.00 | 0.00 | 0.00 | 83 | 1012.7 |
| 20260901090135 | 57 | 150 | 1.7 | 4.3 | 0.00 | 0.00 | 0.00 | 83 | 1012.7 |
| 20260901090032 | 57 | 141 | 1.7 | 4.3 | 0.00 | 0.00 | 0.00 | 83 | 1012.7 |
| 20260901085932 | 57 | 154 | 1.7 | 4.3 | 0.00 | 0.00 | 0.00 | 83 | 1012.7 |
| 20260901085832 | 57 | 91 | 1.7 | 2.6 | 0.00 | 0.00 | 0.00 | 83 | 1012.7 |
| 20260901085757 | 57 | 97 | 1.7 | 4.3 | 0.00 | 0.00 | 0.00 | 83 | 1012.7 |
| 20260901085732 | 57 | 105 | 1.7 | 4.3 | 0.00 | 0.00 | 0.00 | 83 | 1012.7 |
| 20260901085633 | 57 | 104 | 1.7 | 4.3 | 0.00 | 0.00 | 0.00 | 83 | 1012.7 |
| 20260901085525 | 57 | 88 | 1.7 | 7.0 | 0.00 | 0.00 | 0.00 | 83 | 1012.7 |
| 20260901085422 | 57 | 138 | 1.7 | 7.0 | 0.00 | 0.00 | 0.00 | 83 | 1012.7 |
| 20260901085323 | 57 | 121 | 1.7 | 7.0 | 0.00 | 0.00 | 0.00 | 83 | 1012.7 |
| 20260901085257 | 58 | 218 | 1.7 | 7.0 | 0.00 | 0.00 | 0.00 | 83 | 1012.7 |
| 20260901085221 | 58 | 115 | 1.7 | 7.0 | 0.00 | 0.00 | 0.00 | 83 | 1012.7 |
| 20260901085119 | 58 | 110 | 1.7 | 7.0 | 0.00 | 0.00 | 0.00 | 83 | 1012.7 |
| 20260901085012 | 58 | 162 | 1.7 | 7.0 | 0.00 | 0.00 | 0.00 | 83 | 1012.7 |
| 20260901084912 | 58 | 131 | 1.7 | 7.0 | 0.00 | 0.00 | 0.00 | 83 | 1012.7 |
| 20260901084813 | 58 | 138 | 1.7 | 7.0 | 0.00 | 0.00 | 0.00 | 83 | 1012.7 |
| 20260901084752 | 58 | 129 | 1.7 | 7.0 | 0.00 | 0.00 | 0.00 | 83 | 1012.7 |
| 20260901084712 | 58 | 138 | 2.6 | 7.0 | 0.00 | 0.00 | 0.00 | 83 | 1012.7 |
| 20260901084612 | 58 | 155 | 2.6 | 6.1 | 0.00 | 0.00 | 0.00 | 83 | 1012.7 |
| 20260901084511 | 58 | 155 | 1.7 | 6.1 | 0.00 | 0.00 | 0.00 | 83 | 1012.7 |
| 20260901084410 | 58 | 161 | 1.7 | 6.1 | 0.00 | 0.00 | 0.00 | 83 | 1012.7 |
| 20260901084310 | 58 | 124 | 1.7 | 6.1 | 0.00 | 0.00 | 0.00 | 83 | 1012.7 |
| 20260901084246 | 58 | 169 | 1.7 | 6.1 | 0.00 | 0.00 | 0.00 | 83 | 1012.7 |
| 20260901084209 | 58 | 120 | 2.6 | 6.1 | 0.00 | 0.00 | 0.00 | 83 | 1012.7 |
| 20260901084107 | 58 | 152 | 1.7 | 6.1 | 0.00 | 0.00 | 0.00 | 83 | 1012.7 |
| 20260901084000 | 58 | 144 | 2.6 | 6.1 | 0.00 | 0.00 | 0.00 | 83 | 1012.7 |
| 20260901083901 | 58 | 150 | 2.6 | 6.1 | 0.00 | 0.00 | 0.00 | 83 | 1012.7 |
| 20260901083800 | 58 | 141 | 2.6 | 7.0 | 0.00 | 0.00 | 0.00 | 83 | 1012.7 |
| 20260901083739 | 58 | 146 | 2.6 | 7.0 | 0.00 | 0.00 | 0.00 | 83 | 1012.7 |
| 20260901083700 | 58 | 146 | 2.6 | 7.0 | 0.00 | 0.00 | 0.00 | 83 | 1012.7 |
| 20260901083601 | 58 | 120 | 2.6 | 7.0 | 0.00 | 0.00 | 0.00 | 83 | 1012.7 |
| 20260901083459 | 58 | 120 | 2.6 | 7.0 | 0.00 | 0.00 | 0.00 | 83 | 1012.7 |
| 20260901083358 | 58 | 131 | 2.6 | 7.0 | 0.00 | 0.00 | 0.00 | 83 | 1012.7 |
| 20260901083256 | 58 | 146 | 2.6 | 7.0 | 0.00 | 0.00 | 0.00 | 83 | 1012.8 |
| 20260901083233 | 58 | 99 | 2.6 | 7.0 | 0.00 | 0.00 | 0.00 | 83 | 1012.8 |
| 20260901083156 | 58 | 155 | 2.6 | 7.0 | 0.00 | 0.00 | 0.00 | 83 | 1012.7 |
| 20260901083054 | 58 | 151 | 2.6 | 7.0 | 0.00 | 0.00 | 0.00 | 83 | 1012.7 |
| 20260901082948 | 58 | 145 | 2.6 | 7.0 | 0.00 | 0.00 | 0.00 | 83 | 1012.7 |
| 20260901082848 | 58 | 136 | 2.6 | 7.0 | 0.00 | 0.00 | 0.00 | 83 | 1012.7 |
| 20260901082749 | 58 | 155 | 2.6 | 6.1 | 0.00 | 0.00 | 0.00 | 83 | 1012.7 |
| 20260901082728 | 58 | 104 | 2.6 | 6.1 | 0.00 | 0.00 | 0.00 | 83 | 1012.7 |
| 20260901082648 | 58 | 148 | 1.7 | 6.1 | 0.00 | 0.00 | 0.00 | 83 | 1012.6 |
| 20260901082549 | 58 | 145 | 2.6 | 6.1 | 0.00 | 0.00 | 0.00 | 83 | 1012.6 |
| 20260901082444 | 58 | 169 | 2.6 | 6.1 | 0.00 | 0.00 | 0.00 | 83 | 1012.6 |
| 20260901082345 | 58 | 135 | 2.6 | 6.1 | 0.00 | 0.00 | 0.00 | 83 | 1012.6 |
| 20260901082244 | 58 | 143 | 2.6 | 6.1 | 0.00 | 0.00 | 0.00 | 83 | 1012.5 |
| 20260901082221 | 58 | 99 | 2.6 | 6.1 | 0.00 | 0.00 | 0.00 | 83 | 1012.5 |
| 20260901082144 | 58 | 125 | 2.6 | 6.1 | 0.00 | 0.00 | 0.00 | 83 | 1012.5 |
| 20260901082043 | 58 | 150 | 2.6 | 6.1 | 0.00 | 0.00 | 0.00 | 83 | 1012.6 |
| 20260901081945 | 58 | 125 | 2.6 | 6.1 | 0.00 | 0.00 | 0.00 | 83 | 1012.6 |
| 20260901081936 | 58 | 78 | 2.6 | 6.1 | 0.00 | 0.00 | 0.00 | 83 | 1012.6 |
| 20260901081837 | 58 | 146 | 2.6 | 6.1 | 0.00 | 0.00 | 0.00 | 83 | 1012.5 |
| 20260901081825 | 58 | 149 | 2.6 | 6.1 | 0.00 | 0.00 | 0.00 | 83 | 1012.5 |
| 20260901081636 | 58 | 154 | 2.6 | 6.1 | 0.00 | 0.00 | 0.00 | 83 | 1012.6 |
| 20260901081537 | 58 | 132 | 2.6 | 6.1 | 0.00 | 0.00 | 0.00 | 83 | 1012.5 |
| 20260901081430 | 58 | 145 | 2.6 | 6.1 | 0.00 | 0.00 | 0.00 | 83 | 1012.6 |
| 20260901081330 | 58 | 141 | 2.6 | 6.1 | 0.00 | 0.00 | 0.00 | 83 | 1012.6 |
| 20260901081230 | 58 | 154 | 2.6 | 7.0 | 0.00 | 0.00 | 0.00 | 83 | 1012.6 |
| 20260901081210 | 58 | 131 | 2.6 | 7.0 | 0.00 | 0.00 | 0.00 | 83 | 1012.6 |
| 20260901081130 | 58 | 146 | 2.6 | 7.0 | 0.00 | 0.00 | 0.00 | 83 | 1012.6 |
| 20260901081030 | 57 | 137 | 2.6 | 7.0 | 0.00 | 0.00 | 0.00 | 83 | 1012.6 |
| 20260901080926 | 57 | 172 | 2.6 | 7.0 | 0.00 | 0.00 | 0.00 | 83 | 1012.6 |
| 20260901080826 | 57 | 150 | 2.6 | 7.0 | 0.00 | 0.00 | 0.00 | 84 | 1012.5 |
| 20260901080726 | 57 | 131 | 2.6 | 7.0 | 0.00 | 0.00 | 0.00 | 83 | 1012.6 |
| 20260901080709 | 57 | 121 | 2.6 | 7.0 | 0.00 | 0.00 | 0.00 | 83 | 1012.5 |
| 20260901080626 | 57 | 138 | 2.6 | 7.0 | 0.00 | 0.00 | 0.00 | 83 | 1012.5 |
| 20260901080525 | 57 | 132 | 2.6 | 7.0 | 0.00 | 0.00 | 0.00 | 83 | 1012.6 |
| 20260901080418 | 57 | 182 | 2.6 | 7.0 | 0.00 | 0.00 | 0.00 | 83 | 1012.6 |
| 20260901080318 | 57 | 158 | 2.6 | 7.0 | 0.00 | 0.00 | 0.00 | 83 | 1012.6 |
| 20260901080218 | 57 | 146 | 2.6 | 6.1 | 0.00 | 0.00 | 0.00 | 83 | 1012.6 |
| 20260901080208 | 57 | 205 | 2.6 | 6.1 | 0.00 | 0.00 | 0.00 | 83 | 1012.6 |
| 20260901080118 | 57 | 135 | 2.6 | 6.1 | 0.00 | 0.00 | 0.00 | 83 | 1012.6 |
| 20260901080017 | 57 | 158 | 2.6 | 6.1 | 0.00 | 0.00 | 0.00 | 83 | 1012.5 |
| 20260901075912 | 57 | 143 | 2.6 | 6.1 | 0.00 | 0.00 | 0.00 | 83 | 1012.5 |
| 20260901075812 | 58 | 148 | 1.7 | 6.1 | 0.00 | 0.00 | 0.00 | 83 | 1012.4 |
| 20260901075722 | 58 | 146 | 1.7 | 6.1 | 0.00 | 0.00 | 0.00 | 83 | 1012.5 |
| 20260901075712 | 58 | 148 | 1.7 | 6.1 | 0.00 | 0.00 | 0.00 | 83 | 1012.5 |
| 20260901075612 | 58 | 115 | 1.7 | 6.1 | 0.00 | 0.00 | 0.00 | 83 | 1012.5 |
| 20260901075513 | 58 | 150 | 1.7 | 6.1 | 0.00 | 0.00 | 0.00 | 83 | 1012.5 |
| 20260901075408 | 58 | 134 | 1.7 | 6.1 | 0.00 | 0.00 | 0.00 | 83 | 1012.4 |
| 20260901075309 | 58 | 131 | 1.7 | 6.1 | 0.00 | 0.00 | 0.00 | 83 | 1012.4 |
| 20260901075212 | 58 | 174 | 1.7 | 6.1 | 0.00 | 0.00 | 0.00 | 83 | 1012.4 |
| 20260901075206 | 58 | 173 | 1.7 | 6.1 | 0.00 | 0.00 | 0.00 | 83 | 1012.4 |
| 20260901075107 | 58 | 129 | 1.7 | 6.1 | 0.00 | 0.00 | 0.00 | 83 | 1012.4 |
| 20260901075006 | 58 | 139 | 1.7 | 4.3 | 0.00 | 0.00 | 0.00 | 83 | 1012.4 |
| 20260901074935 | 58 | 136 | 1.7 | 6.1 | 0.00 | 0.00 | 0.00 | 83 | 1012.4 |
| 20260901074901 | 58 | 140 | 1.7 | 6.1 | 0.00 | 0.00 | 0.00 | 83 | 1012.4 |
| 20260901074816 | 58 | 144 | 1.7 | 6.1 | 0.00 | 0.00 | 0.00 | 83 | 1012.4 |
| 20260901074700 | 58 | 146 | 1.7 | 6.1 | 0.00 | 0.00 | 0.00 | 83 | 1012.4 |
| 20260901074601 | 58 | 138 | 1.7 | 6.1 | 0.00 | 0.00 | 0.00 | 83 | 1012.4 |
| 20260901074500 | 58 | 136 | 1.7 | 6.1 | 0.00 | 0.00 | 0.00 | 83 | 1012.4 |
| 20260901074356 | 58 | 164 | 2.6 | 6.1 | 0.00 | 0.00 | 0.00 | 83 | 1012.4 |
| 20260901074256 | 58 | 148 | 2.6 | 6.1 | 0.00 | 0.00 | 0.00 | 83 | 1012.3 |
| 20260901074206 | 58 | 117 | 2.6 | 6.1 | 0.00 | 0.00 | 0.00 | 83 | 1012.3 |
| 20260901074156 | 58 | 139 | 2.6 | 6.1 | 0.00 | 0.00 | 0.00 | 83 | 1012.3 |
| 20260901074056 | 58 | 166 | 2.6 | 6.1 | 0.00 | 0.00 | 0.00 | 83 | 1012.3 |
| 20260901073953 | 58 | 89 | 2.6 | 6.1 | 0.00 | 0.00 | 0.00 | 83 | 1012.3 |
| 20260901073853 | 58 | 150 | 2.6 | 5.2 | 0.00 | 0.00 | 0.00 | 83 | 1012.4 |
| 20260901073752 | 58 | 139 | 2.6 | 5.2 | 0.00 | 0.00 | 0.00 | 83 | 1012.3 |
| 20260901073706 | 58 | 144 | 2.6 | 5.2 | 0.00 | 0.00 | 0.00 | 83 | 1012.3 |
| 20260901073653 | 58 | 148 | 2.6 | 5.2 | 0.00 | 0.00 | 0.00 | 83 | 1012.3 |
| 20260901073558 | 58 | 134 | 2.6 | 5.2 | 0.00 | 0.00 | 0.00 | 83 | 1012.3 |
| 20260901073452 | 58 | 139 | 2.6 | 5.2 | 0.00 | 0.00 | 0.00 | 83 | 1012.4 |
| 20260901073342 | 58 | 130 | 2.6 | 5.2 | 0.00 | 0.00 | 0.00 | 83 | 1012.4 |
| 20260901073242 | 58 | 148 | 2.6 | 5.2 | 0.00 | 0.00 | 0.00 | 83 | 1012.3 |
| 20260901073203 | 58 | 167 | 2.6 | 5.2 | 0.00 | 0.00 | 0.00 | 83 | 1012.4 |
| 20260901073143 | 58 | 104 | 2.6 | 5.2 | 0.00 | 0.00 | 0.00 | 83 | 1012.4 |
| 20260901073044 | 58 | 141 | 1.7 | 5.2 | 0.00 | 0.00 | 0.00 | 83 | 1012.3 |
| 20260901072942 | 58 | 221 | 1.7 | 5.2 | 0.00 | 0.00 | 0.00 | 83 | 1012.4 |
| 20260901072840 | 58 | 165 | 1.7 | 5.2 | 0.00 | 0.00 | 0.00 | 83 | 1012.4 |
| 20260901072740 | 58 | 150 | 1.7 | 5.2 | 0.00 | 0.00 | 0.00 | 83 | 1012.4 |
| 20260901072704 | 58 | 146 | 1.7 | 5.2 | 0.00 | 0.00 | 0.00 | 83 | 1012.4 |
| 20260901072640 | 58 | 141 | 1.7 | 5.2 | 0.00 | 0.00 | 0.00 | 82 | 1012.4 |
| 20260901072539 | 58 | 127 | 1.7 | 5.2 | 0.00 | 0.00 | 0.00 | 82 | 1012.4 |
| 20260901072436 | 58 | 158 | 1.7 | 5.2 | 0.00 | 0.00 | 0.00 | 82 | 1012.4 |
| 20260901072332 | 58 | 144 | 1.7 | 6.1 | 0.00 | 0.00 | 0.00 | 82 | 1012.3 |
| 20260901072230 | 58 | 138 | 1.7 | 6.1 | 0.00 | 0.00 | 0.00 | 82 | 1012.4 |
| 20260901072203 | 58 | 139 | 1.7 | 6.1 | 0.00 | 0.00 | 0.00 | 82 | 1012.4 |
| 20260901072130 | 58 | 145 | 1.7 | 6.1 | 0.00 | 0.00 | 0.00 | 82 | 1012.4 |
| 20260901072030 | 58 | 128 | 1.7 | 6.1 | 0.00 | 0.00 | 0.00 | 82 | 1012.4 |
| 20260901071930 | 58 | 146 | 2.6 | 6.1 | 0.00 | 0.00 | 0.00 | 82 | 1012.4 |
| 20260901071824 | 58 | 136 | 2.6 | 6.1 | 0.00 | 0.00 | 0.00 | 82 | 1012.4 |
| 20260901071725 | 58 | 139 | 2.6 | 6.1 | 0.00 | 0.00 | 0.00 | 82 | 1012.4 |
| 20260901071701 | 58 | 136 | 1.7 | 6.1 | 0.00 | 0.00 | 0.00 | 82 | 1012.3 |
| 20260901071624 | 58 | 150 | 1.7 | 6.1 | 0.00 | 0.00 | 0.00 | 82 | 1012.3 |
| 20260901071525 | 58 | 142 | 1.7 | 6.1 | 0.00 | 0.00 | 0.00 | 82 | 1012.4 |
| 20260901071429 | 58 | 146 | 2.6 | 6.1 | 0.00 | 0.00 | 0.00 | 82 | 1012.3 |
| 20260901071423 | 58 | 134 | 2.6 | 6.1 | 0.00 | 0.00 | 0.00 | 82 | 1012.3 |
| 20260901071325 | 58 | 125 | 2.6 | 6.1 | 0.00 | 0.00 | 0.00 | 82 | 1012.3 |
| 20260901071312 | 58 | 148 | 2.6 | 6.1 | 0.00 | 0.00 | 0.00 | 82 | 1012.3 |
| 20260901071119 | 58 | 136 | 2.6 | 6.1 | 0.00 | 0.00 | 0.00 | 82 | 1012.3 |
| 20260901071021 | 58 | 134 | 2.6 | 6.1 | 0.00 | 0.00 | 0.00 | 82 | 1012.3 |
| 20260901070918 | 58 | 132 | 1.7 | 5.2 | 0.00 | 0.00 | 0.00 | 82 | 1012.3 |
| 20260901070813 | 58 | 214 | 1.7 | 5.2 | 0.00 | 0.00 | 0.00 | 82 | 1012.3 |
| 20260901070713 | 58 | 127 | 2.6 | 5.2 | 0.00 | 0.00 | 0.00 | 82 | 1012.3 |
| 20260901070701 | 58 | 146 | 2.6 | 5.2 | 0.00 | 0.00 | 0.00 | 82 | 1012.3 |
| 20260901070612 | 58 | 146 | 1.7 | 5.2 | 0.00 | 0.00 | 0.00 | 82 | 1012.3 |
| 20260901070515 | 58 | 141 | 1.7 | 5.2 | 0.00 | 0.00 | 0.00 | 81 | 1012.4 |
| 20260901070412 | 59 | 122 | 1.7 | 5.2 | 0.00 | 0.00 | 0.00 | 81 | 1012.4 |
| 20260901070312 | 59 | 100 | 1.7 | 4.3 | 0.00 | 0.00 | 0.00 | 81 | 1012.4 |
| 20260901070215 | 59 | 148 | 1.7 | 4.3 | 0.00 | 0.00 | 0.00 | 81 | 1012.4 |
| 20260901070201 | 59 | 175 | 1.7 | 4.3 | 0.00 | 0.00 | 0.00 | 81 | 1012.4 |
| 20260901070114 | 59 | 139 | 1.7 | 4.3 | 0.00 | 0.00 | 0.00 | 81 | 1012.4 |
| 20260901070017 | 59 | 149 | 1.7 | 4.3 | 0.00 | 0.00 | 0.00 | 81 | 1012.4 |
| 20260901065925 | 59 | 199 | 1.7 | 4.3 | 0.00 | 0.00 | 0.00 | 81 | 1012.4 |
| 20260901065910 | 59 | 149 | 1.7 | 4.3 | 0.00 | 0.00 | 0.00 | 81 | 1012.4 |
| 20260901065811 | 59 | 143 | 1.7 | 4.3 | 0.00 | 0.00 | 0.00 | 81 | 1012.4 |
| 20260901065711 | 59 | 200 | 1.7 | 4.3 | 0.00 | 0.00 | 0.00 | 81 | 1012.4 |
| 20260901065609 | 59 | 139 | 2.6 | 7.0 | 0.00 | 0.00 | 0.00 | 80 | 1012.3 |
| 20260901065506 | 59 | 168 | 2.6 | 7.0 | 0.00 | 0.00 | 0.00 | 80 | 1012.3 |
| 20260901065407 | 59 | 168 | 1.7 | 7.0 | 0.00 | 0.00 | 0.00 | 80 | 1012.4 |
| 20260901065306 | 59 | 155 | 1.7 | 7.0 | 0.00 | 0.00 | 0.00 | 80 | 1012.3 |
| 20260901065212 | 59 | 201 | 1.7 | 7.0 | 0.00 | 0.00 | 0.00 | 80 | 1012.3 |
| 20260901065059 | 59 | 143 | 2.6 | 7.0 | 0.00 | 0.00 | 0.00 | 80 | 1012.3 |
| 20260901064959 | 59 | 167 | 2.6 | 7.0 | 0.00 | 0.00 | 0.00 | 80 | 1012.3 |
| 20260901064859 | 59 | 139 | 2.6 | 7.0 | 0.00 | 0.00 | 0.00 | 80 | 1012.3 |
| 20260901064758 | 59 | 99 | 2.6 | 7.0 | 0.00 | 0.00 | 0.00 | 80 | 1012.3 |
| 20260901064659 | 59 | 152 | 2.6 | 7.0 | 0.00 | 0.00 | 0.00 | 80 | 1012.3 |
| 20260901064554 | 59 | 130 | 2.6 | 5.2 | 0.00 | 0.00 | 0.00 | 80 | 1012.3 |
| 20260901064455 | 59 | 146 | 2.6 | 6.1 | 0.00 | 0.00 | 0.00 | 80 | 1012.3 |
| 20260901064353 | 59 | 129 | 2.6 | 6.1 | 0.00 | 0.00 | 0.00 | 80 | 1012.4 |
| 20260901064253 | 59 | 179 | 2.6 | 6.1 | 0.00 | 0.00 | 0.00 | 80 | 1012.4 |
| 20260901064153 | 59 | 129 | 2.6 | 6.1 | 0.00 | 0.00 | 0.00 | 80 | 1012.3 |
| 20260901064046 | 60 | 120 | 2.6 | 6.1 | 0.00 | 0.00 | 0.00 | 80 | 1012.3 |
| 20260901063946 | 60 | 158 | 2.6 | 6.1 | 0.00 | 0.00 | 0.00 | 80 | 1012.3 |
| 20260901063847 | 60 | 113 | 2.6 | 6.1 | 0.00 | 0.00 | 0.00 | 80 | 1012.3 |
| 20260901063746 | 60 | 143 | 2.6 | 6.1 | 0.00 | 0.00 | 0.00 | 80 | 1012.3 |
| 20260901063648 | 60 | 204 | 2.6 | 6.1 | 0.00 | 0.00 | 0.00 | 80 | 1012.3 |
| 20260901063541 | 60 | 172 | 2.6 | 6.1 | 0.00 | 0.00 | 0.00 | 80 | 1012.3 |
| 20260901063441 | 60 | 141 | 2.6 | 6.1 | 0.00 | 0.00 | 0.00 | 80 | 1012.3 |
| 20260901063341 | 60 | 132 | 2.6 | 7.0 | 0.00 | 0.00 | 0.00 | 80 | 1012.3 |
| 20260901063240 | 60 | 159 | 2.6 | 7.0 | 0.00 | 0.00 | 0.00 | 80 | 1012.3 |
| 20260901063141 | 60 | 129 | 2.6 | 7.0 | 0.00 | 0.00 | 0.00 | 79 | 1012.4 |
| 20260901063036 | 60 | 110 | 2.6 | 7.0 | 0.00 | 0.00 | 0.00 | 79 | 1012.3 |
| 20260901062935 | 60 | 193 | 2.6 | 7.0 | 0.00 | 0.00 | 0.00 | 79 | 1012.3 |
| 20260901062835 | 60 | 155 | 2.6 | 7.0 | 0.00 | 0.00 | 0.00 | 79 | 1012.3 |
| 20260901062734 | 60 | 136 | 2.6 | 7.0 | 0.00 | 0.00 | 0.00 | 79 | 1012.4 |
| 20260901062636 | 60 | 144 | 2.6 | 7.0 | 0.00 | 0.00 | 0.00 | 79 | 1012.3 |
| 20260901062532 | 60 | 191 | 2.6 | 7.0 | 0.00 | 0.00 | 0.00 | 79 | 1012.3 |
| 20260901062431 | 60 | 113 | 2.6 | 7.0 | 0.00 | 0.00 | 0.00 | 79 | 1012.3 |
| 20260901062331 | 60 | 145 | 1.7 | 5.2 | 0.00 | 0.00 | 0.00 | 79 | 1012.3 |
| 20260901062231 | 60 | 195 | 1.7 | 5.2 | 0.00 | 0.00 | 0.00 | 79 | 1012.3 |
| 20260901062138 | 60 | 166 | 1.7 | 5.2 | 0.00 | 0.00 | 0.00 | 79 | 1012.3 |
| 20260901062032 | 60 | 204 | 1.7 | 5.2 | 0.00 | 0.00 | 0.00 | 79 | 1012.3 |
| 20260901061925 | 60 | 121 | 1.7 | 5.2 | 0.00 | 0.00 | 0.00 | 79 | 1012.3 |
| 20260901061829 | 60 | 142 | 1.7 | 5.2 | 0.00 | 0.00 | 0.00 | 79 | 1012.3 |
| 20260901061723 | 60 | 221 | 1.7 | 5.2 | 0.00 | 0.00 | 0.00 | 80 | 1012.4 |
| 20260901061624 | 60 | 207 | 1.7 | 5.2 | 0.00 | 0.00 | 0.00 | 80 | 1012.4 |
| 20260901061518 | 60 | 179 | 1.7 | 5.2 | 0.00 | 0.00 | 0.00 | 80 | 1012.3 |
| 20260901061420 | 60 | 145 | 1.7 | 4.3 | 0.00 | 0.00 | 0.00 | 80 | 1012.4 |
| 20260901061317 | 60 | 214 | 2.6 | 4.3 | 0.00 | 0.00 | 0.00 | 79 | 1012.4 |
| 20260901061217 | 60 | 128 | 2.6 | 4.3 | 0.00 | 0.00 | 0.00 | 79 | 1012.4 |
| 20260901061118 | 60 | 110 | 2.6 | 4.3 | 0.00 | 0.00 | 0.00 | 79 | 1012.4 |
| 20260901061011 | 60 | 135 | 1.7 | 4.3 | 0.00 | 0.00 | 0.00 | 79 | 1012.3 |
| 20260901060910 | 60 | 300 | 2.6 | 4.3 | 0.00 | 0.00 | 0.00 | 80 | 1012.4 |
| 20260901060810 | 60 | 188 | 1.7 | 4.3 | 0.00 | 0.00 | 0.00 | 80 | 1012.4 |
| 20260901060710 | 60 | 150 | 1.7 | 4.3 | 0.00 | 0.00 | 0.00 | 80 | 1012.4 |
| 20260901060611 | 60 | 210 | 1.7 | 4.3 | 0.00 | 0.00 | 0.00 | 80 | 1012.4 |
| 20260901060508 | 60 | 222 | 1.7 | 4.3 | 0.00 | 0.00 | 0.00 | 80 | 1012.4 |
| 20260901060406 | 60 | 201 | 1.7 | 4.3 | 0.00 | 0.00 | 0.00 | 80 | 1012.3 |
| 20260901060306 | 60 | 207 | 1.7 | 3.5 | 0.00 | 0.00 | 0.00 | 80 | 1012.3 |
| 20260901060207 | 60 | 198 | 1.7 | 3.5 | 0.00 | 0.00 | 0.00 | 80 | 1012.3 |
| 20260901060118 | 60 | 142 | 1.7 | 8.7 | 0.00 | 0.00 | 0.00 | 80 | 1012.3 |
| 20260901060000 | 60 | 111 | 1.7 | 8.7 | 0.00 | 0.00 | 0.00 | 80 | 1012.3 |
| 20260901055858 | 60 | 229 | 1.7 | 8.7 | 0.00 | 0.00 | 0.00 | 80 | 1012.3 |
| 20260901055759 | 60 | 123 | 1.7 | 8.7 | 0.00 | 0.00 | 0.00 | 80 | 1012.3 |
| 20260901055659 | 60 | 205 | 1.7 | 8.7 | 0.00 | 0.00 | 0.00 | 80 | 1012.3 |
| 20260901055607 | 60 | 256 | 1.7 | 8.7 | 0.00 | 0.00 | 0.00 | 80 | 1012.3 |
| 20260901055504 | 60 | 158 | 1.7 | 8.7 | 0.00 | 0.00 | 0.00 | 80 | 1012.3 |
| 20260901055401 | 60 | 144 | 1.7 | 8.7 | 0.00 | 0.00 | 0.00 | 80 | 1012.3 |
| 20260901055307 | 60 | 201 | 1.7 | 8.7 | 0.00 | 0.00 | 0.00 | 80 | 1012.3 |
| 20260901055159 | 60 | 204 | 1.7 | 8.7 | 0.00 | 0.00 | 0.00 | 80 | 1012.3 |
| 20260901055058 | 60 | 127 | 1.7 | 4.3 | 0.00 | 0.00 | 0.00 | 80 | 1012.3 |
| 20260901054955 | 60 | 228 | 1.7 | 4.3 | 0.00 | 0.00 | 0.00 | 80 | 1012.3 |
| 20260901054900 | 60 | 238 | 1.7 | 4.3 | 0.00 | 0.00 | 0.00 | 80 | 1012.2 |
| 20260901054757 | 60 | 198 | 1.7 | 4.3 | 0.00 | 0.00 | 0.00 | 80 | 1012.2 |
| 20260901054654 | 60 | 154 | 0.9 | 4.3 | 0.00 | 0.00 | 0.00 | 80 | 1012.3 |
| 20260901054551 | 60 | 225 | 0.9 | 4.3 | 0.00 | 0.00 | 0.00 | 80 | 1012.3 |
| 20260901054441 | 60 | 131 | 0.9 | 3.5 | 0.00 | 0.00 | 0.00 | 80 | 1012.3 |
| 20260901054340 | 60 | 186 | 0.9 | 3.5 | 0.00 | 0.00 | 0.00 | 80 | 1012.3 |
| 20260901054241 | 60 | 125 | 0.9 | 4.3 | 0.00 | 0.00 | 0.00 | 80 | 1012.2 |
| 20260901054141 | 60 | 150 | 0.9 | 4.3 | 0.00 | 0.00 | 0.00 | 80 | 1012.2 |
| 20260901054042 | 60 | 139 | 1.7 | 4.3 | 0.00 | 0.00 | 0.00 | 80 | 1012.1 |
| 20260901053935 | 60 | 164 | 1.7 | 4.3 | 0.00 | 0.00 | 0.00 | 80 | 1012.1 |
| 20260901053835 | 60 | 129 | 1.7 | 4.3 | 0.00 | 0.00 | 0.00 | 80 | 1012.1 |
| 20260901053735 | 60 | 129 | 1.7 | 4.3 | 0.00 | 0.00 | 0.00 | 80 | 1012.1 |
| 20260901053634 | 60 | 232 | 1.7 | 5.2 | 0.00 | 0.00 | 0.00 | 80 | 1012.1 |
| 20260901053537 | 60 | 214 | 1.7 | 5.2 | 0.00 | 0.00 | 0.00 | 79 | 1012.1 |
| 20260901053428 | 60 | 135 | 2.6 | 5.2 | 0.00 | 0.00 | 0.00 | 79 | 1012.1 |
| 20260901053328 | 60 | 136 | 1.7 | 5.2 | 0.00 | 0.00 | 0.00 | 79 | 1012.1 |
| 20260901053251 | 60 | 158 | 1.7 | 5.2 | 0.00 | 0.00 | 0.00 | 79 | 1012.1 |
| 20260901053229 | 60 | 162 | 1.7 | 5.2 | 0.00 | 0.00 | 0.00 | 79 | 1012.1 |
| 20260901053144 | 60 | 200 | 1.7 | 5.2 | 0.00 | 0.00 | 0.00 | 79 | 1012.1 |
| 20260901053134 | 60 | 158 | 1.7 | 5.2 | 0.00 | 0.00 | 0.00 | 79 | 1012.1 |
| 20260901052927 | 60 | 222 | 1.7 | 5.2 | 0.00 | 0.00 | 0.00 | 79 | 1012.1 |
| 20260901052826 | 60 | 208 | 2.6 | 5.2 | 0.00 | 0.00 | 0.00 | 79 | 1012.1 |
| 20260901052725 | 60 | 224 | 1.7 | 5.2 | 0.00 | 0.00 | 0.00 | 79 | 1012.1 |
| 20260901052630 | 60 | 228 | 1.7 | 5.2 | 0.00 | 0.00 | 0.00 | 79 | 1012.2 |
| 20260901052524 | 60 | 146 | 2.6 | 5.2 | 0.00 | 0.00 | 0.00 | 79 | 1012.2 |
| 20260901052416 | 60 | 116 | 2.6 | 5.2 | 0.00 | 0.00 | 0.00 | 79 | 1012.2 |
| 20260901052317 | 60 | 225 | 2.6 | 5.2 | 0.00 | 0.00 | 0.00 | 79 | 1012.3 |
| 20260901052216 | 60 | 188 | 2.6 | 5.2 | 0.00 | 0.00 | 0.00 | 79 | 1012.3 |
| 20260901052117 | 60 | 141 | 2.6 | 5.2 | 0.00 | 0.00 | 0.00 | 79 | 1012.3 |
| 20260901052018 | 60 | 236 | 2.6 | 5.2 | 0.00 | 0.00 | 0.00 | 79 | 1012.2 |
| 20260901051911 | 60 | 219 | 1.7 | 5.2 | 0.00 | 0.00 | 0.00 | 79 | 1012.1 |
| 20260901051811 | 60 | 207 | 1.7 | 5.2 | 0.00 | 0.00 | 0.00 | 79 | 1012.1 |
| 20260901051738 | 60 | 219 | 1.7 | 4.3 | 0.00 | 0.00 | 0.00 | 79 | 1012.2 |
| 20260901051717 | 60 | 211 | 1.7 | 5.2 | 0.00 | 0.00 | 0.00 | 79 | 1012.1 |
| 20260901051629 | 60 | 226 | 1.7 | 4.3 | 0.00 | 0.00 | 0.00 | 79 | 1012.1 |
| 20260901051619 | 60 | 219 | 1.7 | 4.3 | 0.00 | 0.00 | 0.00 | 79 | 1012.2 |
| 20260901051411 | 60 | 233 | 1.7 | 4.3 | 0.00 | 0.00 | 0.00 | 79 | 1012.1 |
| 20260901051308 | 61 | 212 | 1.7 | 4.3 | 0.00 | 0.00 | 0.00 | 79 | 1012.1 |
| 20260901051209 | 61 | 229 | 2.6 | 6.1 | 0.00 | 0.00 | 0.00 | 79 | 1012.1 |
| 20260901051107 | 61 | 168 | 2.6 | 6.1 | 0.00 | 0.00 | 0.00 | 78 | 1012.1 |
| 20260901051005 | 61 | 121 | 2.6 | 6.1 | 0.00 | 0.00 | 0.00 | 78 | 1012.1 |
| 20260901050859 | 61 | 212 | 2.6 | 8.7 | 0.00 | 0.00 | 0.00 | 78 | 1012.2 |
| 20260901050759 | 61 | 201 | 3.5 | 8.7 | 0.00 | 0.00 | 0.00 | 78 | 1012.1 |
| 20260901050725 | 61 | 218 | 3.5 | 8.7 | 0.00 | 0.00 | 0.00 | 78 | 1012.2 |
| 20260901050658 | 61 | 143 | 3.5 | 8.7 | 0.00 | 0.00 | 0.00 | 78 | 1012.1 |
| 20260901050614 | 61 | 150 | 3.5 | 8.7 | 0.00 | 0.00 | 0.00 | 78 | 1012.2 |
| 20260901050604 | 61 | 218 | 3.5 | 8.7 | 0.00 | 0.00 | 0.00 | 78 | 1012.2 |
| 20260901050354 | 61 | 136 | 3.5 | 8.7 | 0.00 | 0.00 | 0.00 | 78 | 1012.1 |
| 20260901050256 | 61 | 169 | 2.6 | 8.7 | 0.00 | 0.00 | 0.00 | 78 | 1012.1 |
| 20260901050155 | 61 | 207 | 3.5 | 8.7 | 0.00 | 0.00 | 0.00 | 78 | 1012.0 |
| 20260901050055 | 61 | 193 | 3.5 | 8.7 | 0.00 | 0.00 | 0.00 | 78 | 1012.0 |
| 20260901045954 | 61 | 245 | 3.5 | 8.7 | 0.00 | 0.00 | 0.00 | 78 | 1012.0 |
| 20260901045846 | 61 | 219 | 3.5 | 9.6 | 0.00 | 0.00 | 0.00 | 78 | 1012.0 |
| 20260901045747 | 61 | 205 | 3.5 | 10.4 | 0.00 | 0.00 | 0.00 | 78 | 1012.0 |
| 20260901045708 | 61 | 158 | 3.5 | 10.4 | 0.00 | 0.00 | 0.00 | 78 | 1012.0 |
| 20260901045646 | 61 | 231 | 3.5 | 10.4 | 0.00 | 0.00 | 0.00 | 78 | 1012.0 |
| 20260901045602 | 61 | 169 | 3.5 | 10.4 | 0.00 | 0.00 | 0.00 | 77 | 1012.0 |
| 20260901045552 | 61 | 158 | 3.5 | 10.4 | 0.00 | 0.00 | 0.00 | 78 | 1012.0 |
| 20260901045345 | 61 | 219 | 3.5 | 10.4 | 0.00 | 0.00 | 0.00 | 77 | 1012.1 |
| 20260901045242 | 61 | 246 | 4.3 | 10.4 | 0.00 | 0.00 | 0.00 | 77 | 1012.0 |
| 20260901045145 | 61 | 232 | 3.5 | 10.4 | 0.00 | 0.00 | 0.00 | 77 | 1012.0 |
| 20260901045045 | 61 | 154 | 3.5 | 10.4 | 0.00 | 0.00 | 0.00 | 77 | 1012.0 |
| 20260901044835 | 61 | 255 | 3.5 | 10.4 | 0.00 | 0.00 | 0.00 | 77 | 1012.1 |
| 20260901044735 | 61 | 218 | 3.5 | 7.8 | 0.00 | 0.00 | 0.00 | 77 | 1012.0 |
| 20260901044652 | 62 | 143 | 4.3 | 9.6 | 0.00 | 0.00 | 0.00 | 77 | 1012.0 |
| 20260901044635 | 61 | 179 | 3.5 | 9.6 | 0.00 | 0.00 | 0.00 | 77 | 1012.0 |
| 20260901044550 | 61 | 236 | 3.5 | 9.6 | 0.00 | 0.00 | 0.00 | 77 | 1012.0 |
| 20260901044540 | 62 | 143 | 4.3 | 9.6 | 0.00 | 0.00 | 0.00 | 77 | 1012.0 |
| 20260901044329 | 62 | 207 | 4.3 | 12.2 | 0.00 | 0.00 | 0.00 | 77 | 1011.9 |
| 20260901044229 | 62 | 212 | 4.3 | 12.2 | 0.00 | 0.00 | 0.00 | 77 | 1011.9 |
| 20260901044150 | 62 | 248 | 4.3 | 12.2 | 0.00 | 0.00 | 0.00 | 77 | 1012.0 |
| 20260901044128 | 62 | 203 | 4.3 | 12.2 | 0.00 | 0.00 | 0.00 | 77 | 1012.0 |
| 20260901044045 | 62 | 230 | 4.3 | 12.2 | 0.00 | 0.00 | 0.00 | 77 | 1011.9 |
| 20260901044034 | 62 | 248 | 4.3 | 12.2 | 0.00 | 0.00 | 0.00 | 77 | 1012.0 |
| 20260901043823 | 62 | 204 | 4.3 | 12.2 | 0.00 | 0.00 | 0.00 | 77 | 1012.0 |
| 20260901043722 | 62 | 243 | 4.3 | 12.2 | 0.00 | 0.00 | 0.00 | 77 | 1011.9 |
| 20260901043641 | 62 | 220 | 3.5 | 12.2 | 0.00 | 0.00 | 0.00 | 77 | 1012.0 |
| 20260901043623 | 62 | 210 | 4.3 | 12.2 | 0.00 | 0.00 | 0.00 | 77 | 1011.9 |
| 20260901043549 | 62 | 190 | 4.3 | 12.2 | 0.00 | 0.00 | 0.00 | 77 | 1012.0 |
| 20260901043528 | 62 | 220 | 3.5 | 12.2 | 0.00 | 0.00 | 0.00 | 77 | 1012.0 |
| 20260901043317 | 62 | 248 | 3.5 | 10.4 | 0.00 | 0.00 | 0.00 | 77 | 1012.0 |
| 20260901043216 | 62 | 163 | 3.5 | 10.4 | 0.00 | 0.00 | 0.00 | 76 | 1011.9 |
| 20260901043117 | 62 | 276 | 3.5 | 10.4 | 0.00 | 0.00 | 0.00 | 76 | 1012.0 |
| 20260901043018 | 62 | 153 | 3.5 | 10.4 | 0.00 | 0.00 | 0.00 | 76 | 1012.0 |
| 20260901042918 | 62 | 146 | 3.5 | 10.4 | 0.00 | 0.00 | 0.00 | 76 | 1011.9 |
| 20260901042812 | 62 | 204 | 3.5 | 10.4 | 0.00 | 0.00 | 0.00 | 76 | 1011.9 |
| 20260901042711 | 62 | 205 | 3.5 | 10.4 | 0.00 | 0.00 | 0.00 | 76 | 1012.0 |
| 20260901042610 | 62 | 212 | 3.5 | 10.4 | 0.00 | 0.00 | 0.00 | 76 | 1011.9 |
| 20260901042515 | 62 | 239 | 3.5 | 10.4 | 0.00 | 0.00 | 0.00 | 76 | 1011.9 |
| 20260901042411 | 62 | 212 | 3.5 | 10.4 | 0.00 | 0.00 | 0.00 | 76 | 1011.9 |
| 20260901042307 | 62 | 158 | 4.3 | 7.8 | 0.00 | 0.00 | 0.00 | 76 | 1011.9 |
| 20260901042211 | 62 | 141 | 4.3 | 10.4 | 0.00 | 0.00 | 0.00 | 76 | 1011.9 |
| 20260901042109 | 62 | 235 | 4.3 | 12.2 | 0.00 | 0.00 | 0.00 | 76 | 1011.8 |
| 20260901042005 | 62 | 154 | 5.2 | 12.2 | 0.00 | 0.00 | 0.00 | 76 | 1011.8 |
| 20260901041905 | 62 | 214 | 5.2 | 12.2 | 0.00 | 0.00 | 0.00 | 76 | 1011.8 |
| 20260901041800 | 62 | 187 | 5.2 | 12.2 | 0.00 | 0.00 | 0.00 | 76 | 1011.8 |
| 20260901041701 | 62 | 230 | 5.2 | 12.2 | 0.00 | 0.00 | 0.00 | 76 | 1011.8 |
| 20260901041601 | 62 | 154 | 5.2 | 12.2 | 0.00 | 0.00 | 0.00 | 76 | 1011.7 |
| 20260901041501 | 62 | 211 | 5.2 | 12.2 | 0.00 | 0.00 | 0.00 | 76 | 1011.7 |
| 20260901041359 | 62 | 239 | 5.2 | 12.2 | 0.00 | 0.00 | 0.00 | 76 | 1011.7 |
| 20260901041255 | 62 | 226 | 5.2 | 12.2 | 0.00 | 0.00 | 0.00 | 76 | 1011.7 |
| 20260901041152 | 62 | 232 | 4.3 | 12.2 | 0.00 | 0.00 | 0.00 | 76 | 1011.7 |
| 20260901041053 | 62 | 243 | 5.2 | 10.4 | 0.00 | 0.00 | 0.00 | 76 | 1011.7 |
| 20260901040952 | 62 | 150 | 5.2 | 10.4 | 0.00 | 0.00 | 0.00 | 76 | 1011.6 |
| 20260901040853 | 62 | 185 | 5.2 | 11.3 | 0.00 | 0.00 | 0.00 | 76 | 1011.7 |
| 20260901040747 | 62 | 82 | 5.2 | 11.3 | 0.00 | 0.00 | 0.00 | 76 | 1011.7 |
| 20260901040647 | 62 | 194 | 5.2 | 11.3 | 0.00 | 0.00 | 0.00 | 76 | 1011.6 |
| 20260901040547 | 62 | 242 | 5.2 | 11.3 | 0.00 | 0.00 | 0.00 | 76 | 1011.6 |
| 20260901040447 | 62 | 240 | 5.2 | 11.3 | 0.00 | 0.00 | 0.00 | 76 | 1011.6 |
| 20260901040347 | 62 | 212 | 5.2 | 11.3 | 0.00 | 0.00 | 0.00 | 76 | 1011.6 |
| 20260901040242 | 62 | 287 | 5.2 | 11.3 | 0.00 | 0.00 | 0.00 | 76 | 1011.5 |
| 20260901040143 | 62 | 238 | 5.2 | 11.3 | 0.00 | 0.00 | 0.00 | 76 | 1011.6 |
| 20260901040042 | 62 | 253 | 5.2 | 11.3 | 0.00 | 0.00 | 0.00 | 76 | 1011.5 |
| 20260901035943 | 62 | 246 | 5.2 | 13.0 | 0.00 | 0.00 | 0.00 | 76 | 1011.5 |
| 20260901035842 | 62 | 226 | 5.2 | 13.0 | 0.00 | 0.00 | 0.00 | 76 | 1011.5 |
| 20260901035734 | 62 | 197 | 5.2 | 13.0 | 0.00 | 0.00 | 0.00 | 76 | 1011.5 |
| 20260901035635 | 62 | 264 | 5.2 | 13.0 | 0.00 | 0.00 | 0.00 | 76 | 1011.5 |
| 20260901035536 | 62 | 262 | 5.2 | 13.0 | 0.00 | 0.00 | 0.00 | 75 | 1011.5 |
| 20260901035435 | 63 | 264 | 6.1 | 13.0 | 0.00 | 0.00 | 0.00 | 75 | 1011.4 |
| 20260901035336 | 63 | 212 | 6.1 | 13.0 | 0.00 | 0.00 | 0.00 | 75 | 1011.5 |
| 20260901035229 | 63 | 246 | 6.1 | 13.0 | 0.00 | 0.00 | 0.00 | 75 | 1011.5 |
| 20260901035128 | 63 | 221 | 6.1 | 13.9 | 0.00 | 0.00 | 0.00 | 75 | 1011.4 |
| 20260901035054 | 63 | 203 | 6.1 | 13.9 | 0.00 | 0.00 | 0.00 | 75 | 1011.4 |
| 20260901035029 | 63 | 219 | 6.1 | 13.9 | 0.00 | 0.00 | 0.00 | 75 | 1011.5 |
| 20260901034944 | 63 | 266 | 6.1 | 13.9 | 0.00 | 0.00 | 0.00 | 75 | 1011.4 |
| 20260901034934 | 63 | 203 | 6.1 | 13.9 | 0.00 | 0.00 | 0.00 | 75 | 1011.4 |
| 20260901034725 | 63 | 212 | 6.1 | 13.9 | 0.00 | 0.00 | 0.00 | 75 | 1011.4 |
| 20260901034622 | 63 | 270 | 6.1 | 13.9 | 0.00 | 0.00 | 0.00 | 75 | 1011.4 |
| 20260901034524 | 63 | 242 | 6.1 | 13.9 | 0.00 | 0.00 | 0.00 | 75 | 1011.3 |
| 20260901034423 | 63 | 225 | 6.1 | 13.9 | 0.00 | 0.00 | 0.00 | 75 | 1011.3 |
| 20260901034333 | 63 | 238 | 6.1 | 13.9 | 0.00 | 0.00 | 0.00 | 75 | 1011.3 |
| 20260901034217 | 63 | 271 | 6.1 | 13.9 | 0.00 | 0.00 | 0.00 | 75 | 1011.3 |
| 20260901034117 | 63 | 229 | 6.1 | 12.2 | 0.00 | 0.00 | 0.00 | 75 | 1011.2 |
| 20260901034017 | 63 | 242 | 6.1 | 12.2 | 0.00 | 0.00 | 0.00 | 75 | 1011.2 |
| 20260901033916 | 63 | 120 | 6.1 | 13.0 | 0.00 | 0.00 | 0.00 | 75 | 1011.2 |
| 20260901033817 | 63 | 263 | 5.2 | 13.0 | 0.00 | 0.00 | 0.00 | 75 | 1011.2 |
| 20260901033711 | 63 | 235 | 6.1 | 13.0 | 0.00 | 0.00 | 0.00 | 75 | 1011.2 |
| 20260901033610 | 63 | 225 | 6.1 | 13.0 | 0.00 | 0.00 | 0.00 | 76 | 1011.2 |
| 20260901033512 | 63 | 203 | 6.1 | 13.0 | 0.00 | 0.00 | 0.00 | 76 | 1011.2 |
| 20260901033411 | 63 | 239 | 6.1 | 13.0 | 0.00 | 0.00 | 0.00 | 76 | 1011.1 |
| 20260901033312 | 63 | 240 | 6.1 | 13.0 | 0.00 | 0.00 | 0.00 | 76 | 1011.1 |
| 20260901033204 | 63 | 218 | 6.1 | 13.0 | 0.00 | 0.00 | 0.00 | 76 | 1011.1 |
| 20260901033105 | 63 | 257 | 6.1 | 13.0 | 0.00 | 0.00 | 0.00 | 76 | 1011.1 |
| 20260901033005 | 63 | 197 | 6.1 | 13.0 | 0.00 | 0.00 | 0.00 | 76 | 1011.1 |
| 20260901032905 | 63 | 260 | 6.1 | 12.2 | 0.00 | 0.00 | 0.00 | 76 | 1011.1 |
| 20260901032805 | 63 | 242 | 6.1 | 12.2 | 0.00 | 0.00 | 0.00 | 76 | 1011.0 |
| 20260901032701 | 63 | 250 | 5.2 | 12.2 | 0.00 | 0.00 | 0.00 | 75 | 1011.0 |
| 20260901032601 | 63 | 239 | 5.2 | 12.2 | 0.00 | 0.00 | 0.00 | 75 | 1011.0 |
| 20260901032517 | 63 | 226 | 5.2 | 13.0 | 0.00 | 0.00 | 0.00 | 75 | 1010.9 |
| 20260901032507 | 63 | 229 | 5.2 | 12.2 | 0.00 | 0.00 | 0.00 | 75 | 1011.0 |
| 20260901032414 | 63 | 262 | 5.2 | 12.2 | 0.00 | 0.00 | 0.00 | 75 | 1011.0 |
| 20260901032404 | 63 | 226 | 5.2 | 13.0 | 0.00 | 0.00 | 0.00 | 75 | 1010.9 |
| 20260901032157 | 63 | 250 | 5.2 | 13.0 | 0.00 | 0.00 | 0.00 | 75 | 1010.9 |
| 20260901032059 | 63 | 257 | 5.2 | 13.0 | 0.00 | 0.00 | 0.00 | 75 | 1010.9 |
| 20260901031958 | 63 | 263 | 5.2 | 13.0 | 0.00 | 0.00 | 0.00 | 75 | 1010.9 |
| 20260901031852 | 63 | 242 | 5.2 | 13.0 | 0.00 | 0.00 | 0.00 | 75 | 1010.9 |
| 20260901031754 | 63 | 259 | 5.2 | 13.0 | 0.00 | 0.00 | 0.00 | 75 | 1010.8 |
| 20260901031734 | 63 | 257 | 5.2 | 17.4 | 0.00 | 0.00 | 0.00 | 75 | 1010.8 |
| 20260901031648 | 63 | 255 | 5.2 | 13.0 | 0.00 | 0.00 | 0.00 | 75 | 1010.8 |
| 20260901031620 | 63 | 233 | 5.2 | 13.0 | 0.00 | 0.00 | 0.00 | 75 | 1010.8 |
| 20260901031449 | 63 | 253 | 5.2 | 13.0 | 0.00 | 0.00 | 0.00 | 75 | 1010.8 |
| 20260901031406 | 63 | 245 | 5.2 | 13.0 | 0.00 | 0.00 | 0.00 | 75 | 1010.8 |
| 20260901031358 | 63 | 221 | 5.2 | 17.4 | 0.00 | 0.00 | 0.00 | 75 | 1010.8 |
| 20260901031148 | 63 | 259 | 5.2 | 17.4 | 0.00 | 0.00 | 0.00 | 75 | 1010.8 |
| 20260901031049 | 63 | 253 | 5.2 | 17.4 | 0.00 | 0.00 | 0.00 | 75 | 1010.8 |
| 20260901030949 | 63 | 232 | 5.2 | 17.4 | 0.00 | 0.00 | 0.00 | 75 | 1010.8 |
| 20260901030849 | 63 | 204 | 5.2 | 17.4 | 0.00 | 0.00 | 0.00 | 75 | 1010.8 |
| 20260901030757 | 63 | 259 | 6.1 | 17.4 | 0.00 | 0.00 | 0.00 | 75 | 1010.8 |
| 20260901030746 | 63 | 246 | 6.1 | 17.4 | 0.00 | 0.00 | 0.00 | 75 | 1010.8 |
| 20260901030649 | 63 | 290 | 5.2 | 17.4 | 0.00 | 0.00 | 0.00 | 75 | 1010.8 |
| 20260901030549 | 63 | 217 | 5.2 | 17.4 | 0.00 | 0.00 | 0.00 | 75 | 1010.8 |
| 20260901030449 | 63 | 245 | 5.2 | 17.4 | 0.00 | 0.00 | 0.00 | 75 | 1010.7 |
| 20260901030349 | 64 | 233 | 5.2 | 17.4 | 0.00 | 0.00 | 0.00 | 75 | 1010.8 |
| 20260901030248 | 64 | 219 | 6.1 | 0.0 | 0.00 | 0.00 | 0.00 | 75 | 1010.8 |
| 20260901030137 | 64 | 236 | 5.2 | 14.8 | 0.00 | 0.00 | 0.00 | 75 | 1010.7 |
| 20260901030037 | 64 | 219 | 6.1 | 14.8 | 0.00 | 0.00 | 0.00 | 75 | 1010.7 |
| 20260901025937 | 64 | 245 | 6.1 | 14.8 | 0.00 | 0.00 | 0.00 | 75 | 1010.7 |
| 20260901025923 | 64 | 134 | 6.1 | 14.8 | 0.00 | 0.00 | 0.00 | 74 | 1010.7 |
| 20260901025836 | 64 | 241 | 5.2 | 13.9 | 0.00 | 0.00 | 0.00 | 74 | 1010.7 |
| 20260901025735 | 64 | 256 | 5.2 | 13.9 | 0.00 | 0.00 | 0.00 | 74 | 1010.7 |
| 20260901025630 | 64 | 210 | 5.2 | 13.9 | 0.00 | 0.00 | 0.00 | 74 | 1010.7 |
| 20260901025531 | 64 | 253 | 6.1 | 13.9 | 0.00 | 0.00 | 0.00 | 74 | 1010.7 |
| 20260901025431 | 64 | 243 | 6.1 | 13.9 | 0.00 | 0.00 | 0.00 | 74 | 1010.7 |
| 20260901025417 | 64 | 262 | 6.1 | 13.9 | 0.00 | 0.00 | 0.00 | 74 | 1010.7 |
| 20260901025330 | 64 | 235 | 6.1 | 13.9 | 0.00 | 0.00 | 0.00 | 74 | 1010.7 |
| 20260901025230 | 64 | 231 | 6.1 | 13.0 | 0.00 | 0.00 | 0.00 | 74 | 1010.8 |
| 20260901025126 | 64 | 212 | 5.2 | 12.2 | 0.00 | 0.00 | 0.00 | 74 | 1010.7 |
| 20260901025025 | 64 | 278 | 5.2 | 12.2 | 0.00 | 0.00 | 0.00 | 74 | 1010.7 |
| 20260901024924 | 64 | 240 | 5.2 | 12.2 | 0.00 | 0.00 | 0.00 | 74 | 1010.7 |
| 20260901024912 | 64 | 195 | 5.2 | 12.2 | 0.00 | 0.00 | 0.00 | 74 | 1010.7 |
| 20260901024825 | 64 | 255 | 5.2 | 12.2 | 0.00 | 0.00 | 0.00 | 74 | 1010.7 |
| 20260901024726 | 64 | 256 | 6.1 | 13.0 | 0.00 | 0.00 | 0.00 | 74 | 1010.7 |
| 20260901024619 | 64 | 193 | 6.1 | 13.0 | 0.00 | 0.00 | 0.00 | 74 | 1010.7 |
| 20260901024519 | 64 | 217 | 6.1 | 13.0 | 0.00 | 0.00 | 0.00 | 74 | 1010.7 |
| 20260901024418 | 64 | 236 | 6.1 | 13.0 | 0.00 | 0.00 | 0.00 | 73 | 1010.6 |
| 20260901024406 | 64 | 228 | 5.2 | 13.0 | 0.00 | 0.00 | 0.00 | 73 | 1010.8 |
| 20260901024319 | 64 | 262 | 5.2 | 13.0 | 0.00 | 0.00 | 0.00 | 73 | 1010.8 |
| 20260901024218 | 64 | 269 | 5.2 | 13.0 | 0.00 | 0.00 | 0.00 | 73 | 1010.7 |
| 20260901024113 | 65 | 214 | 5.2 | 13.0 | 0.00 | 0.00 | 0.00 | 73 | 1010.6 |
| 20260901024012 | 65 | 250 | 6.1 | 13.0 | 0.00 | 0.00 | 0.00 | 73 | 1010.7 |
| 20260901023912 | 65 | 222 | 6.1 | 13.0 | 0.00 | 0.00 | 0.00 | 73 | 1010.7 |
| 20260901023859 | 65 | 288 | 6.1 | 13.0 | 0.00 | 0.00 | 0.00 | 73 | 1010.7 |
| 20260901023813 | 65 | 250 | 6.1 | 13.0 | 0.00 | 0.00 | 0.00 | 73 | 1010.7 |
| 20260901023711 | 65 | 232 | 5.2 | 13.0 | 0.00 | 0.00 | 0.00 | 73 | 1010.7 |
| 20260901023607 | 65 | 229 | 6.1 | 13.0 | 0.00 | 0.00 | 0.00 | 73 | 1010.6 |
| 20260901023508 | 65 | 230 | 6.1 | 13.0 | 0.00 | 0.00 | 0.00 | 73 | 1010.7 |
| 20260901023407 | 65 | 187 | 6.1 | 13.0 | 0.00 | 0.00 | 0.00 | 72 | 1010.7 |
| 20260901023353 | 65 | 200 | 6.1 | 13.0 | 0.00 | 0.00 | 0.00 | 72 | 1010.7 |
| 20260901023306 | 65 | 235 | 6.1 | 13.0 | 0.00 | 0.00 | 0.00 | 72 | 1010.6 |
| 20260901023205 | 65 | 260 | 6.1 | 13.0 | 0.00 | 0.00 | 0.00 | 72 | 1010.6 |
| 20260901023100 | 65 | 274 | 6.1 | 13.0 | 0.00 | 0.00 | 0.00 | 72 | 1010.7 |
| 20260901023000 | 65 | 292 | 5.2 | 13.0 | 0.00 | 0.00 | 0.00 | 72 | 1010.6 |
| 20260901022900 | 65 | 245 | 6.1 | 13.0 | 0.00 | 0.00 | 0.00 | 72 | 1010.6 |
| 20260901022847 | 65 | 243 | 6.1 | 13.0 | 0.00 | 0.00 | 0.00 | 72 | 1010.6 |
| 20260901022800 | 65 | 253 | 6.1 | 13.0 | 0.00 | 0.00 | 0.00 | 72 | 1010.6 |
| 20260901022700 | 65 | 269 | 5.2 | 13.0 | 0.00 | 0.00 | 0.00 | 72 | 1010.7 |
| 20260901022555 | 65 | 256 | 5.2 | 13.0 | 0.00 | 0.00 | 0.00 | 72 | 1010.6 |
| 20260901022454 | 65 | 270 | 5.2 | 13.0 | 0.00 | 0.00 | 0.00 | 72 | 1010.6 |
| 20260901022354 | 65 | 219 | 5.2 | 15.6 | 0.00 | 0.00 | 0.00 | 72 | 1010.6 |
| 20260901022342 | 65 | 264 | 5.2 | 15.6 | 0.00 | 0.00 | 0.00 | 71 | 1010.6 |
| 20260901022254 | 65 | 232 | 5.2 | 16.5 | 0.00 | 0.00 | 0.00 | 71 | 1010.6 |
| 20260901022154 | 66 | 283 | 5.2 | 16.5 | 0.00 | 0.00 | 0.00 | 71 | 1010.6 |
| 20260901022048 | 66 | 232 | 5.2 | 16.5 | 0.00 | 0.00 | 0.00 | 71 | 1010.6 |
| 20260901021948 | 66 | 245 | 6.1 | 16.5 | 0.00 | 0.00 | 0.00 | 71 | 1010.6 |
| 20260901021848 | 66 | 243 | 6.1 | 16.5 | 0.00 | 0.00 | 0.00 | 71 | 1010.6 |
| 20260901021835 | 66 | 245 | 6.1 | 16.5 | 0.00 | 0.00 | 0.00 | 71 | 1010.6 |
| 20260901021749 | 66 | 238 | 5.2 | 16.5 | 0.00 | 0.00 | 0.00 | 71 | 1010.6 |
| 20260901021650 | 66 | 256 | 5.2 | 16.5 | 0.00 | 0.00 | 0.00 | 71 | 1010.5 |
| 20260901021545 | 66 | 238 | 5.2 | 16.5 | 0.00 | 0.00 | 0.00 | 71 | 1010.5 |
| 20260901021443 | 66 | 232 | 5.2 | 16.5 | 0.00 | 0.00 | 0.00 | 70 | 1010.6 |
| 20260901021343 | 66 | 240 | 5.2 | 16.5 | 0.00 | 0.00 | 0.00 | 70 | 1010.6 |
| 20260901021329 | 66 | 280 | 5.2 | 16.5 | 0.00 | 0.00 | 0.00 | 70 | 1010.6 |
| 20260901021243 | 66 | 229 | 5.2 | 13.9 | 0.00 | 0.00 | 0.00 | 70 | 1010.7 |
| 20260901021142 | 66 | 219 | 5.2 | 17.4 | 0.00 | 0.00 | 0.00 | 70 | 1010.6 |
| 20260901021036 | 66 | 211 | 6.1 | 17.4 | 0.00 | 0.00 | 0.00 | 70 | 1010.6 |
| 20260901020936 | 66 | 224 | 6.1 | 17.4 | 0.00 | 0.00 | 0.00 | 70 | 1010.6 |
| 20260901020837 | 66 | 257 | 6.1 | 17.4 | 0.00 | 0.00 | 0.00 | 70 | 1010.6 |
| 20260901020829 | 66 | 214 | 6.1 | 17.4 | 0.00 | 0.00 | 0.00 | 70 | 1010.6 |
| 20260901020737 | 66 | 263 | 6.1 | 17.4 | 0.00 | 0.00 | 0.00 | 70 | 1010.5 |
| 20260901020636 | 66 | 245 | 6.1 | 17.4 | 0.00 | 0.00 | 0.00 | 69 | 1010.6 |
| 20260901020531 | 67 | 256 | 6.1 | 17.4 | 0.00 | 0.00 | 0.00 | 69 | 1010.6 |
| 20260901020431 | 67 | 243 | 6.1 | 17.4 | 0.00 | 0.00 | 0.00 | 69 | 1010.6 |
| 20260901020330 | 67 | 257 | 6.1 | 17.4 | 0.00 | 0.00 | 0.00 | 69 | 1010.6 |
| 20260901020317 | 67 | 236 | 6.1 | 17.4 | 0.00 | 0.00 | 0.00 | 69 | 1010.6 |
| 20260901020231 | 67 | 250 | 5.2 | 17.4 | 0.00 | 0.00 | 0.00 | 69 | 1010.6 |
| 20260901020130 | 67 | 238 | 5.2 | 15.6 | 0.00 | 0.00 | 0.00 | 69 | 1010.6 |
| 20260901020026 | 67 | 266 | 5.2 | 15.6 | 0.00 | 0.00 | 0.00 | 69 | 1010.6 |
| 20260901015925 | 67 | 291 | 5.2 | 15.6 | 0.00 | 0.00 | 0.00 | 69 | 1010.5 |
| 20260901015824 | 67 | 212 | 5.2 | 13.9 | 0.00 | 0.00 | 0.00 | 68 | 1010.5 |
| 20260901015813 | 67 | 264 | 5.2 | 13.9 | 0.00 | 0.00 | 0.00 | 68 | 1010.5 |
| 20260901015725 | 67 | 187 | 5.2 | 13.9 | 0.00 | 0.00 | 0.00 | 68 | 1010.5 |
| 20260901015624 | 67 | 221 | 5.2 | 13.9 | 0.00 | 0.00 | 0.00 | 68 | 1010.5 |
| 20260901015519 | 67 | 274 | 5.2 | 13.9 | 0.00 | 0.00 | 0.00 | 68 | 1010.4 |
| 20260901015419 | 67 | 153 | 5.2 | 13.9 | 0.00 | 0.00 | 0.00 | 68 | 1010.4 |
| 20260901015319 | 67 | 289 | 4.3 | 13.9 | 0.00 | 0.00 | 0.00 | 68 | 1010.4 |
| 20260901015306 | 67 | 222 | 4.3 | 13.9 | 0.00 | 0.00 | 0.00 | 68 | 1010.4 |
| 20260901015218 | 67 | 193 | 4.3 | 13.9 | 0.00 | 0.00 | 0.00 | 68 | 1010.4 |
| 20260901015117 | 68 | 256 | 4.3 | 13.9 | 0.00 | 0.00 | 0.00 | 67 | 1010.4 |
| 20260901015013 | 68 | 262 | 4.3 | 13.0 | 0.00 | 0.00 | 0.00 | 67 | 1010.4 |
| 20260901014913 | 68 | 256 | 4.3 | 13.0 | 0.00 | 0.00 | 0.00 | 67 | 1010.4 |
| 20260901014812 | 68 | 281 | 5.2 | 13.0 | 0.00 | 0.00 | 0.00 | 67 | 1010.4 |
| 20260901014800 | 68 | 228 | 4.3 | 13.0 | 0.00 | 0.00 | 0.00 | 67 | 1010.4 |
| 20260901014712 | 68 | 226 | 4.3 | 13.0 | 0.00 | 0.00 | 0.00 | 67 | 1010.4 |
| 20260901014611 | 68 | 253 | 5.2 | 13.0 | 0.00 | 0.00 | 0.00 | 67 | 1010.4 |
| 20260901014517 | 68 | 248 | 5.2 | 13.0 | 0.00 | 0.00 | 0.00 | 66 | 1010.4 |
| 20260901014507 | 68 | 240 | 5.2 | 13.0 | 0.00 | 0.00 | 0.00 | 67 | 1010.4 |
| 20260901014408 | 68 | 246 | 5.2 | 13.0 | 0.00 | 0.00 | 0.00 | 67 | 1010.3 |
| 20260901014400 | 68 | 253 | 5.2 | 13.0 | 0.00 | 0.00 | 0.00 | 66 | 1010.4 |
| 20260901014206 | 68 | 262 | 5.2 | 13.0 | 0.00 | 0.00 | 0.00 | 66 | 1010.4 |
| 20260901014105 | 68 | 284 | 5.2 | 13.0 | 0.00 | 0.00 | 0.00 | 66 | 1010.4 |
| 20260901014002 | 68 | 224 | 4.3 | 12.2 | 0.00 | 0.00 | 0.00 | 66 | 1010.4 |
| 20260901013902 | 68 | 243 | 4.3 | 12.2 | 0.00 | 0.00 | 0.00 | 66 | 1010.4 |
| 20260901013803 | 68 | 239 | 4.3 | 12.2 | 0.00 | 0.00 | 0.00 | 66 | 1010.4 |
| 20260901013748 | 68 | 230 | 4.3 | 12.2 | 0.00 | 0.00 | 0.00 | 66 | 1010.4 |
| 20260901013702 | 69 | 253 | 3.5 | 12.2 | 0.00 | 0.00 | 0.00 | 66 | 1010.4 |
| 20260901013600 | 69 | 200 | 3.5 | 12.2 | 0.00 | 0.00 | 0.00 | 65 | 1010.3 |
| 20260901013454 | 69 | 280 | 3.5 | 12.2 | 0.00 | 0.00 | 0.00 | 65 | 1010.3 |
| 20260901013355 | 69 | 263 | 3.5 | 11.3 | 0.00 | 0.00 | 0.00 | 65 | 1010.3 |
| 20260901013255 | 69 | 278 | 3.5 | 10.4 | 0.00 | 0.00 | 0.00 | 65 | 1010.3 |
| 20260901013241 | 69 | 267 | 3.5 | 10.4 | 0.00 | 0.00 | 0.00 | 65 | 1010.3 |
| 20260901013154 | 69 | 238 | 3.5 | 10.4 | 0.00 | 0.00 | 0.00 | 65 | 1010.3 |
| 20260901013053 | 69 | 340 | 3.5 | 10.4 | 0.00 | 0.00 | 0.00 | 64 | 1010.3 |
| 20260901012948 | 69 | 229 | 3.5 | 10.4 | 0.00 | 0.00 | 0.00 | 64 | 1010.3 |
| 20260901012849 | 69 | 231 | 3.5 | 10.4 | 0.00 | 0.00 | 0.00 | 64 | 1010.3 |
| 20260901012748 | 69 | 307 | 4.3 | 10.4 | 0.00 | 0.00 | 0.00 | 64 | 1010.3 |
| 20260901012735 | 69 | 317 | 4.3 | 10.4 | 0.00 | 0.00 | 0.00 | 64 | 1010.3 |
| 20260901012649 | 69 | 157 | 4.3 | 11.3 | 0.00 | 0.00 | 0.00 | 64 | 1010.3 |
| 20260901012548 | 69 | 246 | 4.3 | 11.3 | 0.00 | 0.00 | 0.00 | 64 | 1010.3 |
| 20260901012444 | 69 | 288 | 4.3 | 11.3 | 0.00 | 0.00 | 0.00 | 65 | 1010.3 |
| 20260901012342 | 69 | 236 | 3.5 | 11.3 | 0.00 | 0.00 | 0.00 | 65 | 1010.3 |
| 20260901012244 | 69 | 188 | 3.5 | 11.3 | 0.00 | 0.00 | 0.00 | 65 | 1010.3 |
| 20260901012234 | 69 | 246 | 3.5 | 11.3 | 0.00 | 0.00 | 0.00 | 65 | 1010.3 |
| 20260901012142 | 69 | 273 | 3.5 | 11.3 | 0.00 | 0.00 | 0.00 | 65 | 1010.2 |
| 20260901012042 | 69 | 263 | 3.5 | 11.3 | 0.00 | 0.00 | 0.00 | 64 | 1010.2 |
| 20260901011937 | 69 | 257 | 3.5 | 11.3 | 0.00 | 0.00 | 0.00 | 65 | 1010.2 |
| 20260901011837 | 69 | 238 | 4.3 | 11.3 | 0.00 | 0.00 | 0.00 | 64 | 1010.2 |
| 20260901011737 | 69 | 249 | 3.5 | 11.3 | 0.00 | 0.00 | 0.00 | 64 | 1010.2 |
| 20260901011727 | 69 | 207 | 3.5 | 11.3 | 0.00 | 0.00 | 0.00 | 64 | 1010.2 |
| 20260901011637 | 69 | 223 | 3.5 | 10.4 | 0.00 | 0.00 | 0.00 | 64 | 1010.2 |
| 20260901011537 | 69 | 229 | 3.5 | 10.4 | 0.00 | 0.00 | 0.00 | 64 | 1010.2 |
| 20260901011430 | 69 | 257 | 3.5 | 10.4 | 0.00 | 0.00 | 0.00 | 64 | 1010.2 |
| 20260901011330 | 70 | 270 | 4.3 | 10.4 | 0.00 | 0.00 | 0.00 | 64 | 1010.2 |
| 20260901011230 | 70 | 250 | 4.3 | 10.4 | 0.00 | 0.00 | 0.00 | 64 | 1010.3 |
| 20260901011218 | 70 | 236 | 4.3 | 10.4 | 0.00 | 0.00 | 0.00 | 64 | 1010.2 |
| 20260901011131 | 70 | 231 | 4.3 | 10.4 | 0.00 | 0.00 | 0.00 | 64 | 1010.2 |
| 20260901011030 | 70 | 242 | 4.3 | 10.4 | 0.00 | 0.00 | 0.00 | 64 | 1010.2 |
| 20260901010927 | 70 | 243 | 5.2 | 11.3 | 0.00 | 0.00 | 0.00 | 63 | 1010.3 |
| 20260901010824 | 70 | 224 | 5.2 | 13.0 | 0.00 | 0.00 | 0.00 | 63 | 1010.3 |
| 20260901010724 | 70 | 217 | 5.2 | 13.0 | 0.00 | 0.00 | 0.00 | 63 | 1010.3 |
| 20260901010711 | 70 | 246 | 5.2 | 13.0 | 0.00 | 0.00 | 0.00 | 63 | 1010.3 |
| 20260901010625 | 70 | 253 | 5.2 | 13.0 | 0.00 | 0.00 | 0.00 | 63 | 1010.3 |
| 20260901010524 | 70 | 278 | 6.1 | 13.0 | 0.00 | 0.00 | 0.00 | 63 | 1010.3 |
| 20260901010419 | 70 | 233 | 6.1 | 15.6 | 0.00 | 0.00 | 0.00 | 62 | 1010.3 |
| 20260901010318 | 70 | 203 | 6.1 | 15.6 | 0.00 | 0.00 | 0.00 | 62 | 1010.2 |
| 20260901010218 | 70 | 228 | 6.1 | 15.6 | 0.00 | 0.00 | 0.00 | 62 | 1010.2 |
| 20260901010205 | 70 | 226 | 5.2 | 15.6 | 0.00 | 0.00 | 0.00 | 62 | 1010.2 |
| 20260901010119 | 70 | 236 | 5.2 | 15.6 | 0.00 | 0.00 | 0.00 | 62 | 1010.2 |
| 20260901010018 | 70 | 211 | 5.2 | 15.6 | 0.00 | 0.00 | 0.00 | 62 | 1010.2 |
| 20260901005914 | 70 | 312 | 5.2 | 15.6 | 0.00 | 0.00 | 0.00 | 62 | 1010.2 |
| 20260901005812 | 70 | 255 | 4.3 | 15.6 | 0.00 | 0.00 | 0.00 | 61 | 1010.2 |
| 20260901005714 | 71 | 207 | 4.3 | 15.6 | 0.00 | 0.00 | 0.00 | 61 | 1010.2 |
| 20260901005700 | 71 | 248 | 4.3 | 15.6 | 0.00 | 0.00 | 0.00 | 61 | 1010.2 |
| 20260901005613 | 71 | 239 | 4.3 | 15.6 | 0.00 | 0.00 | 0.00 | 61 | 1010.1 |
| 20260901005512 | 71 | 242 | 3.5 | 15.6 | 0.00 | 0.00 | 0.00 | 61 | 1010.2 |
| 20260901005415 | 71 | 228 | 3.5 | 13.0 | 0.00 | 0.00 | 0.00 | 61 | 1010.2 |
| 20260901005406 | 71 | 222 | 3.5 | 10.4 | 0.00 | 0.00 | 0.00 | 61 | 1010.2 |
| 20260901005307 | 71 | 300 | 3.5 | 10.4 | 0.00 | 0.00 | 0.00 | 61 | 1010.2 |
| 20260901005207 | 71 | 238 | 3.5 | 13.0 | 0.00 | 0.00 | 0.00 | 61 | 1010.2 |
| 20260901005106 | 71 | 252 | 3.5 | 13.0 | 0.00 | 0.00 | 0.00 | 61 | 1010.2 |
| 20260901005008 | 71 | 242 | 4.3 | 13.0 | 0.00 | 0.00 | 0.00 | 61 | 1010.1 |
| 20260901004904 | 71 | 239 | 4.3 | 13.0 | 0.00 | 0.00 | 0.00 | 61 | 1010.1 |
| 20260901004804 | 71 | 232 | 4.3 | 13.0 | 0.00 | 0.00 | 0.00 | 61 | 1010.1 |
| 20260901004704 | 71 | 211 | 4.3 | 13.0 | 0.00 | 0.00 | 0.00 | 61 | 1010.1 |
| 20260901004648 | 71 | 263 | 4.3 | 13.0 | 0.00 | 0.00 | 0.00 | 61 | 1010.1 |
| 20260901004602 | 71 | 226 | 4.3 | 13.0 | 0.00 | 0.00 | 0.00 | 61 | 1010.2 |
| 20260901004500 | 71 | 308 | 4.3 | 13.0 | 0.00 | 0.00 | 0.00 | 60 | 1010.2 |
| 20260901004355 | 71 | 238 | 4.3 | 13.0 | 0.00 | 0.00 | 0.00 | 60 | 1010.3 |
| 20260901004254 | 71 | 217 | 4.3 | 13.0 | 0.00 | 0.00 | 0.00 | 60 | 1010.2 |
| 20260901004154 | 71 | 228 | 3.5 | 13.0 | 0.00 | 0.00 | 0.00 | 60 | 1010.2 |
| 20260901004142 | 71 | 287 | 3.5 | 13.0 | 0.00 | 0.00 | 0.00 | 60 | 1010.2 |
| 20260901004125 | 72 | 236 | 3.5 | 13.0 | 0.00 | 0.00 | 0.00 | 59 | 1010.3 |
| 20260901004055 | 71 | 248 | 3.5 | 13.0 | 0.00 | 0.00 | 0.00 | 60 | 1010.2 |
| 20260901004008 | 72 | 270 | 4.3 | 13.0 | 0.00 | 0.00 | 0.00 | 60 | 1010.3 |
| 20260901003850 | 72 | 232 | 3.5 | 13.0 | 0.00 | 0.00 | 0.00 | 60 | 1010.2 |
| 20260901003751 | 72 | 233 | 3.5 | 13.0 | 0.00 | 0.00 | 0.00 | 59 | 1010.2 |
| 20260901003650 | 72 | 262 | 3.5 | 13.0 | 0.00 | 0.00 | 0.00 | 59 | 1010.3 |
| 20260901003550 | 72 | 245 | 4.3 | 13.0 | 0.00 | 0.00 | 0.00 | 59 | 1010.3 |
| 20260901003447 | 72 | 203 | 3.5 | 13.0 | 0.00 | 0.00 | 0.00 | 60 | 1010.3 |
| 20260901003342 | 72 | 250 | 4.3 | 13.0 | 0.00 | 0.00 | 0.00 | 60 | 1010.3 |
| 20260901003242 | 72 | 200 | 3.5 | 13.0 | 0.00 | 0.00 | 0.00 | 60 | 1010.3 |
| 20260901003143 | 72 | 295 | 3.5 | 13.0 | 0.00 | 0.00 | 0.00 | 59 | 1010.3 |
| 20260901003130 | 72 | 214 | 3.5 | 13.0 | 0.00 | 0.00 | 0.00 | 59 | 1010.3 |
| 20260901003112 | 72 | 243 | 4.3 | 13.0 | 0.00 | 0.00 | 0.00 | 59 | 1010.3 |
| 20260901003042 | 72 | 200 | 4.3 | 13.0 | 0.00 | 0.00 | 0.00 | 59 | 1010.3 |
| 20260901002956 | 72 | 215 | 3.5 | 13.0 | 0.00 | 0.00 | 0.00 | 58 | 1010.4 |
| 20260901002836 | 72 | 217 | 4.3 | 13.0 | 0.00 | 0.00 | 0.00 | 58 | 1010.3 |
| 20260901002736 | 73 | 250 | 4.3 | 13.0 | 0.00 | 0.00 | 0.00 | 58 | 1010.4 |
| 20260901002638 | 72 | 241 | 4.3 | 13.0 | 0.00 | 0.00 | 0.00 | 59 | 1010.4 |
| 20260901002536 | 72 | 208 | 4.3 | 13.0 | 0.00 | 0.00 | 0.00 | 59 | 1010.3 |
| 20260901002436 | 72 | 250 | 5.2 | 13.0 | 0.00 | 0.00 | 0.00 | 59 | 1010.3 |
| 20260901002331 | 72 | 274 | 5.2 | 13.0 | 0.00 | 0.00 | 0.00 | 59 | 1010.3 |
| 20260901002230 | 72 | 226 | 5.2 | 13.0 | 0.00 | 0.00 | 0.00 | 59 | 1010.3 |
| 20260901002130 | 72 | 204 | 5.2 | 13.0 | 0.00 | 0.00 | 0.00 | 58 | 1010.3 |
| 20260901002118 | 72 | 234 | 5.2 | 13.0 | 0.00 | 0.00 | 0.00 | 58 | 1010.3 |
| 20260901002030 | 72 | 235 | 5.2 | 13.0 | 0.00 | 0.00 | 0.00 | 58 | 1010.3 |
| 20260901001930 | 72 | 221 | 5.2 | 11.3 | 0.00 | 0.00 | 0.00 | 58 | 1010.4 |
| 20260901001824 | 73 | 241 | 5.2 | 11.3 | 0.00 | 0.00 | 0.00 | 57 | 1010.4 |
| 20260901001724 | 73 | 291 | 5.2 | 11.3 | 0.00 | 0.00 | 0.00 | 57 | 1010.4 |
| 20260901001625 | 73 | 242 | 4.3 | 11.3 | 0.00 | 0.00 | 0.00 | 57 | 1010.4 |
| 20260901001611 | 73 | 259 | 4.3 | 11.3 | 0.00 | 0.00 | 0.00 | 57 | 1010.4 |
| 20260901001524 | 73 | 255 | 4.3 | 11.3 | 0.00 | 0.00 | 0.00 | 58 | 1010.4 |
| 20260901001424 | 73 | 238 | 4.3 | 11.3 | 0.00 | 0.00 | 0.00 | 58 | 1010.4 |
| 20260901001320 | 73 | 219 | 4.3 | 11.3 | 0.00 | 0.00 | 0.00 | 58 | 1010.4 |
| 20260901001218 | 73 | 210 | 5.2 | 13.9 | 0.00 | 0.00 | 0.00 | 57 | 1010.3 |
| 20260901001119 | 73 | 240 | 4.3 | 13.9 | 0.00 | 0.00 | 0.00 | 58 | 1010.3 |
| 20260901001106 | 73 | 259 | 4.3 | 13.9 | 0.00 | 0.00 | 0.00 | 58 | 1010.3 |
| 20260901001019 | 73 | 260 | 4.3 | 13.9 | 0.00 | 0.00 | 0.00 | 58 | 1010.3 |
| 20260901000918 | 73 | 235 | 4.3 | 13.9 | 0.00 | 0.00 | 0.00 | 57 | 1010.3 |
| 20260901000812 | 73 | 235 | 4.3 | 13.9 | 0.00 | 0.00 | 0.00 | 57 | 1010.4 |
| 20260901000715 | 73 | 245 | 4.3 | 13.9 | 0.00 | 0.00 | 0.00 | 57 | 1010.3 |
| 20260901000612 | 73 | 253 | 5.2 | 13.9 | 0.00 | 0.00 | 0.00 | 57 | 1010.4 |
| 20260901000559 | 73 | 226 | 5.2 | 13.9 | 0.00 | 0.00 | 0.00 | 57 | 1010.4 |
| 20260901000512 | 73 | 239 | 5.2 | 13.9 | 0.00 | 0.00 | 0.00 | 57 | 1010.4 |
| 20260901000413 | 73 | 219 | 5.2 | 13.9 | 0.00 | 0.00 | 0.00 | 57 | 1010.3 |
| 20260901000306 | 73 | 231 | 4.3 | 13.9 | 0.00 | 0.00 | 0.00 | 57 | 1010.4 |
| 20260901000207 | 73 | 238 | 5.2 | 11.3 | 0.00 | 0.00 | 0.00 | 58 | 1010.2 |
| 20260901000113 | 73 | 208 | 5.2 | 11.3 | 0.00 | 0.00 | 0.00 | 57 | 1010.3 |
| 20260901000107 | 73 | 264 | 5.2 | 11.3 | 0.00 | 0.00 | 0.00 | 57 | 1010.3 |
| 20260901000008 | 73 | 248 | 5.2 | 11.3 | 0.00 | 0.00 | 0.00 | 56 | 1010.3 |
| 20260831235906 | 73 | 241 | 5.2 | 11.3 | 0.00 | 0.00 | 0.00 | 56 | 1010.3 |
| 20260831235802 | 73 | 222 | 4.3 | 11.3 | 0.00 | 0.00 | 0.00 | 56 | 1010.3 |
| 20260831235701 | 73 | 233 | 4.3 | 11.3 | 0.00 | 0.00 | 0.00 | 56 | 1010.3 |
| 20260831235600 | 73 | 245 | 4.3 | 11.3 | 0.00 | 0.00 | 0.00 | 56 | 1010.3 |
| 20260831235547 | 73 | 252 | 4.3 | 11.3 | 0.00 | 0.00 | 0.00 | 56 | 1010.3 |
| 20260831235500 | 73 | 273 | 4.3 | 11.3 | 0.00 | 0.00 | 0.00 | 57 | 1010.3 |
| 20260831235400 | 73 | 270 | 4.3 | 12.2 | 0.00 | 0.00 | 0.00 | 56 | 1010.3 |
| 20260831235255 | 73 | 238 | 4.3 | 12.2 | 0.00 | 0.00 | 0.00 | 55 | 1010.3 |
| 20260831235154 | 73 | 274 | 3.5 | 12.2 | 0.00 | 0.00 | 0.00 | 56 | 1010.3 |
| 20260831235054 | 74 | 233 | 3.5 | 13.0 | 0.00 | 0.00 | 0.00 | 56 | 1010.3 |
| 20260831235044 | 74 | 248 | 3.5 | 13.0 | 0.00 | 0.00 | 0.00 | 56 | 1010.3 |
| 20260831234954 | 74 | 228 | 4.3 | 13.0 | 0.00 | 0.00 | 0.00 | 56 | 1010.4 |
| 20260831234854 | 74 | 288 | 4.3 | 13.0 | 0.00 | 0.00 | 0.00 | 56 | 1010.4 |
| 20260831234756 | 74 | 248 | 4.3 | 13.0 | 0.00 | 0.00 | 0.00 | 55 | 1010.4 |
| 20260831234751 | 74 | 278 | 4.3 | 13.0 | 0.00 | 0.00 | 0.00 | 56 | 1010.3 |
| 20260831234652 | 74 | 256 | 4.3 | 13.0 | 0.00 | 0.00 | 0.00 | 56 | 1010.3 |
| 20260831234641 | 74 | 259 | 4.3 | 13.0 | 0.00 | 0.00 | 0.00 | 55 | 1010.4 |
| 20260831234450 | 74 | 212 | 4.3 | 13.0 | 0.00 | 0.00 | 0.00 | 55 | 1010.4 |
| 20260831234348 | 74 | 262 | 5.2 | 13.0 | 0.00 | 0.00 | 0.00 | 55 | 1010.4 |
| 20260831234242 | 74 | 239 | 5.2 | 13.0 | 0.00 | 0.00 | 0.00 | 55 | 1010.4 |
| 20260831234142 | 74 | 241 | 4.3 | 13.0 | 0.00 | 0.00 | 0.00 | 55 | 1010.5 |
| 20260831234043 | 74 | 259 | 4.3 | 11.3 | 0.00 | 0.00 | 0.00 | 55 | 1010.5 |
| 20260831234030 | 74 | 214 | 4.3 | 11.3 | 0.00 | 0.00 | 0.00 | 55 | 1010.5 |
| 20260831233942 | 74 | 231 | 4.3 | 11.3 | 0.00 | 0.00 | 0.00 | 55 | 1010.4 |
| 20260831233842 | 74 | 221 | 4.3 | 11.3 | 0.00 | 0.00 | 0.00 | 55 | 1010.4 |
| 20260831233739 | 74 | 228 | 4.3 | 11.3 | 0.00 | 0.00 | 0.00 | 55 | 1010.4 |
| 20260831233639 | 74 | 212 | 4.3 | 12.2 | 0.00 | 0.00 | 0.00 | 55 | 1010.4 |
| 20260831233538 | 74 | 207 | 4.3 | 12.2 | 0.00 | 0.00 | 0.00 | 55 | 1010.5 |
| 20260831233527 | 74 | 152 | 4.3 | 12.2 | 0.00 | 0.00 | 0.00 | 55 | 1010.5 |
| 20260831233438 | 74 | 226 | 4.3 | 12.2 | 0.00 | 0.00 | 0.00 | 55 | 1010.4 |
| 20260831233335 | 74 | 204 | 4.3 | 12.2 | 0.00 | 0.00 | 0.00 | 55 | 1010.5 |
| 20260831233232 | 74 | 284 | 4.3 | 12.2 | 0.00 | 0.00 | 0.00 | 55 | 1010.4 |
| 20260831233131 | 74 | 246 | 4.3 | 12.2 | 0.00 | 0.00 | 0.00 | 56 | 1010.4 |
| 20260831233030 | 74 | 233 | 4.3 | 12.2 | 0.00 | 0.00 | 0.00 | 55 | 1010.4 |
| 20260831233020 | 74 | 201 | 4.3 | 12.2 | 0.00 | 0.00 | 0.00 | 56 | 1010.5 |
| 20260831232930 | 74 | 224 | 4.3 | 12.2 | 0.00 | 0.00 | 0.00 | 56 | 1010.5 |
| 20260831232831 | 74 | 288 | 4.3 | 12.2 | 0.00 | 0.00 | 0.00 | 55 | 1010.5 |
| 20260831232725 | 74 | 215 | 5.2 | 11.3 | 0.00 | 0.00 | 0.00 | 56 | 1010.5 |
| 20260831232624 | 74 | 231 | 5.2 | 11.3 | 0.00 | 0.00 | 0.00 | 56 | 1010.5 |
| 20260831232528 | 74 | 301 | 5.2 | 11.3 | 0.00 | 0.00 | 0.00 | 56 | 1010.5 |
| 20260831232521 | 74 | 256 | 5.2 | 11.3 | 0.00 | 0.00 | 0.00 | 55 | 1010.6 |
| 20260831232425 | 74 | 236 | 5.2 | 11.3 | 0.00 | 0.00 | 0.00 | 55 | 1010.6 |
| 20260831232324 | 74 | 252 | 4.3 | 11.3 | 0.00 | 0.00 | 0.00 | 56 | 1010.6 |
| 20260831232220 | 74 | 278 | 4.3 | 11.3 | 0.00 | 0.00 | 0.00 | 56 | 1010.6 |
| 20260831232118 | 74 | 242 | 5.2 | 11.3 | 0.00 | 0.00 | 0.00 | 56 | 1010.6 |
| 20260831232018 | 74 | 245 | 5.2 | 11.3 | 0.00 | 0.00 | 0.00 | 56 | 1010.6 |
| 20260831232010 | 74 | 233 | 5.2 | 11.3 | 0.00 | 0.00 | 0.00 | 56 | 1010.6 |
| 20260831231918 | 74 | 222 | 5.2 | 11.3 | 0.00 | 0.00 | 0.00 | 56 | 1010.6 |
| 20260831231817 | 74 | 232 | 5.2 | 11.3 | 0.00 | 0.00 | 0.00 | 55 | 1010.7 |
| 20260831231712 | 74 | 238 | 4.3 | 11.3 | 0.00 | 0.00 | 0.00 | 55 | 1010.7 |
| 20260831231612 | 74 | 253 | 4.3 | 9.6 | 0.00 | 0.00 | 0.00 | 56 | 1010.7 |
| 20260831231513 | 74 | 231 | 5.2 | 9.6 | 0.00 | 0.00 | 0.00 | 56 | 1010.7 |
| 20260831231502 | 74 | 231 | 5.2 | 9.6 | 0.00 | 0.00 | 0.00 | 56 | 1010.7 |
| 20260831231413 | 74 | 233 | 5.2 | 9.6 | 0.00 | 0.00 | 0.00 | 56 | 1010.7 |
| 20260831231312 | 74 | 225 | 5.2 | 9.6 | 0.00 | 0.00 | 0.00 | 55 | 1010.7 |
| 20260831231207 | 74 | 219 | 5.2 | 9.6 | 0.00 | 0.00 | 0.00 | 55 | 1010.7 |
| 20260831231106 | 74 | 243 | 5.2 | 9.6 | 0.00 | 0.00 | 0.00 | 56 | 1010.7 |
| 20260831231008 | 74 | 248 | 4.3 | 9.6 | 0.00 | 0.00 | 0.00 | 56 | 1010.7 |
| 20260831231002 | 74 | 215 | 4.3 | 9.6 | 0.00 | 0.00 | 0.00 | 56 | 1010.7 |
| 20260831230906 | 74 | 212 | 4.3 | 9.6 | 0.00 | 0.00 | 0.00 | 55 | 1010.7 |
| 20260831230805 | 74 | 135 | 3.5 | 9.6 | 0.00 | 0.00 | 0.00 | 55 | 1010.7 |
| 20260831230701 | 74 | 172 | 3.5 | 9.6 | 0.00 | 0.00 | 0.00 | 55 | 1010.7 |
| 20260831230600 | 74 | 233 | 3.5 | 8.7 | 0.00 | 0.00 | 0.00 | 55 | 1010.7 |
| 20260831230508 | 75 | 248 | 3.5 | 10.4 | 0.00 | 0.00 | 0.00 | 55 | 1010.8 |
| 20260831230400 | 75 | 193 | 3.5 | 12.2 | 0.00 | 0.00 | 0.00 | 55 | 1010.7 |
| 20260831230259 | 74 | 249 | 3.5 | 12.2 | 0.00 | 0.00 | 0.00 | 56 | 1010.7 |
| 20260831230227 | 74 | 114 | 5.2 | 12.2 | 0.00 | 0.00 | 0.00 | 57 | 1010.7 |
| 20260831230156 | 74 | 271 | 4.3 | 12.2 | 0.00 | 0.00 | 0.00 | 56 | 1010.7 |
| 20260831230113 | 74 | 219 | 4.3 | 12.2 | 0.00 | 0.00 | 0.00 | 57 | 1010.7 |
| 20260831225957 | 74 | 172 | 5.2 | 12.2 | 0.00 | 0.00 | 0.00 | 57 | 1010.7 |
| 20260831225857 | 74 | 314 | 5.2 | 14.8 | 0.00 | 0.00 | 0.00 | 57 | 1010.7 |
| 20260831225753 | 74 | 217 | 5.2 | 14.8 | 0.00 | 0.00 | 0.00 | 57 | 1010.7 |
| 20260831225651 | 74 | 225 | 5.2 | 14.8 | 0.00 | 0.00 | 0.00 | 56 | 1010.7 |
| 20260831225550 | 74 | 273 | 5.2 | 14.8 | 0.00 | 0.00 | 0.00 | 56 | 1010.8 |
| 20260831225502 | 74 | 258 | 5.2 | 14.8 | 0.00 | 0.00 | 0.00 | 56 | 1010.8 |
| 20260831225449 | 74 | 287 | 5.2 | 14.8 | 0.00 | 0.00 | 0.00 | 56 | 1010.8 |
| 20260831225349 | 74 | 190 | 6.1 | 14.8 | 0.00 | 0.00 | 0.00 | 56 | 1010.8 |
| 20260831225248 | 74 | 238 | 5.2 | 14.8 | 0.00 | 0.00 | 0.00 | 56 | 1010.8 |
| 20260831225143 | 74 | 242 | 4.3 | 14.8 | 0.00 | 0.00 | 0.00 | 55 | 1010.8 |
| 20260831225045 | 74 | 248 | 4.3 | 14.8 | 0.00 | 0.00 | 0.00 | 55 | 1010.9 |
| 20260831225003 | 74 | 242 | 3.5 | 14.8 | 0.00 | 0.00 | 0.00 | 56 | 1010.8 |
| 20260831224943 | 74 | 226 | 3.5 | 12.2 | 0.00 | 0.00 | 0.00 | 56 | 1010.8 |
| 20260831224844 | 74 | 245 | 3.5 | 12.2 | 0.00 | 0.00 | 0.00 | 56 | 1010.8 |
| 20260831224742 | 74 | 228 | 3.5 | 12.2 | 0.00 | 0.00 | 0.00 | 55 | 1010.8 |
| 20260831224639 | 75 | 243 | 3.5 | 12.2 | 0.00 | 0.00 | 0.00 | 55 | 1010.9 |
| 20260831224539 | 75 | 197 | 3.5 | 12.2 | 0.00 | 0.00 | 0.00 | 55 | 1010.8 |
| 20260831224502 | 75 | 232 | 3.5 | 10.4 | 0.00 | 0.00 | 0.00 | 55 | 1010.8 |
| 20260831224438 | 75 | 248 | 3.5 | 10.4 | 0.00 | 0.00 | 0.00 | 55 | 1010.8 |
| 20260831224338 | 75 | 294 | 2.6 | 10.4 | 0.00 | 0.00 | 0.00 | 55 | 1010.8 |
| 20260831224237 | 75 | 345 | 2.6 | 10.4 | 0.00 | 0.00 | 0.00 | 57 | 1010.8 |
| 20260831224132 | 75 | 137 | 3.5 | 10.4 | 0.00 | 0.00 | 0.00 | 56 | 1010.8 |
| 20260831224030 | 74 | 211 | 3.5 | 10.4 | 0.00 | 0.00 | 0.00 | 56 | 1010.9 |
| 20260831223931 | 74 | 243 | 3.5 | 10.4 | 0.00 | 0.00 | 0.00 | 56 | 1010.9 |
| 20260831223830 | 74 | 243 | 3.5 | 10.4 | 0.00 | 0.00 | 0.00 | 56 | 1010.9 |
| 20260831223729 | 74 | 252 | 3.5 | 10.4 | 0.00 | 0.00 | 0.00 | 56 | 1011.0 |
| 20260831223624 | 75 | 238 | 3.5 | 10.4 | 0.00 | 0.00 | 0.00 | 56 | 1010.9 |
| 20260831223525 | 75 | 266 | 2.6 | 8.7 | 0.00 | 0.00 | 0.00 | 56 | 1010.9 |
| 20260831223457 | 75 | 217 | 2.6 | 8.7 | 0.00 | 0.00 | 0.00 | 56 | 1010.9 |
| 20260831223424 | 75 | 257 | 2.6 | 8.7 | 0.00 | 0.00 | 0.00 | 55 | 1010.9 |
| 20260831223324 | 75 | 290 | 3.5 | 8.7 | 0.00 | 0.00 | 0.00 | 56 | 1010.9 |
| 20260831223224 | 75 | 253 | 3.5 | 10.4 | 0.00 | 0.00 | 0.00 | 55 | 1011.0 |
| 20260831223123 | 75 | 255 | 3.5 | 10.4 | 0.00 | 0.00 | 0.00 | 55 | 1011.0 |
| 20260831223023 | 75 | 278 | 3.5 | 10.4 | 0.00 | 0.00 | 0.00 | 56 | 1011.0 |
| 20260831222958 | 75 | 225 | 3.5 | 10.4 | 0.00 | 0.00 | 0.00 | 56 | 1011.0 |
| 20260831222923 | 75 | 248 | 3.5 | 10.4 | 0.00 | 0.00 | 0.00 | 56 | 1011.0 |
| 20260831222821 | 75 | 296 | 3.5 | 10.4 | 0.00 | 0.00 | 0.00 | 56 | 1010.9 |
| 20260831222718 | 75 | 278 | 3.5 | 10.4 | 0.00 | 0.00 | 0.00 | 56 | 1011.0 |
| 20260831222613 | 75 | 274 | 3.5 | 10.4 | 0.00 | 0.00 | 0.00 | 56 | 1011.0 |
| 20260831222512 | 74 | 238 | 3.5 | 13.0 | 0.00 | 0.00 | 0.00 | 56 | 1011.0 |
| 20260831222503 | 74 | 232 | 3.5 | 13.0 | 0.00 | 0.00 | 0.00 | 56 | 1011.0 |
| 20260831222412 | 74 | 260 | 3.5 | 13.0 | 0.00 | 0.00 | 0.00 | 56 | 1011.0 |
| 20260831222313 | 74 | 242 | 4.3 | 13.0 | 0.00 | 0.00 | 0.00 | 56 | 1011.0 |
| 20260831222214 | 74 | 256 | 4.3 | 13.0 | 0.00 | 0.00 | 0.00 | 56 | 1010.9 |
| 20260831222112 | 74 | 235 | 4.3 | 13.0 | 0.00 | 0.00 | 0.00 | 56 | 1010.9 |
| 20260831222010 | 74 | 242 | 4.3 | 13.0 | 0.00 | 0.00 | 0.00 | 56 | 1011.0 |
| 20260831221958 | 74 | 263 | 4.3 | 13.0 | 0.00 | 0.00 | 0.00 | 56 | 1011.0 |
| 20260831221909 | 74 | 269 | 4.3 | 13.0 | 0.00 | 0.00 | 0.00 | 56 | 1011.0 |
| 20260831221809 | 74 | 261 | 5.2 | 13.0 | 0.00 | 0.00 | 0.00 | 56 | 1011.0 |
| 20260831221708 | 74 | 243 | 5.2 | 13.0 | 0.00 | 0.00 | 0.00 | 56 | 1011.0 |
| 20260831221609 | 74 | 229 | 5.2 | 13.0 | 0.00 | 0.00 | 0.00 | 56 | 1011.0 |
| 20260831221509 | 75 | 229 | 4.3 | 13.0 | 0.00 | 0.00 | 0.00 | 55 | 1011.1 |
| 20260831221458 | 75 | 232 | 4.3 | 13.0 | 0.00 | 0.00 | 0.00 | 55 | 1011.1 |
| 20260831221408 | 75 | 257 | 3.5 | 13.0 | 0.00 | 0.00 | 0.00 | 55 | 1011.0 |
| 20260831221308 | 75 | 240 | 3.5 | 10.4 | 0.00 | 0.00 | 0.00 | 56 | 1011.1 |
| 20260831221225 | 75 | 259 | 3.5 | 10.4 | 0.00 | 0.00 | 0.00 | 55 | 1011.1 |
| 20260831221210 | 75 | 257 | 3.5 | 10.4 | 0.00 | 0.00 | 0.00 | 56 | 1011.1 |
| 20260831221109 | 75 | 225 | 3.5 | 10.4 | 0.00 | 0.00 | 0.00 | 55 | 1011.1 |
| 20260831221007 | 75 | 221 | 3.5 | 10.4 | 0.00 | 0.00 | 0.00 | 55 | 1011.1 |
| 20260831220906 | 75 | 260 | 3.5 | 10.4 | 0.00 | 0.00 | 0.00 | 55 | 1011.1 |
| 20260831220805 | 75 | 185 | 3.5 | 10.4 | 0.00 | 0.00 | 0.00 | 55 | 1011.1 |
| 20260831220704 | 75 | 256 | 3.5 | 10.4 | 0.00 | 0.00 | 0.00 | 55 | 1011.2 |
| 20260831220603 | 75 | 224 | 3.5 | 10.4 | 0.00 | 0.00 | 0.00 | 55 | 1011.2 |
| 20260831220504 | 76 | 222 | 2.6 | 10.4 | 0.00 | 0.00 | 0.00 | 55 | 1011.2 |
| 20260831220456 | 76 | 223 | 2.6 | 10.4 | 0.00 | 0.00 | 0.00 | 55 | 1011.2 |
| 20260831220402 | 76 | 266 | 2.6 | 9.6 | 0.00 | 0.00 | 0.00 | 55 | 1011.2 |
| 20260831220302 | 76 | 219 | 2.6 | 9.6 | 0.00 | 0.00 | 0.00 | 55 | 1011.2 |
| 20260831220203 | 76 | 262 | 2.6 | 9.6 | 0.00 | 0.00 | 0.00 | 55 | 1011.1 |
| 20260831220100 | 76 | 243 | 3.5 | 9.6 | 0.00 | 0.00 | 0.00 | 55 | 1011.2 |
| 20260831220004 | 75 | 256 | 3.5 | 9.6 | 0.00 | 0.00 | 0.00 | 56 | 1011.1 |
| 20260831215956 | 75 | 243 | 3.5 | 9.6 | 0.00 | 0.00 | 0.00 | 56 | 1011.1 |
| 20260831215858 | 75 | 238 | 3.5 | 9.6 | 0.00 | 0.00 | 0.00 | 56 | 1011.1 |
| 20260831215756 | 75 | 219 | 3.5 | 9.6 | 0.00 | 0.00 | 0.00 | 56 | 1011.2 |
| 20260831215654 | 75 | 219 | 3.5 | 11.3 | 0.00 | 0.00 | 0.00 | 57 | 1011.2 |
| 20260831215554 | 75 | 253 | 4.3 | 12.2 | 0.00 | 0.00 | 0.00 | 56 | 1011.1 |
| 20260831215453 | 75 | 253 | 4.3 | 12.2 | 0.00 | 0.00 | 0.00 | 56 | 1011.2 |
| 20260831215352 | 75 | 201 | 5.2 | 12.2 | 0.00 | 0.00 | 0.00 | 56 | 1011.2 |
| 20260831215252 | 75 | 257 | 5.2 | 12.2 | 0.00 | 0.00 | 0.00 | 56 | 1011.2 |
| 20260831215152 | 75 | 190 | 5.2 | 12.2 | 0.00 | 0.00 | 0.00 | 57 | 1011.2 |
| 20260831215053 | 74 | 198 | 5.2 | 12.2 | 0.00 | 0.00 | 0.00 | 57 | 1011.2 |
| 20260831214953 | 74 | 225 | 6.1 | 13.0 | 0.00 | 0.00 | 0.00 | 56 | 1011.2 |
| 20260831214848 | 74 | 291 | 5.2 | 13.0 | 0.00 | 0.00 | 0.00 | 56 | 1011.2 |
| 20260831214746 | 75 | 266 | 5.2 | 13.0 | 0.00 | 0.00 | 0.00 | 56 | 1011.2 |
| 20260831214646 | 75 | 238 | 5.2 | 13.0 | 0.00 | 0.00 | 0.00 | 56 | 1011.3 |
| 20260831214546 | 75 | 267 | 4.3 | 13.0 | 0.00 | 0.00 | 0.00 | 55 | 1011.2 |
| 20260831214447 | 75 | 267 | 4.3 | 13.0 | 0.00 | 0.00 | 0.00 | 56 | 1011.2 |
| 20260831214340 | 75 | 266 | 4.3 | 13.0 | 0.00 | 0.00 | 0.00 | 55 | 1011.3 |
| 20260831214241 | 75 | 257 | 4.3 | 13.0 | 0.00 | 0.00 | 0.00 | 55 | 1011.3 |
| 20260831214142 | 75 | 116 | 4.3 | 13.0 | 0.00 | 0.00 | 0.00 | 54 | 1011.3 |
| 20260831214040 | 76 | 248 | 3.5 | 13.0 | 0.00 | 0.00 | 0.00 | 54 | 1011.3 |
| 20260831213941 | 76 | 311 | 3.5 | 11.3 | 0.00 | 0.00 | 0.00 | 55 | 1011.3 |
| 20260831213837 | 75 | 224 | 3.5 | 11.3 | 0.00 | 0.00 | 0.00 | 56 | 1011.3 |
| 20260831213736 | 75 | 277 | 4.3 | 11.3 | 0.00 | 0.00 | 0.00 | 56 | 1011.4 |
| 20260831213636 | 75 | 235 | 4.3 | 11.3 | 0.00 | 0.00 | 0.00 | 55 | 1011.4 |
| 20260831213536 | 75 | 203 | 4.3 | 11.3 | 0.00 | 0.00 | 0.00 | 55 | 1011.4 |
| 20260831213436 | 75 | 200 | 3.5 | 11.3 | 0.00 | 0.00 | 0.00 | 55 | 1011.4 |
| 20260831213331 | 75 | 250 | 3.5 | 11.3 | 0.00 | 0.00 | 0.00 | 55 | 1011.4 |
| 20260831213230 | 75 | 248 | 3.5 | 10.4 | 0.00 | 0.00 | 0.00 | 55 | 1011.4 |
| 20260831213130 | 75 | 262 | 3.5 | 11.3 | 0.00 | 0.00 | 0.00 | 55 | 1011.4 |
| 20260831213031 | 75 | 242 | 3.5 | 11.3 | 0.00 | 0.00 | 0.00 | 55 | 1011.4 |
| 20260831212929 | 75 | 284 | 4.3 | 11.3 | 0.00 | 0.00 | 0.00 | 54 | 1011.4 |
| 20260831212823 | 75 | 236 | 3.5 | 11.3 | 0.00 | 0.00 | 0.00 | 54 | 1011.4 |
| 20260831212722 | 75 | 262 | 3.5 | 11.3 | 0.00 | 0.00 | 0.00 | 54 | 1011.4 |
| 20260831212623 | 75 | 270 | 4.3 | 11.3 | 0.00 | 0.00 | 0.00 | 56 | 1011.4 |
| 20260831212523 | 75 | 230 | 4.3 | 12.2 | 0.00 | 0.00 | 0.00 | 56 | 1011.5 |
| 20260831212423 | 75 | 229 | 5.2 | 12.2 | 0.00 | 0.00 | 0.00 | 55 | 1011.4 |
| 20260831212318 | 75 | 239 | 5.2 | 12.2 | 0.00 | 0.00 | 0.00 | 55 | 1011.5 |
| 20260831212216 | 75 | 246 | 4.3 | 12.2 | 0.00 | 0.00 | 0.00 | 54 | 1011.5 |
| 20260831212117 | 75 | 263 | 4.3 | 12.2 | 0.00 | 0.00 | 0.00 | 55 | 1011.5 |
| 20260831212017 | 75 | 240 | 3.5 | 12.2 | 0.00 | 0.00 | 0.00 | 54 | 1011.5 |
| 20260831211931 | 75 | 218 | 3.5 | 12.2 | 0.00 | 0.00 | 0.00 | 54 | 1011.5 |
| 20260831211810 | 75 | 246 | 4.3 | 12.2 | 0.00 | 0.00 | 0.00 | 55 | 1011.5 |
| 20260831211711 | 75 | 170 | 4.3 | 12.2 | 0.00 | 0.00 | 0.00 | 54 | 1011.5 |
| 20260831211611 | 75 | 268 | 4.3 | 12.2 | 0.00 | 0.00 | 0.00 | 54 | 1011.5 |
| 20260831211512 | 75 | 229 | 3.5 | 11.3 | 0.00 | 0.00 | 0.00 | 55 | 1011.5 |
| 20260831211412 | 75 | 218 | 3.5 | 11.3 | 0.00 | 0.00 | 0.00 | 55 | 1011.4 |
| 20260831211306 | 75 | 235 | 4.3 | 11.3 | 0.00 | 0.00 | 0.00 | 55 | 1011.5 |
| 20260831211206 | 75 | 229 | 4.3 | 11.3 | 0.00 | 0.00 | 0.00 | 55 | 1011.5 |
| 20260831211106 | 74 | 238 | 4.3 | 11.3 | 0.00 | 0.00 | 0.00 | 54 | 1011.5 |
| 20260831211006 | 75 | 253 | 4.3 | 11.3 | 0.00 | 0.00 | 0.00 | 52 | 1011.5 |
| 20260831210904 | 75 | 233 | 4.3 | 11.3 | 0.00 | 0.00 | 0.00 | 52 | 1011.5 |
| 20260831210759 | 75 | 219 | 4.3 | 11.3 | 0.00 | 0.00 | 0.00 | 52 | 1011.5 |
| 20260831210700 | 75 | 259 | 4.3 | 11.3 | 0.00 | 0.00 | 0.00 | 51 | 1011.6 |
| 20260831210559 | 75 | 228 | 4.3 | 11.3 | 0.00 | 0.00 | 0.00 | 52 | 1011.6 |
| 20260831210458 | 75 | 260 | 4.3 | 9.6 | 0.00 | 0.00 | 0.00 | 53 | 1011.5 |
| 20260831210412 | 75 | 229 | 4.3 | 9.6 | 0.00 | 0.00 | 0.00 | 53 | 1011.5 |
| 20260831210255 | 75 | 163 | 3.5 | 9.6 | 0.00 | 0.00 | 0.00 | 54 | 1011.5 |
| 20260831210154 | 75 | 233 | 3.5 | 9.6 | 0.00 | 0.00 | 0.00 | 54 | 1011.5 |
| 20260831210055 | 74 | 222 | 4.3 | 9.6 | 0.00 | 0.00 | 0.00 | 53 | 1011.6 |
| 20260831205955 | 74 | 130 | 4.3 | 9.6 | 0.00 | 0.00 | 0.00 | 53 | 1011.6 |
| 20260831205853 | 74 | 248 | 4.3 | 10.4 | 0.00 | 0.00 | 0.00 | 53 | 1011.6 |
| 20260831205833 | 74 | 296 | 3.5 | 10.4 | 0.00 | 0.00 | 0.00 | 54 | 1011.5 |
| 20260831205748 | 74 | 219 | 4.3 | 10.4 | 0.00 | 0.00 | 0.00 | 53 | 1011.6 |
| 20260831205722 | 74 | 236 | 3.5 | 10.4 | 0.00 | 0.00 | 0.00 | 52 | 1011.6 |
| 20260831205546 | 75 | 241 | 3.5 | 10.4 | 0.00 | 0.00 | 0.00 | 53 | 1011.6 |
| 20260831205503 | 74 | 287 | 3.5 | 10.4 | 0.00 | 0.00 | 0.00 | 55 | 1011.5 |
| 20260831205452 | 74 | 296 | 3.5 | 10.4 | 0.00 | 0.00 | 0.00 | 54 | 1011.5 |
| 20260831205241 | 74 | 233 | 3.5 | 10.4 | 0.00 | 0.00 | 0.00 | 54 | 1011.5 |
| 20260831205140 | 75 | 240 | 3.5 | 10.4 | 0.00 | 0.00 | 0.00 | 53 | 1011.6 |
| 20260831205040 | 75 | 224 | 3.5 | 10.4 | 0.00 | 0.00 | 0.00 | 54 | 1011.6 |
| 20260831204940 | 75 | 250 | 3.5 | 10.4 | 0.00 | 0.00 | 0.00 | 54 | 1011.6 |
| 20260831204842 | 75 | 211 | 3.5 | 7.8 | 0.00 | 0.00 | 0.00 | 55 | 1011.6 |
| 20260831204736 | 75 | 255 | 3.5 | 7.8 | 0.00 | 0.00 | 0.00 | 55 | 1011.6 |
| 20260831204635 | 74 | 236 | 4.3 | 8.7 | 0.00 | 0.00 | 0.00 | 55 | 1011.6 |
| 20260831204552 | 75 | 243 | 4.3 | 8.7 | 0.00 | 0.00 | 0.00 | 54 | 1011.6 |
| 20260831204534 | 74 | 236 | 4.3 | 8.7 | 0.00 | 0.00 | 0.00 | 55 | 1011.6 |
| 20260831204450 | 74 | 222 | 4.3 | 8.7 | 0.00 | 0.00 | 0.00 | 54 | 1011.6 |
| 20260831204440 | 75 | 243 | 4.3 | 8.7 | 0.00 | 0.00 | 0.00 | 54 | 1011.6 |
| 20260831204231 | 75 | 215 | 4.3 | 8.7 | 0.00 | 0.00 | 0.00 | 53 | 1011.6 |
| 20260831204128 | 75 | 222 | 4.3 | 10.4 | 0.00 | 0.00 | 0.00 | 53 | 1011.6 |
| 20260831204048 | 74 | 221 | 3.5 | 10.4 | 0.00 | 0.00 | 0.00 | 54 | 1011.5 |
| 20260831204029 | 75 | 193 | 4.3 | 10.4 | 0.00 | 0.00 | 0.00 | 53 | 1011.6 |
| 20260831203944 | 74 | 217 | 3.5 | 10.4 | 0.00 | 0.00 | 0.00 | 53 | 1011.6 |
| 20260831203934 | 74 | 221 | 3.5 | 10.4 | 0.00 | 0.00 | 0.00 | 54 | 1011.5 |
| 20260831203724 | 74 | 215 | 3.5 | 10.4 | 0.00 | 0.00 | 0.00 | 53 | 1011.6 |
| 20260831203625 | 74 | 281 | 3.5 | 10.4 | 0.00 | 0.00 | 0.00 | 54 | 1011.6 |
| 20260831203525 | 74 | 226 | 3.5 | 10.4 | 0.00 | 0.00 | 0.00 | 54 | 1011.6 |
| 20260831203425 | 74 | 224 | 3.5 | 10.4 | 0.00 | 0.00 | 0.00 | 54 | 1011.5 |
| 20260831203324 | 74 | 232 | 3.5 | 10.4 | 0.00 | 0.00 | 0.00 | 53 | 1011.6 |
| 20260831203216 | 74 | 236 | 3.5 | 9.6 | 0.00 | 0.00 | 0.00 | 54 | 1011.7 |
| 20260831203117 | 74 | 214 | 2.6 | 8.7 | 0.00 | 0.00 | 0.00 | 54 | 1011.7 |
| 20260831203036 | 74 | 221 | 2.6 | 8.7 | 0.00 | 0.00 | 0.00 | 55 | 1011.7 |
| 20260831203016 | 74 | 262 | 2.6 | 8.7 | 0.00 | 0.00 | 0.00 | 54 | 1011.6 |
| 20260831202932 | 74 | 237 | 2.6 | 8.7 | 0.00 | 0.00 | 0.00 | 55 | 1011.6 |
| 20260831202922 | 74 | 221 | 2.6 | 8.7 | 0.00 | 0.00 | 0.00 | 55 | 1011.7 |
| 20260831202711 | 74 | 239 | 2.6 | 8.7 | 0.00 | 0.00 | 0.00 | 55 | 1011.7 |
| 20260831202611 | 74 | 256 | 3.5 | 8.7 | 0.00 | 0.00 | 0.00 | 54 | 1011.7 |
| 20260831202510 | 74 | 170 | 3.5 | 8.7 | 0.00 | 0.00 | 0.00 | 54 | 1011.7 |
| 20260831202411 | 74 | 263 | 3.5 | 8.7 | 0.00 | 0.00 | 0.00 | 56 | 1011.7 |
| 20260831202311 | 74 | 243 | 3.5 | 8.7 | 0.00 | 0.00 | 0.00 | 56 | 1011.7 |
| 20260831202204 | 74 | 252 | 3.5 | 8.7 | 0.00 | 0.00 | 0.00 | 57 | 1011.7 |
| 20260831202104 | 73 | 221 | 3.5 | 8.7 | 0.00 | 0.00 | 0.00 | 56 | 1011.7 |
| 20260831202006 | 73 | 256 | 3.5 | 8.7 | 0.00 | 0.00 | 0.00 | 55 | 1011.7 |
| 20260831201904 | 73 | 243 | 3.5 | 8.7 | 0.00 | 0.00 | 0.00 | 55 | 1011.7 |
| 20260831201805 | 73 | 160 | 3.5 | 8.7 | 0.00 | 0.00 | 0.00 | 54 | 1011.8 |
| 20260831201658 | 73 | 246 | 3.5 | 8.7 | 0.00 | 0.00 | 0.00 | 54 | 1011.7 |
| 20260831201559 | 73 | 236 | 3.5 | 8.7 | 0.00 | 0.00 | 0.00 | 53 | 1011.8 |
| 20260831201458 | 73 | 211 | 4.3 | 10.4 | 0.00 | 0.00 | 0.00 | 54 | 1011.8 |
| 20260831201359 | 73 | 81 | 3.5 | 10.4 | 0.00 | 0.00 | 0.00 | 55 | 1011.8 |
| 20260831201259 | 73 | 238 | 4.3 | 10.4 | 0.00 | 0.00 | 0.00 | 56 | 1011.8 |
| 20260831201156 | 73 | 231 | 4.3 | 10.4 | 0.00 | 0.00 | 0.00 | 58 | 1011.9 |
| 20260831201056 | 73 | 275 | 5.2 | 10.4 | 0.00 | 0.00 | 0.00 | 57 | 1011.9 |
| 20260831200954 | 73 | 233 | 5.2 | 10.4 | 0.00 | 0.00 | 0.00 | 57 | 1011.8 |
| 20260831200855 | 73 | 240 | 4.3 | 10.4 | 0.00 | 0.00 | 0.00 | 57 | 1011.9 |
| 20260831200753 | 73 | 198 | 4.3 | 10.4 | 0.00 | 0.00 | 0.00 | 57 | 1011.9 |
| 20260831200646 | 73 | 239 | 4.3 | 10.4 | 0.00 | 0.00 | 0.00 | 57 | 1011.9 |
| 20260831200546 | 73 | 250 | 3.5 | 10.4 | 0.00 | 0.00 | 0.00 | 57 | 1011.8 |
| 20260831200446 | 73 | 208 | 3.5 | 9.6 | 0.00 | 0.00 | 0.00 | 57 | 1011.9 |
| 20260831200347 | 73 | 235 | 2.6 | 8.7 | 0.00 | 0.00 | 0.00 | 56 | 1011.9 |
| 20260831200247 | 73 | 225 | 2.6 | 8.7 | 0.00 | 0.00 | 0.00 | 56 | 1011.9 |
| 20260831200141 | 74 | 235 | 2.6 | 8.7 | 0.00 | 0.00 | 0.00 | 56 | 1012.0 |
| 20260831200040 | 74 | 240 | 1.7 | 7.8 | 0.00 | 0.00 | 0.00 | 56 | 1011.9 |
| 20260831195940 | 74 | 250 | 1.7 | 7.8 | 0.00 | 0.00 | 0.00 | 56 | 1011.9 |
| 20260831195840 | 74 | 221 | 1.7 | 7.8 | 0.00 | 0.00 | 0.00 | 56 | 1012.0 |
| 20260831195741 | 73 | 264 | 1.7 | 7.8 | 0.00 | 0.00 | 0.00 | 56 | 1011.9 |
| 20260831195637 | 73 | 240 | 1.7 | 7.8 | 0.00 | 0.00 | 0.00 | 57 | 1012.0 |
| 20260831195534 | 73 | 210 | 1.7 | 9.6 | 0.00 | 0.00 | 0.00 | 58 | 1012.0 |
| 20260831195435 | 73 | 250 | 2.6 | 9.6 | 0.00 | 0.00 | 0.00 | 57 | 1012.0 |
| 20260831195335 | 73 | 259 | 1.7 | 9.6 | 0.00 | 0.00 | 0.00 | 57 | 1012.0 |
| 20260831195235 | 73 | 270 | 2.6 | 9.6 | 0.00 | 0.00 | 0.00 | 58 | 1012.0 |
| 20260831195134 | 73 | 316 | 2.6 | 9.6 | 0.00 | 0.00 | 0.00 | 59 | 1012.0 |
| 20260831195032 | 72 | 187 | 3.5 | 10.4 | 0.00 | 0.00 | 0.00 | 59 | 1012.0 |
| 20260831194954 | 71 | 238 | 4.3 | 11.3 | 0.00 | 0.00 | 0.00 | 60 | 1012.1 |
| 20260831194930 | 72 | 218 | 3.5 | 11.3 | 0.00 | 0.00 | 0.00 | 60 | 1012.0 |
| 20260831194843 | 72 | 194 | 4.3 | 11.3 | 0.00 | 0.00 | 0.00 | 60 | 1012.1 |
| 20260831194833 | 71 | 238 | 4.3 | 11.3 | 0.00 | 0.00 | 0.00 | 60 | 1012.1 |
| 20260831194622 | 71 | 246 | 5.2 | 12.2 | 0.00 | 0.00 | 0.00 | 59 | 1012.1 |
| 20260831194523 | 71 | 218 | 5.2 | 12.2 | 0.00 | 0.00 | 0.00 | 60 | 1012.2 |
| 20260831194422 | 71 | 276 | 4.3 | 12.2 | 0.00 | 0.00 | 0.00 | 60 | 1012.2 |
| 20260831194322 | 71 | 224 | 4.3 | 12.2 | 0.00 | 0.00 | 0.00 | 60 | 1012.2 |
| 20260831194223 | 71 | 255 | 4.3 | 12.2 | 0.00 | 0.00 | 0.00 | 59 | 1012.2 |
| 20260831194116 | 71 | 250 | 4.3 | 12.2 | 0.00 | 0.00 | 0.00 | 60 | 1012.2 |
| 20260831194016 | 71 | 239 | 5.2 | 12.2 | 0.00 | 0.00 | 0.00 | 60 | 1012.3 |
| 20260831193917 | 71 | 250 | 4.3 | 12.2 | 0.00 | 0.00 | 0.00 | 61 | 1012.2 |
| 20260831193816 | 71 | 207 | 4.3 | 12.2 | 0.00 | 0.00 | 0.00 | 60 | 1012.3 |
| 20260831193718 | 71 | 237 | 3.5 | 12.2 | 0.00 | 0.00 | 0.00 | 60 | 1012.3 |
| 20260831193610 | 71 | 233 | 3.5 | 11.3 | 0.00 | 0.00 | 0.00 | 62 | 1012.4 |
| 20260831193511 | 71 | 219 | 3.5 | 11.3 | 0.00 | 0.00 | 0.00 | 61 | 1012.4 |
| 20260831193410 | 71 | 233 | 3.5 | 11.3 | 0.00 | 0.00 | 0.00 | 61 | 1012.4 |
| 20260831193311 | 71 | 243 | 4.3 | 13.0 | 0.00 | 0.00 | 0.00 | 61 | 1012.4 |
| 20260831193211 | 71 | 219 | 4.3 | 13.0 | 0.00 | 0.00 | 0.00 | 60 | 1012.4 |
| 20260831193105 | 71 | 232 | 3.5 | 13.0 | 0.00 | 0.00 | 0.00 | 60 | 1012.4 |
| 20260831193006 | 71 | 241 | 3.5 | 13.0 | 0.00 | 0.00 | 0.00 | 61 | 1012.4 |
| 20260831192905 | 71 | 312 | 3.5 | 13.0 | 0.00 | 0.00 | 0.00 | 61 | 1012.4 |
| 20260831192804 | 70 | 224 | 4.3 | 13.0 | 0.00 | 0.00 | 0.00 | 61 | 1012.4 |
| 20260831192705 | 70 | 325 | 4.3 | 13.0 | 0.00 | 0.00 | 0.00 | 61 | 1012.4 |
| 20260831192600 | 70 | 246 | 4.3 | 13.0 | 0.00 | 0.00 | 0.00 | 61 | 1012.5 |
| 20260831192458 | 70 | 217 | 4.3 | 13.0 | 0.00 | 0.00 | 0.00 | 61 | 1012.5 |
| 20260831192427 | 70 | 253 | 3.5 | 10.4 | 0.00 | 0.00 | 0.00 | 62 | 1012.4 |
| 20260831192358 | 70 | 214 | 3.5 | 13.0 | 0.00 | 0.00 | 0.00 | 60 | 1012.4 |
| 20260831192316 | 70 | 229 | 3.5 | 10.4 | 0.00 | 0.00 | 0.00 | 61 | 1012.4 |
| 20260831192158 | 70 | 264 | 3.5 | 10.4 | 0.00 | 0.00 | 0.00 | 62 | 1012.4 |
| 20260831192055 | 70 | 235 | 4.3 | 10.4 | 0.00 | 0.00 | 0.00 | 62 | 1012.4 |
| 20260831191952 | 70 | 236 | 5.2 | 13.0 | 0.00 | 0.00 | 0.00 | 62 | 1012.5 |
| 20260831191853 | 70 | 226 | 5.2 | 13.0 | 0.00 | 0.00 | 0.00 | 62 | 1012.5 |
| 20260831191752 | 70 | 259 | 4.3 | 13.0 | 0.00 | 0.00 | 0.00 | 62 | 1012.5 |
| 20260831191705 | 70 | 246 | 5.2 | 13.0 | 0.00 | 0.00 | 0.00 | 63 | 1012.5 |
| 20260831191653 | 70 | 253 | 5.2 | 13.0 | 0.00 | 0.00 | 0.00 | 63 | 1012.5 |
| 20260831191546 | 70 | 264 | 5.2 | 13.0 | 0.00 | 0.00 | 0.00 | 63 | 1012.5 |
| 20260831191446 | 69 | 232 | 5.2 | 13.0 | 0.00 | 0.00 | 0.00 | 63 | 1012.4 |
| 20260831191347 | 69 | 239 | 5.2 | 13.0 | 0.00 | 0.00 | 0.00 | 63 | 1012.4 |
| 20260831191246 | 69 | 238 | 5.2 | 13.0 | 0.00 | 0.00 | 0.00 | 62 | 1012.4 |
| 20260831191206 | 69 | 224 | 4.3 | 13.0 | 0.00 | 0.00 | 0.00 | 62 | 1012.5 |
| 20260831191145 | 69 | 223 | 4.3 | 13.0 | 0.00 | 0.00 | 0.00 | 62 | 1012.5 |
| 20260831191042 | 70 | 232 | 4.3 | 13.0 | 0.00 | 0.00 | 0.00 | 62 | 1012.5 |
| 20260831190943 | 70 | 271 | 3.5 | 11.3 | 0.00 | 0.00 | 0.00 | 62 | 1012.5 |
| 20260831190842 | 70 | 222 | 3.5 | 11.3 | 0.00 | 0.00 | 0.00 | 62 | 1012.5 |
| 20260831190743 | 70 | 231 | 3.5 | 11.3 | 0.00 | 0.00 | 0.00 | 62 | 1012.4 |
| 20260831190705 | 70 | 240 | 3.5 | 11.3 | 0.00 | 0.00 | 0.00 | 62 | 1012.5 |
| 20260831190640 | 70 | 233 | 3.5 | 11.3 | 0.00 | 0.00 | 0.00 | 62 | 1012.5 |
| 20260831190534 | 70 | 295 | 3.5 | 11.3 | 0.00 | 0.00 | 0.00 | 63 | 1012.5 |
| 20260831190435 | 70 | 267 | 4.3 | 13.0 | 0.00 | 0.00 | 0.00 | 63 | 1012.5 |
| 20260831190426 | 69 | 211 | 4.3 | 13.0 | 0.00 | 0.00 | 0.00 | 63 | 1012.5 |
| 20260831190335 | 70 | 273 | 4.3 | 13.0 | 0.00 | 0.00 | 0.00 | 63 | 1012.5 |
| 20260831190316 | 70 | 225 | 3.5 | 13.0 | 0.00 | 0.00 | 0.00 | 64 | 1012.5 |
| 20260831190134 | 69 | 245 | 4.3 | 13.0 | 0.00 | 0.00 | 0.00 | 63 | 1012.5 |
| 20260831190028 | 69 | 289 | 4.3 | 13.0 | 0.00 | 0.00 | 0.00 | 63 | 1012.5 |
| 20260831185928 | 69 | 230 | 4.3 | 13.0 | 0.00 | 0.00 | 0.00 | 64 | 1012.5 |
| 20260831185829 | 69 | 250 | 4.3 | 13.0 | 0.00 | 0.00 | 0.00 | 64 | 1012.5 |
| 20260831185728 | 69 | 280 | 5.2 | 13.0 | 0.00 | 0.00 | 0.00 | 64 | 1012.5 |
| 20260831185710 | 69 | 222 | 5.2 | 13.0 | 0.00 | 0.00 | 0.00 | 64 | 1012.5 |
| 20260831185630 | 69 | 221 | 5.2 | 13.0 | 0.00 | 0.00 | 0.00 | 63 | 1012.5 |
| 20260831185524 | 69 | 239 | 5.2 | 13.0 | 0.00 | 0.00 | 0.00 | 63 | 1012.6 |
| 20260831185423 | 69 | 182 | 5.2 | 13.0 | 0.00 | 0.00 | 0.00 | 64 | 1012.6 |
| 20260831185323 | 69 | 286 | 5.2 | 13.0 | 0.00 | 0.00 | 0.00 | 64 | 1012.5 |
| 20260831185222 | 69 | 248 | 6.1 | 13.0 | 0.00 | 0.00 | 0.00 | 64 | 1012.5 |
| 20260831185206 | 69 | 291 | 6.1 | 13.0 | 0.00 | 0.00 | 0.00 | 64 | 1012.6 |
| 20260831185123 | 69 | 254 | 6.1 | 13.0 | 0.00 | 0.00 | 0.00 | 64 | 1012.6 |
| 20260831185016 | 68 | 291 | 6.1 | 13.0 | 0.00 | 0.00 | 0.00 | 64 | 1012.5 |
| 20260831184917 | 68 | 170 | 6.1 | 13.0 | 0.00 | 0.00 | 0.00 | 63 | 1012.5 |
| 20260831184816 | 68 | 218 | 6.1 | 13.0 | 0.00 | 0.00 | 0.00 | 64 | 1012.5 |
| 20260831184716 | 68 | 215 | 5.2 | 13.0 | 0.00 | 0.00 | 0.00 | 64 | 1012.6 |
| 20260831184704 | 68 | 257 | 6.1 | 13.0 | 0.00 | 0.00 | 0.00 | 64 | 1012.5 |
| 20260831184615 | 68 | 187 | 6.1 | 13.0 | 0.00 | 0.00 | 0.00 | 64 | 1012.5 |
| 20260831184510 | 68 | 231 | 5.2 | 13.0 | 0.00 | 0.00 | 0.00 | 64 | 1012.6 |
| 20260831184426 | 68 | 242 | 4.3 | 13.0 | 0.00 | 0.00 | 0.00 | 64 | 1012.6 |
| 20260831184411 | 68 | 224 | 5.2 | 13.0 | 0.00 | 0.00 | 0.00 | 64 | 1012.5 |
| 20260831184318 | 68 | 225 | 5.2 | 13.0 | 0.00 | 0.00 | 0.00 | 64 | 1012.5 |
| 20260831184310 | 68 | 253 | 4.3 | 13.0 | 0.00 | 0.00 | 0.00 | 64 | 1012.6 |
| 20260831184110 | 68 | 253 | 4.3 | 13.0 | 0.00 | 0.00 | 0.00 | 63 | 1012.5 |
| 20260831184006 | 68 | 243 | 4.3 | 10.4 | 0.00 | 0.00 | 0.00 | 64 | 1012.5 |
| 20260831183904 | 68 | 221 | 3.5 | 11.3 | 0.00 | 0.00 | 0.00 | 64 | 1012.5 |
| 20260831183804 | 68 | 192 | 3.5 | 11.3 | 0.00 | 0.00 | 0.00 | 63 | 1012.5 |
| 20260831183710 | 69 | 253 | 3.5 | 11.3 | 0.00 | 0.00 | 0.00 | 63 | 1012.5 |
| 20260831183704 | 69 | 246 | 3.5 | 11.3 | 0.00 | 0.00 | 0.00 | 63 | 1012.5 |
| 20260831183604 | 69 | 224 | 2.6 | 11.3 | 0.00 | 0.00 | 0.00 | 64 | 1012.5 |
| 20260831183500 | 68 | 186 | 3.5 | 11.3 | 0.00 | 0.00 | 0.00 | 64 | 1012.5 |
| 20260831183401 | 68 | 259 | 3.5 | 11.3 | 0.00 | 0.00 | 0.00 | 65 | 1012.5 |
| 20260831183300 | 68 | 292 | 3.5 | 11.3 | 0.00 | 0.00 | 0.00 | 65 | 1012.4 |
| 20260831183206 | 68 | 291 | 3.5 | 11.3 | 0.00 | 0.00 | 0.00 | 66 | 1012.5 |
| 20260831183200 | 68 | 291 | 3.5 | 11.3 | 0.00 | 0.00 | 0.00 | 66 | 1012.5 |
| 20260831183058 | 68 | 226 | 4.3 | 11.3 | 0.00 | 0.00 | 0.00 | 66 | 1012.5 |
| 20260831182955 | 67 | 253 | 4.3 | 11.3 | 0.00 | 0.00 | 0.00 | 66 | 1012.5 |
| 20260831182853 | 67 | 294 | 5.2 | 13.9 | 0.00 | 0.00 | 0.00 | 67 | 1012.5 |
| 20260831182752 | 67 | 224 | 5.2 | 13.9 | 0.00 | 0.00 | 0.00 | 66 | 1012.5 |
| 20260831182704 | 67 | 204 | 5.2 | 13.9 | 0.00 | 0.00 | 0.00 | 67 | 1012.5 |
| 20260831182653 | 67 | 229 | 5.2 | 13.9 | 0.00 | 0.00 | 0.00 | 67 | 1012.5 |
| 20260831182552 | 67 | 183 | 5.2 | 13.9 | 0.00 | 0.00 | 0.00 | 67 | 1012.5 |
| 20260831182453 | 67 | 260 | 5.2 | 13.9 | 0.00 | 0.00 | 0.00 | 67 | 1012.5 |
| 20260831182350 | 67 | 214 | 5.2 | 13.9 | 0.00 | 0.00 | 0.00 | 66 | 1012.5 |
| 20260831182250 | 67 | 256 | 5.2 | 13.9 | 0.00 | 0.00 | 0.00 | 67 | 1012.4 |
| 20260831182203 | 67 | 246 | 5.2 | 13.9 | 0.00 | 0.00 | 0.00 | 67 | 1012.5 |
| 20260831182148 | 67 | 250 | 5.2 | 13.9 | 0.00 | 0.00 | 0.00 | 67 | 1012.5 |
| 20260831182049 | 67 | 219 | 5.2 | 13.9 | 0.00 | 0.00 | 0.00 | 67 | 1012.5 |
| 20260831181948 | 67 | 235 | 4.3 | 13.9 | 0.00 | 0.00 | 0.00 | 66 | 1012.5 |
| 20260831181927 | 67 | 238 | 4.3 | 11.3 | 0.00 | 0.00 | 0.00 | 67 | 1012.6 |
| 20260831181849 | 67 | 242 | 4.3 | 13.0 | 0.00 | 0.00 | 0.00 | 66 | 1012.5 |
| 20260831181814 | 67 | 300 | 3.5 | 13.0 | 0.00 | 0.00 | 0.00 | 67 | 1012.6 |
| 20260831181647 | 67 | 229 | 4.3 | 11.3 | 0.00 | 0.00 | 0.00 | 68 | 1012.6 |
| 20260831181547 | 67 | 266 | 4.3 | 11.3 | 0.00 | 0.00 | 0.00 | 68 | 1012.6 |
| 20260831181444 | 67 | 226 | 3.5 | 11.3 | 0.00 | 0.00 | 0.00 | 68 | 1012.6 |
| 20260831181344 | 67 | 232 | 3.5 | 11.3 | 0.00 | 0.00 | 0.00 | 68 | 1012.6 |
| 20260831181245 | 67 | 223 | 4.3 | 11.3 | 0.00 | 0.00 | 0.00 | 67 | 1012.7 |
| 20260831181204 | 67 | 248 | 3.5 | 11.3 | 0.00 | 0.00 | 0.00 | 67 | 1012.6 |
| 20260831181145 | 67 | 226 | 3.5 | 11.3 | 0.00 | 0.00 | 0.00 | 67 | 1012.6 |
| 20260831181045 | 67 | 245 | 3.5 | 11.3 | 0.00 | 0.00 | 0.00 | 68 | 1012.7 |
| 20260831180945 | 67 | 229 | 3.5 | 11.3 | 0.00 | 0.00 | 0.00 | 68 | 1012.7 |
| 20260831180843 | 67 | 221 | 4.3 | 11.3 | 0.00 | 0.00 | 0.00 | 68 | 1012.7 |
| 20260831180741 | 66 | 233 | 4.3 | 11.3 | 0.00 | 0.00 | 0.00 | 68 | 1012.7 |
| 20260831180702 | 66 | 243 | 3.5 | 11.3 | 0.00 | 0.00 | 0.00 | 68 | 1012.7 |
| 20260831180640 | 66 | 243 | 3.5 | 11.3 | 0.00 | 0.00 | 0.00 | 68 | 1012.7 |
| 20260831180541 | 66 | 238 | 3.5 | 10.4 | 0.00 | 0.00 | 0.00 | 68 | 1012.6 |
| 20260831180440 | 66 | 248 | 4.3 | 10.4 | 0.00 | 0.00 | 0.00 | 68 | 1012.6 |
| 20260831180338 | 66 | 214 | 4.3 | 10.4 | 0.00 | 0.00 | 0.00 | 67 | 1012.7 |
| 20260831180234 | 67 | 253 | 3.5 | 10.4 | 0.00 | 0.00 | 0.00 | 67 | 1012.6 |
| 20260831180157 | 67 | 239 | 3.5 | 9.6 | 0.00 | 0.00 | 0.00 | 68 | 1012.7 |
| 20260831180133 | 67 | 250 | 3.5 | 9.6 | 0.00 | 0.00 | 0.00 | 68 | 1012.7 |
| 20260831180033 | 67 | 239 | 3.5 | 9.6 | 0.00 | 0.00 | 0.00 | 68 | 1012.7 |
| 20260831175933 | 67 | 253 | 3.5 | 10.4 | 0.00 | 0.00 | 0.00 | 67 | 1012.7 |
| 20260831175832 | 67 | 229 | 3.5 | 10.4 | 0.00 | 0.00 | 0.00 | 68 | 1012.7 |
| 20260831175726 | 66 | 235 | 3.5 | 10.4 | 0.00 | 0.00 | 0.00 | 68 | 1012.6 |
| 20260831175652 | 66 | 290 | 3.5 | 10.4 | 0.00 | 0.00 | 0.00 | 68 | 1012.7 |
| 20260831175628 | 66 | 208 | 3.5 | 10.4 | 0.00 | 0.00 | 0.00 | 68 | 1012.7 |
| 20260831175527 | 66 | 266 | 4.3 | 10.4 | 0.00 | 0.00 | 0.00 | 68 | 1012.6 |
| 20260831175426 | 66 | 277 | 4.3 | 10.4 | 0.00 | 0.00 | 0.00 | 68 | 1012.7 |
| 20260831175326 | 66 | 276 | 4.3 | 10.4 | 0.00 | 0.00 | 0.00 | 68 | 1012.6 |
| 20260831175222 | 66 | 243 | 4.3 | 11.3 | 0.00 | 0.00 | 0.00 | 69 | 1012.7 |
| 20260831175145 | 66 | 227 | 4.3 | 11.3 | 0.00 | 0.00 | 0.00 | 69 | 1012.6 |
| 20260831175121 | 66 | 217 | 4.3 | 11.3 | 0.00 | 0.00 | 0.00 | 69 | 1012.6 |
| 20260831175021 | 66 | 240 | 4.3 | 11.3 | 0.00 | 0.00 | 0.00 | 69 | 1012.6 |
| 20260831174920 | 66 | 242 | 4.3 | 11.3 | 0.00 | 0.00 | 0.00 | 69 | 1012.6 |
| 20260831174820 | 66 | 248 | 4.3 | 11.3 | 0.00 | 0.00 | 0.00 | 69 | 1012.5 |
| 20260831174715 | 66 | 221 | 4.3 | 11.3 | 0.00 | 0.00 | 0.00 | 69 | 1012.5 |
| 20260831174639 | 66 | 205 | 3.5 | 11.3 | 0.00 | 0.00 | 0.00 | 69 | 1012.5 |
| 20260831174615 | 66 | 253 | 3.5 | 11.3 | 0.00 | 0.00 | 0.00 | 69 | 1012.5 |
| 20260831174515 | 66 | 217 | 3.5 | 11.3 | 0.00 | 0.00 | 0.00 | 70 | 1012.5 |
| 20260831174415 | 66 | 228 | 3.5 | 11.3 | 0.00 | 0.00 | 0.00 | 70 | 1012.5 |
| 20260831174314 | 65 | 256 | 3.5 | 11.3 | 0.00 | 0.00 | 0.00 | 70 | 1012.5 |
| 20260831174208 | 65 | 232 | 3.5 | 10.4 | 0.00 | 0.00 | 0.00 | 70 | 1012.4 |
| 20260831174133 | 65 | 201 | 3.5 | 10.4 | 0.00 | 0.00 | 0.00 | 70 | 1012.4 |
| 20260831174108 | 65 | 238 | 3.5 | 10.4 | 0.00 | 0.00 | 0.00 | 70 | 1012.5 |
| 20260831174009 | 65 | 281 | 4.3 | 11.3 | 0.00 | 0.00 | 0.00 | 70 | 1012.4 |
| 20260831173908 | 65 | 236 | 4.3 | 13.0 | 0.00 | 0.00 | 0.00 | 70 | 1012.5 |
| 20260831173852 | 65 | 278 | 5.2 | 13.0 | 0.00 | 0.00 | 0.00 | 71 | 1012.5 |
| 20260831173809 | 65 | 233 | 4.3 | 13.0 | 0.00 | 0.00 | 0.00 | 70 | 1012.5 |
| 20260831173741 | 65 | 311 | 5.2 | 13.0 | 0.00 | 0.00 | 0.00 | 70 | 1012.5 |
| 20260831173602 | 65 | 256 | 5.2 | 13.0 | 0.00 | 0.00 | 0.00 | 71 | 1012.5 |
| 20260831173505 | 65 | 287 | 5.2 | 13.0 | 0.00 | 0.00 | 0.00 | 71 | 1012.5 |
| 20260831173402 | 65 | 235 | 5.2 | 13.0 | 0.00 | 0.00 | 0.00 | 71 | 1012.5 |
| 20260831173301 | 65 | 256 | 5.2 | 13.0 | 0.00 | 0.00 | 0.00 | 71 | 1012.5 |
| 20260831173156 | 65 | 264 | 5.2 | 13.0 | 0.00 | 0.00 | 0.00 | 71 | 1012.6 |
| 20260831173121 | 65 | 249 | 5.2 | 13.0 | 0.00 | 0.00 | 0.00 | 70 | 1012.6 |
| 20260831173056 | 65 | 242 | 4.3 | 13.0 | 0.00 | 0.00 | 0.00 | 70 | 1012.6 |
| 20260831172957 | 65 | 208 | 4.3 | 13.0 | 0.00 | 0.00 | 0.00 | 71 | 1012.5 |
| 20260831172856 | 65 | 225 | 3.5 | 8.7 | 0.00 | 0.00 | 0.00 | 71 | 1012.5 |
| 20260831172756 | 65 | 267 | 4.3 | 9.6 | 0.00 | 0.00 | 0.00 | 71 | 1012.5 |
| 20260831172650 | 65 | 222 | 3.5 | 9.6 | 0.00 | 0.00 | 0.00 | 72 | 1012.5 |
| 20260831172615 | 65 | 217 | 3.5 | 9.6 | 0.00 | 0.00 | 0.00 | 72 | 1012.6 |
| 20260831172550 | 65 | 225 | 3.5 | 9.6 | 0.00 | 0.00 | 0.00 | 72 | 1012.6 |
| 20260831172450 | 65 | 193 | 3.5 | 9.6 | 0.00 | 0.00 | 0.00 | 72 | 1012.5 |
| 20260831172351 | 65 | 188 | 4.3 | 9.6 | 0.00 | 0.00 | 0.00 | 71 | 1012.5 |
| 20260831172250 | 65 | 250 | 4.3 | 12.2 | 0.00 | 0.00 | 0.00 | 72 | 1012.4 |
| 20260831172144 | 65 | 235 | 4.3 | 12.2 | 0.00 | 0.00 | 0.00 | 73 | 1012.4 |
| 20260831172109 | 65 | 242 | 5.2 | 12.2 | 0.00 | 0.00 | 0.00 | 73 | 1012.4 |
| 20260831172044 | 64 | 233 | 5.2 | 12.2 | 0.00 | 0.00 | 0.00 | 73 | 1012.4 |
| 20260831171945 | 64 | 257 | 5.2 | 12.2 | 0.00 | 0.00 | 0.00 | 73 | 1012.4 |
| 20260831171845 | 64 | 245 | 5.2 | 12.2 | 0.00 | 0.00 | 0.00 | 72 | 1012.4 |
| 20260831171744 | 64 | 269 | 5.2 | 12.2 | 0.00 | 0.00 | 0.00 | 73 | 1012.5 |
| 20260831171641 | 64 | 203 | 5.2 | 12.2 | 0.00 | 0.00 | 0.00 | 73 | 1012.4 |
| 20260831171603 | 64 | 225 | 5.2 | 12.2 | 0.00 | 0.00 | 0.00 | 73 | 1012.4 |
| 20260831171541 | 64 | 155 | 5.2 | 12.2 | 0.00 | 0.00 | 0.00 | 73 | 1012.4 |
| 20260831171441 | 64 | 224 | 5.2 | 12.2 | 0.00 | 0.00 | 0.00 | 73 | 1012.4 |
| 20260831171340 | 64 | 271 | 5.2 | 12.2 | 0.00 | 0.00 | 0.00 | 73 | 1012.4 |
| 20260831171238 | 64 | 256 | 4.3 | 10.4 | 0.00 | 0.00 | 0.00 | 73 | 1012.4 |
| 20260831171132 | 64 | 211 | 4.3 | 10.4 | 0.00 | 0.00 | 0.00 | 73 | 1012.4 |
| 20260831171058 | 64 | 245 | 3.5 | 10.4 | 0.00 | 0.00 | 0.00 | 73 | 1012.4 |
| 20260831171032 | 64 | 250 | 3.5 | 10.4 | 0.00 | 0.00 | 0.00 | 73 | 1012.4 |
| 20260831170932 | 64 | 257 | 3.5 | 10.4 | 0.00 | 0.00 | 0.00 | 73 | 1012.4 |
| 20260831170832 | 64 | 253 | 3.5 | 10.4 | 0.00 | 0.00 | 0.00 | 73 | 1012.4 |
| 20260831170815 | 64 | 276 | 3.5 | 10.4 | 0.00 | 0.00 | 0.00 | 74 | 1012.4 |
| 20260831170732 | 64 | 239 | 3.5 | 10.4 | 0.00 | 0.00 | 0.00 | 73 | 1012.4 |
| 20260831170705 | 64 | 256 | 3.5 | 10.4 | 0.00 | 0.00 | 0.00 | 74 | 1012.4 |
| 20260831170526 | 64 | 248 | 3.5 | 10.4 | 0.00 | 0.00 | 0.00 | 74 | 1012.4 |
| 20260831170426 | 64 | 246 | 4.3 | 10.4 | 0.00 | 0.00 | 0.00 | 74 | 1012.3 |
| 20260831170326 | 64 | 233 | 4.3 | 13.9 | 0.00 | 0.00 | 0.00 | 74 | 1012.4 |
| 20260831170225 | 64 | 226 | 4.3 | 13.9 | 0.00 | 0.00 | 0.00 | 74 | 1012.3 |
| 20260831170123 | 64 | 277 | 4.3 | 13.9 | 0.00 | 0.00 | 0.00 | 75 | 1012.4 |
| 20260831170058 | 64 | 268 | 4.3 | 13.9 | 0.00 | 0.00 | 0.00 | 74 | 1012.3 |
| 20260831170021 | 64 | 281 | 4.3 | 13.9 | 0.00 | 0.00 | 0.00 | 74 | 1012.3 |
| 20260831165921 | 64 | 298 | 4.3 | 13.9 | 0.00 | 0.00 | 0.00 | 74 | 1012.3 |
| 20260831165820 | 64 | 248 | 4.3 | 13.9 | 0.00 | 0.00 | 0.00 | 73 | 1012.4 |
| 20260831165720 | 64 | 231 | 3.5 | 13.9 | 0.00 | 0.00 | 0.00 | 74 | 1012.3 |
| 20260831165615 | 64 | 282 | 3.5 | 13.9 | 0.00 | 0.00 | 0.00 | 74 | 1012.3 |
| 20260831165539 | 64 | 226 | 3.5 | 13.9 | 0.00 | 0.00 | 0.00 | 73 | 1012.3 |
| 20260831165514 | 64 | 260 | 3.5 | 13.9 | 0.00 | 0.00 | 0.00 | 73 | 1012.3 |
| 20260831165414 | 64 | 231 | 3.5 | 13.9 | 0.00 | 0.00 | 0.00 | 72 | 1012.3 |
| 20260831165314 | 64 | 203 | 2.6 | 9.6 | 0.00 | 0.00 | 0.00 | 73 | 1012.3 |
| 20260831165255 | 64 | 245 | 3.5 | 9.6 | 0.00 | 0.00 | 0.00 | 75 | 1012.3 |
| 20260831165213 | 64 | 224 | 3.5 | 7.8 | 0.00 | 0.00 | 0.00 | 75 | 1012.2 |
| 20260831165145 | 64 | 228 | 3.5 | 9.6 | 0.00 | 0.00 | 0.00 | 75 | 1012.3 |
| 20260831165009 | 64 | 269 | 4.3 | 9.6 | 0.00 | 0.00 | 0.00 | 75 | 1012.2 |
| 20260831164908 | 64 | 235 | 4.3 | 10.4 | 0.00 | 0.00 | 0.00 | 75 | 1012.3 |
| 20260831164808 | 63 | 228 | 4.3 | 10.4 | 0.00 | 0.00 | 0.00 | 75 | 1012.2 |
| 20260831164709 | 63 | 214 | 4.3 | 10.4 | 0.00 | 0.00 | 0.00 | 75 | 1012.3 |
| 20260831164602 | 63 | 210 | 4.3 | 10.4 | 0.00 | 0.00 | 0.00 | 75 | 1012.3 |
| 20260831164527 | 63 | 245 | 4.3 | 10.4 | 0.00 | 0.00 | 0.00 | 75 | 1012.3 |
| 20260831164505 | 63 | 275 | 3.5 | 10.4 | 0.00 | 0.00 | 0.00 | 75 | 1012.3 |
| 20260831164402 | 63 | 284 | 3.5 | 10.4 | 0.00 | 0.00 | 0.00 | 76 | 1012.3 |
| 20260831164302 | 63 | 266 | 4.3 | 10.4 | 0.00 | 0.00 | 0.00 | 76 | 1012.3 |
| 20260831164202 | 63 | 245 | 3.5 | 10.4 | 0.00 | 0.00 | 0.00 | 75 | 1012.3 |
| 20260831164057 | 63 | 248 | 4.3 | 12.2 | 0.00 | 0.00 | 0.00 | 75 | 1012.3 |
| 20260831164022 | 63 | 249 | 4.3 | 12.2 | 0.00 | 0.00 | 0.00 | 75 | 1012.3 |
| 20260831164009 | 63 | 219 | 4.3 | 12.2 | 0.00 | 0.00 | 0.00 | 76 | 1012.2 |
| 20260831163957 | 63 | 246 | 3.5 | 12.2 | 0.00 | 0.00 | 0.00 | 75 | 1012.3 |
| 20260831163856 | 63 | 239 | 3.5 | 12.2 | 0.00 | 0.00 | 0.00 | 75 | 1012.3 |
| 20260831163846 | 63 | 243 | 3.5 | 12.2 | 0.00 | 0.00 | 0.00 | 75 | 1012.2 |
| 20260831163656 | 63 | 273 | 4.3 | 12.2 | 0.00 | 0.00 | 0.00 | 76 | 1012.2 |
| 20260831163626 | 63 | 262 | 4.3 | 12.2 | 0.00 | 0.00 | 0.00 | 76 | 1012.2 |
| 20260831163450 | 63 | 231 | 4.3 | 12.2 | 0.00 | 0.00 | 0.00 | 76 | 1012.2 |
| 20260831163350 | 63 | 210 | 5.2 | 12.2 | 0.00 | 0.00 | 0.00 | 77 | 1012.2 |
| 20260831163251 | 63 | 201 | 5.2 | 12.2 | 0.00 | 0.00 | 0.00 | 76 | 1012.2 |
| 20260831163150 | 63 | 264 | 5.2 | 12.2 | 0.00 | 0.00 | 0.00 | 76 | 1012.1 |
| 20260831163044 | 63 | 218 | 4.3 | 9.6 | 0.00 | 0.00 | 0.00 | 76 | 1012.2 |
| 20260831163009 | 63 | 238 | 4.3 | 9.6 | 0.00 | 0.00 | 0.00 | 76 | 1012.1 |
| 20260831162944 | 63 | 212 | 4.3 | 9.6 | 0.00 | 0.00 | 0.00 | 77 | 1012.1 |
| 20260831162845 | 63 | 232 | 4.3 | 8.7 | 0.00 | 0.00 | 0.00 | 77 | 1012.1 |
| 20260831162744 | 63 | 287 | 4.3 | 14.8 | 0.00 | 0.00 | 0.00 | 77 | 1012.1 |
| 20260831162725 | 63 | 240 | 3.5 | 14.8 | 0.00 | 0.00 | 0.00 | 77 | 1012.2 |
| 20260831162646 | 63 | 304 | 4.3 | 14.8 | 0.00 | 0.00 | 0.00 | 77 | 1012.2 |
| 20260831162616 | 63 | 260 | 4.3 | 14.8 | 0.00 | 0.00 | 0.00 | 77 | 1012.1 |
| 20260831162438 | 63 | 264 | 3.5 | 14.8 | 0.00 | 0.00 | 0.00 | 76 | 1012.2 |
| 20260831162338 | 63 | 239 | 3.5 | 14.8 | 0.00 | 0.00 | 0.00 | 76 | 1012.2 |
| 20260831162239 | 63 | 245 | 3.5 | 14.8 | 0.00 | 0.00 | 0.00 | 76 | 1012.2 |
| 20260831162218 | 63 | 231 | 3.5 | 14.8 | 0.00 | 0.00 | 0.00 | 77 | 1012.2 |
| 20260831162138 | 63 | 266 | 3.5 | 14.8 | 0.00 | 0.00 | 0.00 | 76 | 1012.2 |
| 20260831162107 | 63 | 253 | 3.5 | 14.8 | 0.00 | 0.00 | 0.00 | 77 | 1012.2 |
| 20260831161932 | 63 | 245 | 3.5 | 14.8 | 0.00 | 0.00 | 0.00 | 76 | 1012.2 |
| 20260831161832 | 63 | 249 | 3.5 | 14.8 | 0.00 | 0.00 | 0.00 | 76 | 1012.2 |
| 20260831161733 | 63 | 205 | 3.5 | 9.6 | 0.00 | 0.00 | 0.00 | 77 | 1012.2 |
| 20260831161631 | 63 | 242 | 3.5 | 9.6 | 0.00 | 0.00 | 0.00 | 77 | 1012.2 |
| 20260831161528 | 63 | 273 | 3.5 | 9.6 | 0.00 | 0.00 | 0.00 | 77 | 1012.2 |
| 20260831161451 | 63 | 222 | 3.5 | 9.6 | 0.00 | 0.00 | 0.00 | 77 | 1012.2 |
| 20260831161426 | 62 | 228 | 3.5 | 9.6 | 0.00 | 0.00 | 0.00 | 77 | 1012.2 |
| 20260831161326 | 62 | 236 | 3.5 | 9.6 | 0.00 | 0.00 | 0.00 | 77 | 1012.1 |
| 20260831161226 | 62 | 259 | 4.3 | 9.6 | 0.00 | 0.00 | 0.00 | 78 | 1012.1 |
| 20260831161126 | 62 | 218 | 4.3 | 9.6 | 0.00 | 0.00 | 0.00 | 78 | 1012.1 |
| 20260831161021 | 62 | 294 | 4.3 | 10.4 | 0.00 | 0.00 | 0.00 | 78 | 1012.2 |
| 20260831160952 | 62 | 218 | 4.3 | 10.4 | 0.00 | 0.00 | 0.00 | 78 | 1012.2 |
| 20260831160920 | 62 | 232 | 4.3 | 10.4 | 0.00 | 0.00 | 0.00 | 78 | 1012.2 |
| 20260831160820 | 62 | 232 | 3.5 | 10.4 | 0.00 | 0.00 | 0.00 | 78 | 1012.1 |
| 20260831160727 | 62 | 250 | 4.3 | 11.3 | 0.00 | 0.00 | 0.00 | 78 | 1012.2 |
| 20260831160721 | 62 | 239 | 3.5 | 10.4 | 0.00 | 0.00 | 0.00 | 79 | 1012.2 |
| 20260831160623 | 62 | 228 | 4.3 | 11.3 | 0.00 | 0.00 | 0.00 | 78 | 1012.2 |
| 20260831160615 | 62 | 219 | 4.3 | 11.3 | 0.00 | 0.00 | 0.00 | 78 | 1012.2 |
| 20260831160414 | 62 | 193 | 4.3 | 11.3 | 0.00 | 0.00 | 0.00 | 78 | 1012.2 |
| 20260831160314 | 62 | 238 | 3.5 | 11.3 | 0.00 | 0.00 | 0.00 | 79 | 1012.2 |
| 20260831160215 | 62 | 229 | 3.5 | 11.3 | 0.00 | 0.00 | 0.00 | 79 | 1012.1 |
| 20260831160114 | 62 | 235 | 3.5 | 11.3 | 0.00 | 0.00 | 0.00 | 79 | 1012.1 |
| 20260831160009 | 62 | 135 | 3.5 | 13.0 | 0.00 | 0.00 | 0.00 | 79 | 1012.1 |
| 20260831155956 | 61 | 176 | 3.5 | 13.0 | 0.00 | 0.00 | 0.00 | 79 | 1012.1 |
| 20260831155908 | 61 | 270 | 4.3 | 13.0 | 0.00 | 0.00 | 0.00 | 79 | 1012.1 |
| 20260831155808 | 61 | 249 | 4.3 | 13.0 | 0.00 | 0.00 | 0.00 | 79 | 1012.2 |
| 20260831155709 | 61 | 253 | 4.3 | 13.0 | 0.00 | 0.00 | 0.00 | 79 | 1012.2 |
| 20260831155608 | 61 | 226 | 4.3 | 13.0 | 0.00 | 0.00 | 0.00 | 79 | 1012.1 |
| 20260831155507 | 61 | 248 | 4.3 | 13.0 | 0.00 | 0.00 | 0.00 | 80 | 1012.1 |
| 20260831155452 | 61 | 225 | 4.3 | 13.0 | 0.00 | 0.00 | 0.00 | 80 | 1012.1 |
| 20260831155407 | 61 | 321 | 5.2 | 13.0 | 0.00 | 0.00 | 0.00 | 80 | 1012.1 |
| 20260831155306 | 61 | 236 | 5.2 | 13.0 | 0.00 | 0.00 | 0.00 | 80 | 1012.1 |
| 20260831155204 | 61 | 245 | 6.1 | 13.0 | 0.00 | 0.00 | 0.00 | 80 | 1012.1 |
| 20260831155105 | 61 | 232 | 6.1 | 13.0 | 0.00 | 0.00 | 0.00 | 80 | 1012.1 |
| 20260831155005 | 61 | 233 | 6.1 | 13.0 | 0.00 | 0.00 | 0.00 | 81 | 1012.1 |
| 20260831154952 | 61 | 207 | 6.1 | 13.0 | 0.00 | 0.00 | 0.00 | 81 | 1012.1 |
| 20260831154904 | 61 | 247 | 6.1 | 13.0 | 0.00 | 0.00 | 0.00 | 80 | 1012.2 |
| 20260831154805 | 61 | 218 | 6.1 | 13.0 | 0.00 | 0.00 | 0.00 | 80 | 1012.2 |
| 20260831154705 | 61 | 238 | 6.1 | 13.0 | 0.00 | 0.00 | 0.00 | 81 | 1012.1 |
| 20260831154604 | 61 | 250 | 6.1 | 13.0 | 0.00 | 0.00 | 0.00 | 81 | 1012.1 |
| 20260831154504 | 61 | 240 | 5.2 | 11.3 | 0.00 | 0.00 | 0.00 | 81 | 1012.1 |
| 20260831154451 | 61 | 276 | 5.2 | 11.3 | 0.00 | 0.00 | 0.00 | 81 | 1012.1 |
| 20260831154404 | 61 | 255 | 5.2 | 11.3 | 0.00 | 0.00 | 0.00 | 81 | 1012.1 |
| 20260831154304 | 61 | 224 | 5.2 | 11.3 | 0.00 | 0.00 | 0.00 | 81 | 1012.1 |
| 20260831154204 | 61 | 235 | 5.2 | 11.3 | 0.00 | 0.00 | 0.00 | 81 | 1012.1 |
| 20260831154105 | 61 | 231 | 4.3 | 11.3 | 0.00 | 0.00 | 0.00 | 80 | 1012.1 |
| 20260831154004 | 61 | 266 | 4.3 | 10.4 | 0.00 | 0.00 | 0.00 | 80 | 1012.1 |
| 20260831153950 | 61 | 224 | 4.3 | 10.4 | 0.00 | 0.00 | 0.00 | 80 | 1012.1 |
| 20260831153903 | 61 | 235 | 4.3 | 10.4 | 0.00 | 0.00 | 0.00 | 80 | 1012.1 |
| 20260831153759 | 61 | 201 | 3.5 | 10.4 | 0.00 | 0.00 | 0.00 | 80 | 1012.1 |
| 20260831153717 | 61 | 259 | 3.5 | 10.4 | 0.00 | 0.00 | 0.00 | 81 | 1012.1 |
| 20260831153658 | 61 | 252 | 3.5 | 10.4 | 0.00 | 0.00 | 0.00 | 81 | 1012.1 |
| 20260831153605 | 61 | 230 | 3.5 | 10.4 | 0.00 | 0.00 | 0.00 | 81 | 1012.1 |
| 20260831153556 | 61 | 233 | 3.5 | 10.4 | 0.00 | 0.00 | 0.00 | 81 | 1012.1 |
| 20260831153358 | 61 | 219 | 3.5 | 10.4 | 0.00 | 0.00 | 0.00 | 81 | 1012.1 |
| 20260831153252 | 61 | 248 | 3.5 | 10.4 | 0.00 | 0.00 | 0.00 | 81 | 1012.1 |
| 20260831153153 | 61 | 253 | 3.5 | 10.4 | 0.00 | 0.00 | 0.00 | 80 | 1012.1 |
| 20260831153054 | 61 | 248 | 3.5 | 10.4 | 0.00 | 0.00 | 0.00 | 81 | 1012.1 |
| 20260831152956 | 61 | 245 | 3.5 | 10.4 | 0.00 | 0.00 | 0.00 | 81 | 1012.1 |
| 20260831152950 | 61 | 232 | 3.5 | 10.4 | 0.00 | 0.00 | 0.00 | 81 | 1012.1 |
| 20260831152852 | 61 | 240 | 3.5 | 10.4 | 0.00 | 0.00 | 0.00 | 81 | 1012.1 |
| 20260831152750 | 61 | 218 | 3.5 | 10.4 | 0.00 | 0.00 | 0.00 | 81 | 1012.1 |
| 20260831152650 | 61 | 238 | 2.6 | 10.4 | 0.00 | 0.00 | 0.00 | 82 | 1012.1 |
| 20260831152550 | 60 | 250 | 3.5 | 10.4 | 0.00 | 0.00 | 0.00 | 82 | 1012.0 |
| 20260831152449 | 60 | 280 | 3.5 | 10.4 | 0.00 | 0.00 | 0.00 | 82 | 1012.0 |
| 20260831152345 | 60 | 231 | 3.5 | 10.4 | 0.00 | 0.00 | 0.00 | 82 | 1012.0 |
| 20260831152240 | 60 | 264 | 2.6 | 10.4 | 0.00 | 0.00 | 0.00 | 81 | 1012.0 |
| 20260831152141 | 60 | 238 | 2.6 | 8.7 | 0.00 | 0.00 | 0.00 | 82 | 1012.0 |
| 20260831152040 | 60 | 239 | 2.6 | 8.7 | 0.00 | 0.00 | 0.00 | 82 | 1012.0 |
| 20260831151948 | 60 | 264 | 3.5 | 8.7 | 0.00 | 0.00 | 0.00 | 82 | 1012.0 |
| 20260831151941 | 60 | 266 | 3.5 | 8.7 | 0.00 | 0.00 | 0.00 | 82 | 1012.0 |
| 20260831151840 | 60 | 340 | 3.5 | 9.6 | 0.00 | 0.00 | 0.00 | 82 | 1012.0 |
| 20260831151737 | 60 | 203 | 3.5 | 9.6 | 0.00 | 0.00 | 0.00 | 82 | 1012.0 |
| 20260831151635 | 60 | 236 | 3.5 | 9.6 | 0.00 | 0.00 | 0.00 | 83 | 1012.0 |
| 20260831151535 | 60 | 252 | 3.5 | 9.6 | 0.00 | 0.00 | 0.00 | 83 | 1012.0 |
| 20260831151446 | 60 | 233 | 4.3 | 9.6 | 0.00 | 0.00 | 0.00 | 83 | 1012.0 |
| 20260831151434 | 60 | 271 | 4.3 | 9.6 | 0.00 | 0.00 | 0.00 | 83 | 1012.0 |
| 20260831151333 | 60 | 221 | 4.3 | 9.6 | 0.00 | 0.00 | 0.00 | 83 | 1012.0 |
| 20260831151229 | 60 | 215 | 4.3 | 9.6 | 0.00 | 0.00 | 0.00 | 83 | 1012.0 |
| 20260831151212 | 60 | 277 | 3.5 | 9.6 | 0.00 | 0.00 | 0.00 | 83 | 1012.0 |
| 20260831151129 | 60 | 253 | 4.3 | 9.6 | 0.00 | 0.00 | 0.00 | 83 | 1012.0 |
| 20260831151056 | 60 | 223 | 4.3 | 9.6 | 0.00 | 0.00 | 0.00 | 83 | 1012.0 |
| 20260831150928 | 60 | 259 | 3.5 | 9.6 | 0.00 | 0.00 | 0.00 | 83 | 1012.0 |
| 20260831150827 | 60 | 263 | 3.5 | 9.6 | 0.00 | 0.00 | 0.00 | 83 | 1012.0 |
| 20260831150722 | 60 | 236 | 3.5 | 9.6 | 0.00 | 0.00 | 0.00 | 83 | 1011.9 |
| 20260831150625 | 60 | 238 | 3.5 | 9.6 | 0.00 | 0.00 | 0.00 | 83 | 1011.9 |
| 20260831150523 | 60 | 169 | 2.6 | 9.6 | 0.00 | 0.00 | 0.00 | 83 | 1011.9 |
| 20260831150446 | 60 | 243 | 2.6 | 9.6 | 0.00 | 0.00 | 0.00 | 83 | 1011.9 |
| 20260831150423 | 60 | 219 | 2.6 | 9.6 | 0.00 | 0.00 | 0.00 | 83 | 1011.9 |
| 20260831150322 | 60 | 245 | 2.6 | 7.8 | 0.00 | 0.00 | 0.00 | 83 | 1011.8 |
| 20260831150219 | 60 | 231 | 2.6 | 7.8 | 0.00 | 0.00 | 0.00 | 83 | 1011.8 |
| 20260831150116 | 59 | 162 | 1.7 | 7.8 | 0.00 | 0.00 | 0.00 | 84 | 1011.8 |
| 20260831150017 | 59 | 266 | 1.7 | 7.8 | 0.00 | 0.00 | 0.00 | 84 | 1011.8 |
| 20260831145946 | 59 | 231 | 1.7 | 7.8 | 0.00 | 0.00 | 0.00 | 84 | 1011.8 |
| 20260831145917 | 59 | 212 | 1.7 | 7.8 | 0.00 | 0.00 | 0.00 | 84 | 1011.8 |
| 20260831145816 | 59 | 233 | 1.7 | 7.8 | 0.00 | 0.00 | 0.00 | 84 | 1011.8 |
| 20260831145710 | 59 | 233 | 1.7 | 7.8 | 0.00 | 0.00 | 0.00 | 84 | 1011.8 |
| 20260831145611 | 59 | 218 | 1.7 | 7.8 | 0.00 | 0.00 | 0.00 | 84 | 1011.7 |
| 20260831145509 | 59 | 242 | 2.6 | 7.8 | 0.00 | 0.00 | 0.00 | 84 | 1011.7 |
| 20260831145446 | 59 | 257 | 2.6 | 7.0 | 0.00 | 0.00 | 0.00 | 84 | 1011.7 |
| 20260831145408 | 59 | 289 | 1.7 | 7.0 | 0.00 | 0.00 | 0.00 | 84 | 1011.7 |
| 20260831145309 | 59 | 235 | 2.6 | 7.0 | 0.00 | 0.00 | 0.00 | 84 | 1011.7 |
| 20260831145208 | 59 | 218 | 2.6 | 7.0 | 0.00 | 0.00 | 0.00 | 85 | 1011.7 |
| 20260831145203 | 59 | 235 | 1.7 | 7.0 | 0.00 | 0.00 | 0.00 | 84 | 1011.7 |
| 20260831145103 | 59 | 250 | 2.6 | 7.0 | 0.00 | 0.00 | 0.00 | 84 | 1011.7 |
| 20260831145054 | 59 | 233 | 2.6 | 7.0 | 0.00 | 0.00 | 0.00 | 85 | 1011.7 |
| 20260831144925 | 59 | 263 | 2.6 | 9.6 | 0.00 | 0.00 | 0.00 | 85 | 1011.6 |
| 20260831144902 | 59 | 224 | 2.6 | 7.0 | 0.00 | 0.00 | 0.00 | 85 | 1011.7 |
| 20260831144817 | 59 | 226 | 2.6 | 7.8 | 0.00 | 0.00 | 0.00 | 85 | 1011.6 |
| 20260831144658 | 59 | 238 | 2.6 | 9.6 | 0.00 | 0.00 | 0.00 | 85 | 1011.6 |
| 20260831144557 | 59 | 236 | 2.6 | 9.6 | 0.00 | 0.00 | 0.00 | 85 | 1011.6 |
| 20260831144548 | 59 | 250 | 2.6 | 9.6 | 0.00 | 0.00 | 0.00 | 85 | 1011.6 |
| 20260831144356 | 59 | 226 | 2.6 | 9.6 | 0.00 | 0.00 | 0.00 | 85 | 1011.6 |
| 20260831144255 | 59 | 256 | 2.6 | 9.6 | 0.00 | 0.00 | 0.00 | 85 | 1011.6 |
| 20260831144150 | 59 | 256 | 2.6 | 9.6 | 0.00 | 0.00 | 0.00 | 85 | 1011.6 |
| 20260831144050 | 59 | 221 | 2.6 | 9.6 | 0.00 | 0.00 | 0.00 | 85 | 1011.6 |
| 20260831143951 | 58 | 243 | 2.6 | 9.6 | 0.00 | 0.00 | 0.00 | 85 | 1011.6 |
| 20260831143936 | 58 | 245 | 2.6 | 9.6 | 0.00 | 0.00 | 0.00 | 85 | 1011.6 |
| 20260831143851 | 58 | 279 | 2.6 | 9.6 | 0.00 | 0.00 | 0.00 | 85 | 1011.6 |
| 20260831143750 | 58 | 212 | 2.6 | 9.6 | 0.00 | 0.00 | 0.00 | 85 | 1011.5 |
| 20260831143646 | 58 | 252 | 2.6 | 9.6 | 0.00 | 0.00 | 0.00 | 85 | 1011.6 |
| 20260831143544 | 58 | 321 | 2.6 | 9.6 | 0.00 | 0.00 | 0.00 | 85 | 1011.5 |
| 20260831143445 | 58 | 238 | 2.6 | 8.7 | 0.00 | 0.00 | 0.00 | 86 | 1011.5 |
| 20260831143430 | 58 | 250 | 2.6 | 8.7 | 0.00 | 0.00 | 0.00 | 86 | 1011.5 |
| 20260831143344 | 58 | 230 | 2.6 | 8.7 | 0.00 | 0.00 | 0.00 | 86 | 1011.5 |
| 20260831143244 | 58 | 212 | 1.7 | 8.7 | 0.00 | 0.00 | 0.00 | 86 | 1011.5 |
| 20260831143140 | 58 | 271 | 2.6 | 8.7 | 0.00 | 0.00 | 0.00 | 86 | 1011.5 |
| 20260831143038 | 58 | 203 | 2.6 | 8.7 | 0.00 | 0.00 | 0.00 | 86 | 1011.5 |
| 20260831142939 | 58 | 232 | 2.6 | 8.7 | 0.00 | 0.00 | 0.00 | 86 | 1011.5 |
| 20260831142925 | 58 | 221 | 2.6 | 8.7 | 0.00 | 0.00 | 0.00 | 86 | 1011.5 |
| 20260831142838 | 58 | 297 | 1.7 | 8.7 | 0.00 | 0.00 | 0.00 | 86 | 1011.5 |
| 20260831142738 | 58 | 191 | 1.7 | 7.8 | 0.00 | 0.00 | 0.00 | 86 | 1011.5 |
| 20260831142647 | 58 | 232 | 2.6 | 8.7 | 0.00 | 0.00 | 0.00 | 86 | 1011.5 |
| 20260831142640 | 58 | 250 | 1.7 | 7.8 | 0.00 | 0.00 | 0.00 | 86 | 1011.5 |
| 20260831142536 | 58 | 231 | 1.7 | 7.8 | 0.00 | 0.00 | 0.00 | 86 | 1011.4 |
| 20260831142524 | 58 | 267 | 2.6 | 7.8 | 0.00 | 0.00 | 0.00 | 86 | 1011.5 |
| 20260831142335 | 58 | 245 | 2.6 | 11.3 | 0.00 | 0.00 | 0.00 | 86 | 1011.5 |
| 20260831142232 | 58 | 293 | 2.6 | 11.3 | 0.00 | 0.00 | 0.00 | 86 | 1011.4 |
| 20260831142128 | 58 | 250 | 3.5 | 11.3 | 0.00 | 0.00 | 0.00 | 86 | 1011.4 |
| 20260831142026 | 58 | 284 | 3.5 | 11.3 | 0.00 | 0.00 | 0.00 | 86 | 1011.4 |
| 20260831141926 | 58 | 291 | 3.5 | 11.3 | 0.00 | 0.00 | 0.00 | 87 | 1011.4 |
| 20260831141913 | 58 | 203 | 3.5 | 11.3 | 0.00 | 0.00 | 0.00 | 87 | 1011.4 |
| 20260831141826 | 58 | 256 | 3.5 | 11.3 | 0.00 | 0.00 | 0.00 | 86 | 1011.4 |
| 20260831141726 | 58 | 266 | 3.5 | 11.3 | 0.00 | 0.00 | 0.00 | 87 | 1011.4 |
| 20260831141621 | 58 | 280 | 3.5 | 11.3 | 0.00 | 0.00 | 0.00 | 87 | 1011.4 |
| 20260831141520 | 58 | 300 | 4.3 | 11.3 | 0.00 | 0.00 | 0.00 | 87 | 1011.3 |
| 20260831141421 | 58 | 231 | 4.3 | 11.3 | 0.00 | 0.00 | 0.00 | 87 | 1011.4 |
| 20260831141406 | 58 | 235 | 3.5 | 11.3 | 0.00 | 0.00 | 0.00 | 87 | 1011.3 |
| 20260831141320 | 58 | 243 | 3.5 | 8.7 | 0.00 | 0.00 | 0.00 | 87 | 1011.3 |
| 20260831141220 | 58 | 236 | 3.5 | 8.7 | 0.00 | 0.00 | 0.00 | 87 | 1011.3 |
| 20260831141116 | 58 | 240 | 3.5 | 8.7 | 0.00 | 0.00 | 0.00 | 87 | 1011.3 |
| 20260831141014 | 58 | 214 | 3.5 | 8.7 | 0.00 | 0.00 | 0.00 | 87 | 1011.3 |
| 20260831140914 | 58 | 224 | 2.6 | 8.7 | 0.00 | 0.00 | 0.00 | 87 | 1011.3 |
| 20260831140900 | 58 | 245 | 2.6 | 8.7 | 0.00 | 0.00 | 0.00 | 87 | 1011.2 |
| 20260831140815 | 58 | 243 | 2.6 | 8.7 | 0.00 | 0.00 | 0.00 | 87 | 1011.2 |
| 20260831140714 | 57 | 219 | 2.6 | 8.7 | 0.00 | 0.00 | 0.00 | 87 | 1011.2 |
| 20260831140626 | 57 | 259 | 1.7 | 7.8 | 0.00 | 0.00 | 0.00 | 87 | 1011.1 |
| 20260831140609 | 57 | 233 | 2.6 | 8.7 | 0.00 | 0.00 | 0.00 | 87 | 1011.2 |
| 20260831140508 | 57 | 256 | 2.6 | 8.7 | 0.00 | 0.00 | 0.00 | 87 | 1011.2 |
| 20260831140440 | 57 | 222 | 1.7 | 7.8 | 0.00 | 0.00 | 0.00 | 87 | 1011.1 |
| 20260831140308 | 57 | 226 | 1.7 | 7.8 | 0.00 | 0.00 | 0.00 | 87 | 1011.1 |
| 20260831140208 | 57 | 271 | 1.7 | 8.7 | 0.00 | 0.00 | 0.00 | 87 | 1011.1 |
| 20260831140105 | 57 | 233 | 1.7 | 8.7 | 0.00 | 0.00 | 0.00 | 87 | 1011.1 |
| 20260831140004 | 57 | 240 | 1.7 | 8.7 | 0.00 | 0.00 | 0.00 | 87 | 1011.0 |